[[{"header":{"parameterUnit":"m.s-1","parameterCategory":1,"la1":30.6,"la2":29.2853,"lo1":-89.7004,"lo2":-87.6739,"dy":0.0162,"dx":0.0183,"nx":112,"ny":82,"refTime":"2023-07-14T12:00:00:Z","depth":0,"parameterNumber":2,"parameterNumberName":"U-component_of_WINDS"},"data":[0.0,0.0,0.0,0.0,0.0,0.0,0.0,0.0,0.0,0.0,0.0,0.0,0.0,0.0,0.0,0.0,0.0,0.0,0.0,0.0,0.0,0.0,0.0,0.0,0.0,0.0,0.0,0.0,0.0,0.0,0.0,0.0,0.0,0.0,0.0,0.0,0.0,0.0,0.0,0.0,0.0,0.0,0.0,0.0,0.0,0.0,0.0,0.0,0.0,0.0,0.0,0.0,0.0,0.0,0.0,0.0,0.0,0.0,0.0,0.0,0.0,0.0,0.0,0.0,0.0,0.0,0.0,0.0,0.0,0.0,0.0,0.0,0.0,0.0,0.0,0.0,0.0,0.0,0.0,0.0,0.0,0.0,0.0,0.0,0.0,0.0,0.0,0.0,0.0,0.0,-0.6812,-0.7895,-0.9233,-0.9945,-0.9861,-0.958,-0.9214,-0.8672,0.0,0.0,0.0,0.0,0.0,0.0,0.0,0.0,0.0,0.0,0.0,0.0,0.0,0.0,0.0,0.0,0.0,0.0,0.0,0.0,0.0,0.0,0.0,0.0,0.0,0.0,0.0,0.0,0.0,0.0,0.0,0.0,0.0,0.0,0.0,0.0,0.0,0.0,0.0,0.0,0.0,0.0,0.0,0.0,0.0,0.0,0.0,0.0,0.0,0.0,0.0,0.0,0.0,0.0,0.0,0.0,0.0,0.0,0.0,0.0,0.0,0.0,0.0,0.0,0.0,0.0,0.0,0.0,0.0,0.0,0.0,0.0,0.0,0.0,0.0,0.0,0.0,0.0,0.0,0.0,0.0,0.0,0.0,0.0,0.0,0.0,0.0,0.0,0.0,0.0,0.0,0.0,0.0,0.0,0.0,0.0,0.0,0.0,0.0,0.0,0.0,0.0,0.0,0.0,-0.6942,-0.8391,-0.9452,-0.9904,-0.9643,-0.9464,-0.9086,-0.8449,0.0,0.0,0.0,0.0,0.0,0.0,0.0,0.0,0.0,0.0,0.0,0.0,0.0,0.0,0.0,0.0,0.0,0.0,0.0,0.0,0.0,0.0,0.0,0.0,0.0,0.0,0.0,0.0,0.0,0.0,0.0,0.0,0.0,0.0,0.0,0.0,0.0,0.0,0.0,0.0,0.0,0.0,0.0,0.0,0.0,0.0,0.0,0.0,0.0,0.0,0.0,0.0,0.0,0.0,0.0,0.0,0.0,0.0,0.0,0.0,0.0,0.0,0.0,0.0,0.0,0.0,0.0,0.0,0.0,0.0,0.0,0.0,0.0,0.0,0.0,0.0,0.0,0.0,0.0,0.0,0.0,0.0,0.0,0.0,0.0,0.0,0.0,0.0,0.0,0.0,0.0,0.0,0.0,0.0,0.0,0.0,0.0,0.0,0.0,0.0,0.0,0.0,0.0,-0.6942,-0.77,-0.867,-0.9336,-0.9682,-0.9593,-0.9148,-0.8743,-0.8288,-0.7362,0.0,0.0,0.0,0.0,0.0,0.0,0.0,0.0,0.0,0.0,0.0,0.0,0.0,0.0,0.0,0.0,0.0,0.0,0.0,0.0,0.0,0.0,0.0,0.0,0.0,0.0,0.0,0.0,0.0,0.0,0.0,0.0,0.0,0.0,0.0,0.0,0.0,0.0,0.0,0.0,0.0,0.0,0.0,0.0,0.0,0.0,0.0,0.0,0.0,0.0,0.0,0.0,0.0,0.0,0.0,0.0,0.0,0.0,0.0,0.0,0.0,0.0,0.0,0.0,0.0,0.0,0.0,0.0,0.0,0.0,0.0,0.0,0.0,0.0,0.0,0.0,0.0,0.0,0.0,0.0,0.0,0.0,0.0,0.0,0.0,0.0,0.0,0.0,0.0,0.0,0.0,0.0,0.0,0.0,0.0,0.0,0.0,0.0,0.0,0.0,0.0,0.0,-0.7573,-0.8336,-0.8856,-0.9259,-0.9483,-0.9436,-0.8987,-0.8463,-0.8105,-0.711,0.0,0.0,0.0,0.0,0.0,0.0,0.0,0.0,0.0,0.0,0.0,0.0,0.0,0.0,0.0,0.0,0.0,0.0,0.0,0.0,0.0,0.0,0.0,0.0,0.0,0.0,0.0,0.0,0.0,0.0,0.0,0.0,0.0,0.0,0.0,0.0,0.0,0.0,0.0,0.0,0.0,0.0,0.0,0.0,0.0,0.0,0.0,0.0,0.0,0.0,0.0,0.0,0.0,0.0,0.0,0.0,0.0,0.0,0.0,0.0,0.0,0.0,0.0,0.0,0.0,0.0,0.0,0.0,0.0,0.0,0.0,0.0,0.0,0.0,0.0,0.0,0.0,0.0,0.0,0.0,0.0,0.0,0.0,0.0,0.0,0.0,0.0,0.0,0.0,0.0,0.0,0.0,0.0,0.0,0.0,0.0,0.0,0.0,0.0,0.0,0.0,0.0,-0.7683,-0.8484,-0.8869,-0.9259,-0.9444,-0.9431,-0.8997,-0.8561,-0.8044,-0.6962,0.0,0.0,0.0,0.0,0.0,0.0,0.0,0.0,0.0,0.0,0.0,0.0,0.0,0.0,0.0,0.0,0.0,0.0,0.0,0.0,0.0,0.0,0.0,0.0,0.0,0.0,0.0,0.0,0.0,0.0,0.0,0.0,0.0,0.0,0.0,0.0,0.0,0.0,0.0,0.0,0.0,0.0,0.0,0.0,0.0,0.0,0.0,0.0,0.0,0.0,0.0,0.0,0.0,0.0,0.0,0.0,0.0,0.0,0.0,0.0,0.0,0.0,0.0,0.0,0.0,0.0,0.0,0.0,0.0,0.0,0.0,0.0,0.0,0.0,0.0,0.0,0.0,0.0,0.0,0.0,0.0,0.0,0.0,0.0,0.0,0.0,0.0,0.0,0.0,0.0,0.0,0.0,0.0,0.0,0.0,0.0,0.0,0.0,0.0,0.0,0.0,0.0,-0.7686,-0.8377,-0.8935,-0.9237,-0.9374,-0.9155,-0.8812,-0.8246,-0.7461,0.0,0.0,0.0,0.0,0.0,0.0,0.0,0.0,0.0,0.0,0.0,0.0,0.0,0.0,0.0,0.0,0.0,0.0,0.0,0.0,0.0,0.0,0.0,0.0,0.0,0.0,0.0,0.0,0.0,0.0,0.0,0.0,0.0,0.0,0.0,0.0,0.0,0.0,0.0,0.0,0.0,0.0,0.0,0.0,0.0,0.0,0.0,0.0,0.0,0.0,0.0,0.0,0.0,0.0,0.0,0.0,0.0,0.0,0.0,0.0,0.0,0.0,0.0,0.0,0.0,0.0,0.0,0.0,0.0,0.0,0.0,0.0,0.0,0.0,0.0,0.0,0.0,0.0,0.0,0.0,0.0,0.0,0.0,0.0,0.0,0.0,0.0,0.0,0.0,0.0,0.0,0.0,0.0,0.0,0.0,0.0,0.0,0.0,0.0,0.0,0.0,0.0,-0.69,-0.7537,-0.8212,-0.8761,-0.906,-0.9091,-0.8952,-0.8562,-0.7901,-0.7169,0.0,0.0,0.0,0.0,0.0,0.0,0.0,0.0,0.0,0.0,0.0,0.0,0.0,0.0,0.0,0.0,0.0,0.0,0.0,0.0,0.0,0.0,0.0,0.0,0.0,0.0,0.0,0.0,0.0,0.0,0.0,0.0,0.0,0.0,0.0,0.0,0.0,0.0,0.0,0.0,0.0,0.0,0.0,0.0,0.0,0.0,0.0,0.0,0.0,0.0,0.0,0.0,0.0,0.0,0.0,0.0,0.0,0.0,0.0,0.0,0.0,0.0,0.0,0.0,0.0,0.0,0.0,0.0,0.0,0.0,0.0,0.0,0.0,0.0,0.0,0.0,0.0,0.0,0.0,0.0,0.0,0.0,0.0,0.0,0.0,0.0,0.0,0.0,0.0,0.0,0.0,0.0,0.0,0.0,0.0,0.0,0.0,0.0,0.0,0.0,0.0,0.0,-0.6437,-0.7292,-0.7889,-0.8303,-0.8493,-0.8657,-0.881,-0.8339,-0.7812,0.0,0.0,0.0,0.0,0.0,0.0,0.0,0.0,0.0,0.0,0.0,0.0,0.0,0.0,0.0,0.0,0.0,0.0,0.0,0.0,0.0,0.0,0.0,0.0,0.0,0.0,0.0,0.0,0.0,0.0,0.0,0.0,0.0,0.0,0.0,0.0,0.0,0.0,0.0,0.0,0.0,0.0,0.0,0.0,0.0,0.0,0.0,0.0,0.0,0.0,0.0,0.0,0.0,0.0,0.0,0.0,0.0,0.0,0.0,0.0,0.0,0.0,0.0,0.0,0.0,0.0,0.0,0.0,0.0,0.0,0.0,0.0,0.0,0.0,0.0,0.0,0.0,0.0,0.0,0.0,0.0,0.0,0.0,0.0,0.0,0.0,0.0,0.0,0.0,0.0,0.0,0.0,0.0,0.0,0.0,0.0,0.0,0.0,0.0,0.0,0.0,0.0,0.0,-0.6583,-0.7284,-0.792,-0.8221,-0.859,-0.8678,-0.8528,-0.8254,-0.7834,-0.6929,0.0,0.0,0.0,0.0,0.0,0.0,0.0,0.0,0.0,0.0,0.0,0.0,0.0,0.0,0.0,0.0,0.0,0.0,0.0,0.0,0.0,0.0,0.0,0.0,0.0,0.0,0.0,0.0,0.0,0.0,0.0,0.0,0.0,0.0,0.0,0.0,0.0,0.0,0.0,0.0,0.0,0.0,0.0,0.0,0.0,0.0,0.0,0.0,0.0,0.0,0.0,0.0,0.0,0.0,0.0,0.0,0.0,0.0,0.0,0.0,0.0,0.0,0.0,0.0,0.0,0.0,0.0,0.0,0.0,0.0,0.0,0.0,0.0,0.0,0.0,0.0,0.0,0.0,0.0,0.0,0.0,0.0,0.0,0.0,0.0,0.0,0.0,0.0,0.0,0.0,0.0,0.0,0.0,0.0,0.0,0.0,0.0,0.0,0.0,0.0,0.0,0.0,-0.6319,-0.7088,-0.7722,-0.8034,-0.8379,-0.8553,-0.8411,-0.8127,-0.7637,-0.6985,0.0,0.0,0.0,0.0,0.0,0.0,0.0,0.0,0.0,0.0,0.0,0.0,0.0,0.0,0.0,0.0,0.0,0.0,0.0,0.0,0.0,0.0,0.0,0.0,0.0,0.0,0.0,0.0,0.0,0.0,0.0,0.0,0.0,0.0,0.0,0.0,0.0,0.0,0.0,0.0,0.0,0.0,0.0,0.0,0.0,0.0,0.0,0.0,0.0,0.0,0.0,0.0,0.0,0.0,0.0,0.0,0.0,0.0,0.0,0.0,0.0,0.0,0.0,0.0,0.0,0.0,0.0,0.0,0.0,0.0,0.0,0.0,0.0,0.0,0.0,0.0,0.0,0.0,0.0,0.0,0.0,0.0,0.0,0.0,0.0,0.0,0.0,0.0,0.0,0.0,0.0,0.0,0.0,0.0,0.0,0.0,0.0,0.0,0.0,0.0,0.0,0.0,-0.5786,-0.6593,-0.7228,-0.7515,-0.7978,-0.8223,-0.8367,-0.7932,-0.7472,-0.7241,0.0,0.0,0.0,0.0,0.0,0.0,0.0,0.0,0.0,0.0,0.0,0.0,0.0,0.0,0.0,0.0,0.0,0.0,0.0,0.0,0.0,0.0,0.0,0.0,0.0,0.0,0.0,0.0,0.0,0.0,0.0,0.0,0.0,0.0,0.0,0.0,0.0,0.0,0.0,0.0,0.0,0.0,0.0,0.0,0.0,0.0,0.0,0.0,0.0,0.0,0.0,0.0,0.0,0.0,0.0,0.0,0.0,0.0,0.0,0.0,-0.0976,-0.0878,0.0,0.0,0.0,0.0,0.0,0.0,0.0,0.0,0.0,0.0,0.0,0.0,0.0,0.0,0.0,0.0,0.0,0.0,0.0,0.0,0.0,0.0,0.0,0.0,0.0,0.0,0.0,0.0,0.0,0.0,0.0,0.0,0.0,0.0,0.0,0.0,0.0,0.0,0.0,0.0,-0.5728,-0.6377,-0.6942,-0.7211,-0.7465,-0.7604,-0.774,-0.77,-0.7367,-0.6956,-0.6741,0.0,0.0,0.0,0.0,0.0,0.0,0.0,0.0,0.0,0.0,0.0,0.0,0.0,0.0,0.0,0.0,0.0,0.0,0.0,0.0,0.0,0.0,0.0,0.0,0.0,0.0,0.0,0.0,0.0,0.0,0.0,0.0,0.0,0.0,0.0,0.0,0.0,0.0,0.0,0.0,0.0,0.0,0.0,0.0,0.0,0.0,0.0,0.0,0.0,0.0,0.0,0.0,0.0,0.0,0.0,0.0,0.0,0.0,0.0,-0.1229,-0.1106,0.0,0.0,0.0,0.0,0.0,0.0,0.0,0.0,0.0,0.0,0.0,0.0,0.0,0.0,0.0,0.0,0.0,0.0,0.0,0.0,0.0,0.0,0.0,0.0,0.0,0.0,0.0,0.0,0.0,0.0,0.0,0.0,0.0,0.0,0.0,0.0,0.0,0.0,0.0,0.0,-0.5599,-0.6164,-0.6738,-0.7199,-0.7449,-0.7687,-0.7828,-0.7568,-0.7364,-0.7125,-0.674,0.0,0.0,0.0,0.0,0.0,0.0,0.0,0.0,0.0,0.0,0.0,0.0,0.0,0.0,0.0,0.0,0.0,0.0,0.0,0.0,0.0,0.0,0.0,0.0,0.0,0.0,0.0,0.0,0.0,0.0,0.0,0.0,0.0,0.0,0.0,0.0,0.0,0.0,0.0,0.0,0.0,0.0,0.0,0.0,0.0,0.0,0.0,0.0,0.0,0.0,0.0,0.0,0.0,-0.2038,-0.2086,-0.2095,-0.1772,-0.1692,-0.1603,-0.1552,-0.1338,-0.1108,-0.1108,0.0,0.0,0.0,0.0,0.0,0.0,0.0,0.0,0.0,0.0,0.0,0.0,0.0,0.0,0.0,0.0,0.0,0.0,0.0,0.0,0.0,0.0,-0.2591,-0.3197,-0.343,-0.3493,-0.379,0.0,0.0,0.0,0.0,0.0,0.0,0.0,0.0,0.0,0.0,0.0,-0.5425,-0.5966,-0.6436,-0.7009,-0.7344,-0.7677,-0.7811,-0.7506,-0.7328,-0.7308,-0.6802,-0.6461,0.0,0.0,0.0,0.0,0.0,0.0,0.0,0.0,0.0,0.0,0.0,0.0,0.0,0.0,0.0,0.0,0.0,0.0,0.0,0.0,0.0,0.0,0.0,0.0,0.0,0.0,0.0,0.0,0.0,0.0,0.0,0.0,-0.2755,-0.2756,0.0,0.0,0.0,0.0,0.0,0.0,0.0,0.0,0.0,0.0,0.0,0.0,0.0,-0.2124,-0.2385,-0.2452,-0.2512,-0.2563,-0.246,-0.2341,-0.2385,-0.2119,-0.1942,-0.1764,-0.1744,0.0,-0.131,-0.131,0.0,0.0,0.0,0.0,0.0,0.0,0.0,0.0,0.0,0.0,0.0,0.0,0.0,0.0,0.0,0.0,0.0,0.0,0.0,0.0,0.0,0.0,-0.2786,-0.3241,-0.3335,-0.3482,-0.3806,-0.4029,-0.4228,-0.4228,-0.4228,-0.4228,0.0,0.0,0.0,0.0,0.0,0.0,-0.5248,-0.5518,-0.5962,-0.6486,-0.6642,-0.6806,-0.7254,-0.7252,-0.7199,-0.71,-0.694,-0.6766,-0.6439,-0.6279,0.0,0.0,0.0,0.0,0.0,0.0,0.0,0.0,0.0,0.0,0.0,0.0,0.0,0.0,0.0,0.0,0.0,0.0,0.0,0.0,0.0,0.0,0.0,0.0,0.0,0.0,0.0,0.0,0.0,-0.2949,-0.3049,-0.2985,-0.2974,-0.2857,0.0,0.0,0.0,0.0,0.0,0.0,0.0,0.0,0.0,-0.2402,-0.2439,-0.2496,-0.2662,-0.2755,-0.2728,-0.2667,-0.2541,-0.2486,-0.2323,-0.2138,-0.1951,-0.1858,-0.1672,-0.1548,-0.1406,-0.1371,-0.1357,-0.1357,0.0,0.0,0.0,0.0,-0.11,-0.109,-0.1105,-0.1208,-0.1401,-0.1348,0.0,0.0,0.0,0.0,0.0,0.0,0.0,-0.2648,-0.2819,-0.2867,-0.3021,-0.3366,-0.3552,-0.3618,-0.3992,-0.4133,-0.4234,-0.414,-0.4122,-0.4109,-0.4063,-0.4244,0.0,0.0,0.0,-0.492,-0.53,-0.5523,-0.5875,-0.6289,-0.6313,-0.6465,-0.6681,-0.686,-0.6914,-0.6866,-0.6912,-0.6883,-0.6657,-0.6464,-0.6452,0.0,0.0,0.0,0.0,0.0,0.0,0.0,0.0,0.0,0.0,0.0,0.0,0.0,0.0,0.0,0.0,0.0,0.0,0.0,0.0,0.0,0.0,0.0,0.0,0.0,0.0,0.0,0.0,-0.318,-0.3276,-0.3244,-0.3234,-0.3187,0.0,0.0,0.0,0.0,0.0,0.0,-0.2475,-0.2458,-0.2545,-0.2668,-0.2729,-0.2789,-0.285,-0.2846,-0.281,-0.2653,-0.2498,-0.2335,-0.2162,-0.1965,-0.1866,-0.1866,-0.167,-0.1571,-0.1566,-0.1489,-0.1459,-0.1459,-0.1459,-0.1431,-0.1393,-0.1384,-0.1458,-0.1447,-0.1463,-0.149,-0.152,-0.1452,-0.1438,-0.1409,-0.1388,0.0,0.0,0.0,0.0,-0.2863,-0.3012,-0.3072,-0.3244,-0.3455,-0.3632,-0.3695,-0.3978,-0.4008,-0.4081,-0.4022,-0.3989,-0.3972,-0.4016,-0.4109,0.0,-0.4407,-0.4659,-0.4947,-0.538,-0.5519,-0.5762,-0.6113,-0.6242,-0.6259,-0.6417,-0.6579,-0.6631,-0.6715,-0.6858,-0.6867,-0.6855,-0.6643,-0.6662,-0.6905,0.0,0.0,0.0,0.0,0.0,0.0,0.0,0.0,0.0,0.0,0.0,0.0,0.0,0.0,0.0,0.0,0.0,0.0,0.0,0.0,0.0,0.0,0.0,0.0,0.0,0.0,0.0,0.0,0.0,-0.3549,-0.3551,0.0,0.0,0.0,0.0,-0.3086,-0.2927,-0.292,-0.2989,-0.2811,-0.2734,-0.2857,-0.2916,-0.2974,-0.313,-0.2755,-0.2714,-0.2814,-0.2316,-0.2052,-0.212,-0.1801,-0.1695,-0.1695,-0.1695,-0.1695,-0.1686,-0.1569,-0.1521,-0.1521,-0.1521,-0.152,-0.1513,-0.1485,-0.1491,-0.1511,-0.1483,-0.1494,-0.152,-0.1521,-0.1501,-0.1476,-0.1474,-0.1659,0.0,0.0,-0.2465,-0.2747,-0.31,-0.3262,-0.3323,-0.3388,-0.3446,-0.3504,-0.3565,-0.3624,-0.3837,-0.4077,-0.4143,-0.4141,-0.4138,0.0,-0.4348,-0.4661,-0.4665,-0.4834,-0.5339,-0.5369,-0.5556,-0.6082,-0.6105,-0.6181,-0.6429,-0.6417,-0.6485,-0.672,-0.671,-0.6767,-0.698,-0.6853,-0.6777,-0.6839,-0.6768,0.0,0.0,0.0,0.0,0.0,0.0,0.0,0.0,0.0,0.0,0.0,0.0,0.0,0.0,0.0,0.0,0.0,0.0,0.0,0.0,0.0,0.0,0.0,0.0,0.0,0.0,0.0,0.0,-0.3692,-0.3709,0.0,-0.3537,-0.3575,-0.3508,-0.3482,-0.3395,-0.3219,-0.3117,-0.3184,-0.3083,-0.3077,-0.3044,-0.2988,-0.2814,-0.2787,-0.2636,-0.2362,-0.2183,-0.2,-0.1811,-0.1704,-0.1704,-0.1704,-0.1704,-0.1704,-0.1701,-0.1658,-0.1641,-0.1641,-0.1641,-0.163,-0.1612,-0.1602,-0.1605,-0.1612,-0.1601,-0.1617,-0.1641,-0.1641,-0.1621,-0.1598,-0.1598,-0.1797,-0.1994,-0.2094,-0.2539,-0.2905,-0.3028,-0.3284,-0.345,-0.3511,-0.3571,-0.363,-0.3691,-0.3722,-0.3834,-0.3882,-0.3983,-0.3968,-0.3926,-0.403,-0.4142,-0.4254,-0.4698,-0.4963,-0.5194,-0.5438,-0.5598,-0.5839,-0.5798,-0.589,-0.6035,-0.604,-0.6294,-0.6483,-0.6641,-0.6774,-0.6991,-0.6866,-0.6829,-0.6972,-0.6914,-0.6935,0.0,0.0,0.0,0.0,0.0,0.0,0.0,0.0,0.0,0.0,0.0,0.0,0.0,0.0,0.0,0.0,0.0,0.0,0.0,0.0,0.0,0.0,0.0,0.0,0.0,-0.3945,-0.4084,-0.3951,-0.4006,-0.4044,-0.3968,-0.3898,-0.39,-0.3903,-0.3809,-0.3609,-0.3386,-0.3454,-0.3324,-0.3078,-0.3158,-0.31,-0.2901,-0.2785,-0.2626,-0.2218,-0.2138,-0.1941,-0.1735,-0.1735,-0.1735,-0.1735,-0.1735,-0.1735,-0.1735,-0.1735,-0.1735,-0.1733,-0.1712,-0.1692,-0.1676,-0.1676,-0.1676,-0.1676,-0.1676,-0.1688,-0.1704,-0.1704,-0.1692,-0.1676,-0.1676,-0.178,-0.1989,-0.2093,-0.2439,-0.2796,-0.3012,-0.3171,-0.3456,-0.3608,-0.3665,-0.3726,-0.3786,-0.38,-0.3807,-0.3827,-0.3797,-0.3756,-0.3717,-0.3826,-0.4057,-0.4288,-0.4634,-0.5009,-0.5328,-0.5574,-0.5725,-0.5818,-0.5772,-0.5747,-0.578,-0.5877,-0.6003,-0.6424,-0.6551,-0.6682,-0.7046,-0.6929,-0.6915,-0.6897,-0.7009,-0.7034,-0.7175,0.0,0.0,0.0,0.0,0.0,0.0,0.0,0.0,0.0,0.0,0.0,0.0,0.0,0.0,0.0,0.0,0.0,0.0,0.0,0.0,0.0,0.0,0.0,-0.4129,-0.424,-0.4284,-0.4339,-0.4318,-0.4284,-0.4237,-0.4257,-0.4344,-0.4432,-0.424,-0.41,-0.382,-0.36,-0.3344,-0.3149,-0.3263,-0.3324,-0.3324,-0.2855,-0.2582,-0.2626,-0.2079,-0.1766,-0.1795,-0.1795,-0.1795,-0.1795,-0.1795,-0.1795,-0.1796,-0.1796,-0.1797,-0.1792,-0.1731,-0.1707,-0.1707,-0.1707,-0.1707,-0.1709,-0.171,-0.171,-0.171,-0.171,-0.171,-0.171,-0.171,-0.171,-0.171,-0.2031,-0.2164,-0.2302,-0.2962,-0.3145,-0.3335,-0.3568,-0.3729,-0.3789,-0.385,-0.3862,-0.388,-0.394,-0.3856,-0.3775,-0.3775,-0.3775,-0.4009,-0.4596,-0.4714,0.0,-0.5654,-0.5786,-0.5818,-0.5908,-0.5916,-0.5882,-0.5792,-0.57,-0.5841,-0.6319,-0.6334,-0.6609,-0.7154,-0.7046,-0.6929,-0.6804,-0.6956,-0.718,-0.7614,0.0,0.0,0.0,0.0,0.0,0.0,0.0,0.0,0.0,0.0,0.0,0.0,0.0,0.0,0.0,0.0,0.0,0.0,0.0,0.0,0.0,-0.4197,-0.4374,-0.4374,-0.4632,-0.4746,-0.4477,-0.4699,-0.4699,-0.4345,-0.4406,-0.4508,-0.4532,-0.4328,-0.4208,-0.397,-0.374,-0.3494,-0.3337,-0.3369,-0.3281,-0.3069,-0.3015,-0.2831,-0.2626,-0.2215,-0.2122,-0.2132,-0.1907,-0.1795,-0.1795,-0.1795,-0.1808,-0.1827,-0.1827,-0.184,-0.1855,-0.1794,-0.177,-0.177,-0.177,-0.1784,-0.1806,-0.1828,-0.1836,-0.1836,-0.1836,-0.1836,-0.1836,-0.1836,-0.1836,-0.1836,-0.195,-0.2072,-0.2311,-0.2427,-0.2906,-0.3285,-0.3442,-0.3702,-0.3852,-0.3913,-0.3925,-0.3931,-0.3947,-0.3924,-0.3901,-0.3901,-0.3901,-0.4021,-0.4384,-0.4749,-0.5,-0.5508,-0.5756,-0.5888,-0.5914,-0.5916,-0.5906,-0.5882,-0.6034,-0.6175,-0.6427,-0.667,-0.6914,-0.7157,-0.7046,-0.7144,-0.7334,-0.7241,-0.7365,0.0,0.0,0.0,0.0,0.0,0.0,0.0,0.0,0.0,0.0,0.0,0.0,0.0,0.0,0.0,0.0,0.0,0.0,0.0,0.0,0.0,0.0,-0.451,-0.4732,-0.4833,-0.4985,-0.5007,-0.4715,-0.4899,-0.4883,-0.4459,-0.4567,-0.4661,-0.4734,-0.4688,-0.4452,-0.4125,-0.4065,-0.3794,-0.3412,-0.3436,-0.3339,-0.3232,-0.3179,-0.2984,-0.2763,-0.2569,-0.2357,-0.2357,-0.2244,-0.2139,-0.2266,-0.2266,-0.2287,-0.2206,-0.2206,-0.2336,-0.2234,0.0,0.0,0.0,0.0,-0.1844,-0.1862,-0.1879,-0.1886,-0.1886,-0.1886,-0.1886,-0.1886,-0.1886,-0.1886,-0.1886,-0.1886,-0.2004,-0.2122,-0.224,-0.2723,-0.3218,-0.3368,-0.3637,-0.3907,-0.3943,-0.3951,-0.3951,-0.3951,-0.3951,0.0,-0.3951,-0.4073,-0.4195,-0.4564,-0.4933,-0.5177,-0.5546,-0.5794,-0.5916,-0.5916,-0.6037,-0.616,-0.616,-0.6315,0.0,0.0,0.0,-0.6945,-0.716,-0.7152,0.0,0.0,0.0,-0.7817,-0.8225,-0.8347,0.0,0.0,-0.8602,-0.9013,0.0,0.0,0.0,0.0,0.0,0.0,0.0,0.0,0.0,0.0,0.0,0.0,0.0,0.0,0.0,0.0,-0.4828,-0.514,-0.5377,-0.5328,-0.5218,-0.5085,-0.5049,-0.4995,-0.4795,-0.4732,-0.4808,-0.4975,-0.4988,-0.4818,-0.4376,-0.4273,0.0,0.0,0.0,-0.3507,-0.3507,-0.3226,-0.3138,-0.3138,-0.2917,-0.2695,-0.2702,-0.2702,-0.2724,-0.2765,-0.2765,-0.2791,-0.295,-0.295,-0.2954,-0.284,-0.2241,-0.2003,-0.2004,-0.2008,-0.2009,-0.2009,-0.2013,0.0,0.0,-0.1896,-0.1896,-0.1896,-0.1896,-0.1896,-0.1896,-0.1896,-0.1896,-0.2014,-0.2252,-0.2514,-0.2901,-0.3264,-0.3544,-0.3828,-0.3828,-0.3828,-0.3951,-0.3951,-0.3951,-0.3951,-0.3951,-0.4195,-0.4562,-0.481,-0.5177,-0.5544,-0.5916,-0.5916,-0.5916,-0.5916,-0.616,0.0,-0.6403,-0.6689,-0.6993,-0.7215,-0.7018,-0.708,-0.7182,-0.7405,-0.7557,-0.7861,-0.8056,-0.8299,-0.8509,-0.8804,-0.9111,-0.9317,-0.9014,-0.93,0.0,0.0,0.0,0.0,0.0,0.0,0.0,0.0,0.0,0.0,0.0,0.0,0.0,0.0,0.0,-0.4871,-0.5129,-0.5385,-0.5629,-0.5722,-0.5703,-0.5501,-0.5482,-0.5356,-0.5101,-0.4979,-0.4965,-0.5073,-0.4869,-0.4693,-0.4669,-0.4241,-0.3941,-0.3886,-0.3675,-0.357,-0.357,-0.3582,-0.3475,-0.3475,-0.3138,0.0,-0.3088,-0.2859,-0.2769,-0.2929,-0.2929,-0.2838,-0.2879,-0.2879,-0.2901,-0.2928,-0.2735,-0.2708,-0.2712,-0.2748,-0.2761,-0.2645,-0.2435,-0.2324,-0.2324,-0.2081,-0.1959,-0.1959,-0.1959,-0.1959,0.0,-0.1959,-0.1959,-0.1959,-0.2081,-0.2329,-0.2579,-0.2702,-0.3078,-0.358,-0.358,-0.3703,-0.3951,-0.3951,-0.3951,-0.3951,-0.3951,-0.4195,-0.4562,-0.481,-0.5177,-0.5544,-0.5916,-0.5916,-0.5916,-0.5916,-0.616,-0.6403,-0.6403,-0.6999,-0.7314,-0.722,-0.7327,-0.7314,-0.7307,-0.7615,-0.778,-0.8008,-0.8202,-0.8347,-0.8665,-0.9075,-0.9223,-0.9324,-0.9709,-1.0259,0.0,0.0,0.0,0.0,0.0,0.0,0.0,0.0,0.0,0.0,0.0,-0.5116,-0.5039,0.0,-0.5214,-0.5165,-0.5396,-0.5616,-0.5793,-0.5972,-0.5992,-0.5803,-0.5617,-0.545,-0.53,-0.5152,-0.5028,-0.5165,-0.5068,-0.4889,-0.4863,-0.4536,-0.4332,-0.4258,-0.4145,-0.3923,-0.3813,-0.3813,-0.3701,-0.3589,-0.3504,-0.342,-0.3448,-0.3361,-0.3286,-0.3455,-0.3455,-0.3367,-0.3416,-0.3416,-0.3432,-0.3451,-0.3397,-0.3255,-0.2896,-0.2918,-0.2928,-0.2931,-0.283,-0.2714,-0.2715,-0.2592,-0.2346,-0.2222,-0.2222,-0.2099,-0.1977,-0.1977,-0.1977,-0.1977,-0.1977,-0.2222,-0.2467,-0.2467,-0.2838,-0.3332,-0.3455,-0.358,-0.3703,-0.3828,-0.3951,-0.3951,-0.3951,-0.4318,-0.4687,-0.4933,-0.53,-0.5669,-0.5916,-0.5916,-0.5916,-0.5916,-0.6407,-0.6653,-0.6653,-0.7263,-0.758,-0.7464,-0.7522,-0.7554,-0.7432,-0.7826,-0.7989,-0.8149,-0.8459,-0.8716,-0.8825,-0.9287,-0.9574,-0.9574,-1.0535,-1.0966,0.0,0.0,0.0,0.0,0.0,0.0,0.0,0.0,-0.5682,-0.5654,-0.5564,-0.5464,-0.5293,-0.5351,-0.5465,-0.5504,-0.5624,-0.5814,-0.5956,-0.6143,-0.6179,-0.5902,-0.5711,-0.5501,-0.55,-0.5207,-0.5075,-0.5257,-0.5271,-0.5192,-0.5039,-0.4931,-0.4817,-0.4592,-0.448,-0.437,-0.4148,-0.4162,-0.4055,-0.383,-0.3895,-0.3933,-0.383,-0.388,-0.3939,-0.3877,-0.3877,-0.3905,-0.3951,-0.3951,-0.3951,-0.3951,-0.3951,-0.358,-0.3208,-0.3208,-0.3208,-0.3208,-0.3085,-0.3085,-0.3085,-0.2961,-0.2714,-0.2467,-0.2467,-0.2222,-0.1977,-0.1983,-0.1984,-0.1984,-0.1984,-0.2231,-0.2352,-0.2346,-0.2715,-0.2961,-0.3209,-0.3455,-0.358,-0.3826,-0.3828,-0.3951,-0.3951,-0.4442,-0.481,-0.4935,-0.5425,-0.5916,-0.5916,-0.5916,-0.5916,-0.5916,-0.6407,-0.6898,-0.7023,-0.7508,-0.7831,-0.7739,-0.7733,-0.7682,-0.7559,-0.8037,-0.8301,-0.8253,-0.8706,-0.8967,-0.894,-0.9489,-0.9816,-0.9816,-1.1021,-1.1401,-0.6178,-0.6178,-0.6116,-0.5868,-0.5917,-0.6054,0.0,0.0,-0.5962,-0.6006,-0.5912,-0.5725,-0.5618,-0.5591,-0.5551,-0.5673,-0.5801,-0.5964,-0.6195,-0.6252,-0.6208,-0.6011,-0.572,-0.5703,-0.5812,-0.5409,-0.5169,-0.5353,-0.5365,-0.5371,-0.538,-0.5043,-0.4929,-0.4817,-0.4592,-0.4479,-0.448,-0.4547,-0.4467,-0.4468,-0.4659,-0.4493,-0.4194,-0.4202,-0.4122,-0.394,-0.394,-0.3944,-0.3951,-0.3951,-0.3951,-0.3951,-0.3951,-0.3828,-0.3826,-0.3826,-0.3826,-0.3703,-0.3579,-0.3455,-0.3455,-0.3085,-0.2714,-0.2467,-0.2467,-0.2222,-0.1981,-0.2007,-0.2014,-0.2014,-0.2014,-0.2014,-0.2007,-0.2106,-0.2345,-0.259,-0.259,-0.3085,-0.3455,-0.3579,-0.3703,-0.3951,-0.3951,-0.4195,-0.4562,-0.481,-0.5425,-0.5916,-0.5916,-0.5916,-0.5916,-0.5916,-0.6283,-0.665,-0.7266,-0.7627,-0.7867,-0.7853,-0.7853,-0.7801,-0.7687,-0.8257,-0.8491,-0.8256,-0.8801,-0.9066,-0.894,-0.9489,-0.9816,-0.9816,-1.1021,-1.1546,-0.6428,-0.6467,-0.6439,-0.626,-0.632,-0.6311,-0.6311,-0.6237,-0.6138,-0.6091,-0.5927,-0.5829,-0.5636,-0.5545,-0.5507,-0.5556,-0.5621,-0.5674,-0.5866,-0.5834,-0.5887,-0.5734,-0.5539,-0.5417,-0.562,-0.532,-0.5184,-0.5367,-0.5382,-0.5382,-0.5382,-0.5268,-0.5156,-0.5156,-0.5087,-0.5,-0.4889,-0.4969,-0.4893,-0.4661,-0.4737,-0.4671,-0.458,-0.4622,-0.4536,-0.4442,-0.4318,-0.4195,-0.4195,-0.395,-0.3951,-0.3951,-0.3951,-0.3951,-0.3951,-0.3951,-0.3951,-0.3828,-0.3826,-0.3703,-0.3703,-0.358,-0.3208,-0.2837,-0.2837,-0.2469,-0.1982,-0.201,-0.2018,-0.2022,-0.204,-0.2032,-0.2016,-0.2004,-0.2112,-0.2222,-0.2467,-0.2838,-0.3209,-0.3455,-0.3703,-0.3951,-0.3951,-0.4195,-0.4439,-0.4562,-0.5177,-0.5669,-0.5916,-0.5916,-0.5916,-0.616,-0.6283,-0.6648,-0.7385,-0.7508,-0.775,-0.7872,-0.7872,-0.7972,-0.8049,-0.8453,-0.8558,-0.8602,-0.8974,-0.9083,-0.894,-0.9489,-0.9816,-0.9816,-1.0798,-1.1459,-0.6704,-0.6781,-0.6695,-0.6667,-0.6619,-0.6648,-0.6559,-0.6433,-0.6357,-0.6054,-0.5964,-0.5857,-0.56,-0.5473,-0.5517,-0.5578,-0.5536,-0.5465,-0.5522,-0.5591,-0.5536,-0.5536,-0.5338,-0.5205,-0.5374,-0.5199,-0.5173,-0.5333,-0.5367,-0.5382,-0.5382,-0.5382,-0.5382,-0.5382,-0.5463,-0.5394,-0.5169,-0.5278,-0.5213,-0.5094,-0.5056,-0.5093,-0.4972,-0.4908,-0.4935,-0.4933,-0.4685,-0.4439,-0.4438,-0.4195,-0.395,-0.3951,-0.3951,-0.3951,-0.3951,-0.3951,-0.3951,-0.3951,-0.3951,-0.3951,-0.3951,-0.3951,-0.358,-0.3085,-0.3085,-0.2591,-0.2107,-0.202,-0.2031,-0.2038,-0.2068,-0.206,-0.2039,-0.2022,-0.2003,-0.211,-0.247,-0.2714,-0.3085,-0.3455,-0.3703,-0.3951,-0.3951,-0.4071,-0.4316,-0.4438,-0.4807,-0.5298,-0.5669,-0.5794,-0.6039,-0.6283,-0.6403,-0.6648,-0.7141,-0.7263,-0.7508,-0.775,-0.7872,-0.7994,-0.8244,-0.8515,-0.8744,-0.8803,-0.9043,-0.9123,-0.894,-0.9489,-0.9816,-0.9816,-1.0688,-1.1236,-0.6966,-0.7056,-0.7011,-0.6868,-0.6867,-0.6885,-0.6616,-0.6566,-0.6525,-0.6133,-0.6074,-0.5988,-0.5727,-0.5552,-0.545,-0.5672,-0.5521,-0.5403,-0.5603,-0.5632,-0.5536,-0.524,-0.524,-0.5179,-0.507,-0.5055,-0.5147,-0.5241,-0.5331,-0.5382,-0.5382,-0.5382,-0.5382,-0.5382,-0.5463,-0.5508,-0.5508,-0.5688,-0.5776,-0.5778,-0.587,-0.5665,-0.5418,-0.5054,-0.4935,-0.4935,-0.4935,-0.4687,-0.4438,-0.4438,-0.4195,-0.3951,-0.3951,-0.3951,-0.3951,-0.3951,-0.3951,-0.3951,-0.3951,-0.3951,-0.3951,-0.3951,-0.3703,-0.3455,-0.3085,-0.2714,-0.2483,-0.2173,-0.2063,-0.2069,-0.21,-0.2107,-0.2091,-0.2033,-0.2018,-0.2134,-0.2475,-0.2714,-0.3085,-0.3455,-0.3703,-0.3951,-0.3951,-0.3951,-0.4073,-0.4316,-0.4439,-0.4684,-0.5298,-0.5669,-0.5916,-0.5916,-0.616,-0.6403,-0.6403,-0.7018,-0.7385,-0.7385,-0.775,-0.7872,-0.7872,-0.8604,-0.872,-0.8445,-0.9026,-0.9232,-0.894,-0.9489,-0.9816,-0.9816,-1.0688,-1.1126,-0.7005,-0.7096,-0.7085,-0.7058,-0.7024,-0.6888,-0.6776,-0.663,-0.6377,-0.6163,-0.5997,-0.5819,-0.5733,-0.5615,-0.5509,-0.5586,-0.5341,-0.5165,-0.523,-0.5196,-0.5035,-0.4937,-0.4937,-0.4949,-0.4877,-0.5018,-0.5145,-0.5237,-0.5331,-0.5382,-0.5382,-0.5382,-0.5382,-0.5382,-0.5522,-0.5598,-0.5598,-0.578,-0.5872,-0.5872,-0.5902,-0.5794,-0.5669,-0.5671,-0.5548,-0.5548,-0.53,-0.5176,-0.5053,-0.4561,-0.4316,-0.4195,-0.395,-0.3951,-0.3951,-0.3951,-0.3951,-0.3951,-0.3951,-0.3951,-0.3951,-0.3951,-0.3703,-0.3455,-0.3332,-0.3085,-0.2732,-0.2559,-0.2451,-0.2335,-0.226,-0.2124,-0.2099,-0.2059,-0.216,-0.2388,-0.2475,-0.2961,-0.3332,-0.3455,-0.3703,-0.3951,-0.3951,-0.3951,-0.4073,-0.4316,-0.4562,-0.4933,-0.5298,-0.5544,-0.5669,-0.5916,-0.6039,-0.616,-0.6403,-0.6773,-0.7143,-0.7385,-0.775,-0.7994,-0.8244,-0.861,-0.8846,-0.8687,-0.9149,-0.9235,-0.894,-0.9379,-0.9596,-0.9816,-1.0363,-1.0802,-0.718,-0.7156,-0.71,-0.7197,-0.7049,-0.6944,-0.6861,-0.6612,-0.6343,-0.6171,-0.5908,-0.5733,-0.5733,-0.5615,-0.5494,-0.5535,-0.5284,-0.5108,-0.5083,-0.4948,-0.4899,-0.483,-0.4834,-0.4834,-0.4834,-0.5,-0.5132,-0.5192,-0.5279,-0.5347,-0.538,-0.5382,-0.5382,-0.5382,-0.5553,-0.5643,-0.5643,-0.5827,-0.5916,-0.5916,-0.5916,-0.5916,-0.5916,-0.5916,-0.5916,-0.5916,-0.5669,-0.5544,-0.5298,-0.4808,-0.4562,-0.4316,-0.4073,-0.3951,-0.3951,-0.3951,-0.3951,-0.3951,-0.3951,-0.3951,-0.3951,-0.3951,-0.3826,-0.358,-0.3579,-0.3332,-0.3105,-0.2815,-0.2838,-0.2728,-0.2539,-0.2541,-0.2511,-0.2463,-0.2562,-0.2783,-0.2851,-0.3208,-0.3579,-0.358,-0.3826,-0.3951,-0.3951,-0.3951,-0.395,-0.4195,-0.4442,-0.4687,-0.5177,-0.5298,-0.5421,-0.5669,-0.5794,-0.6039,-0.616,-0.6528,-0.6773,-0.7018,-0.7505,-0.7875,-0.8002,-0.8488,-0.8726,-0.8687,-0.9033,-0.9121,-0.894,-0.9268,-0.9489,-0.9706,-1.0147,-1.0472,-0.7281,-0.716,-0.7065,-0.7147,-0.7125,-0.7054,-0.6881,-0.6612,-0.6343,-0.6163,-0.5899,-0.5722,0.0,0.0,-0.5481,-0.5507,-0.525,-0.5139,-0.5149,-0.5085,-0.5029,-0.4818,-0.483,-0.4834,-0.4834,-0.4996,-0.5102,-0.5108,-0.5198,-0.529,-0.5377,-0.5382,-0.5382,-0.5382,-0.5436,-0.5528,-0.5528,-0.5825,-0.5916,-0.5916,-0.5916,-0.5916,-0.5916,-0.5916,-0.5916,-0.5916,-0.5916,-0.5669,-0.5421,-0.5056,-0.4687,-0.4439,-0.4073,-0.3951,-0.3951,-0.3951,-0.3951,-0.3951,-0.3951,-0.3951,-0.3951,-0.3951,-0.3951,-0.3828,-0.358,-0.3579,-0.3477,-0.3197,-0.3095,-0.3117,-0.3203,-0.3225,-0.3204,-0.3118,-0.3096,-0.3197,-0.3478,-0.3455,-0.358,-0.3828,-0.3951,-0.3951,-0.3951,-0.3951,-0.3951,-0.3951,-0.3951,-0.4198,-0.4812,-0.5177,-0.5421,-0.5421,-0.5669,-0.5916,-0.5916,-0.616,-0.6403,-0.6403,-0.7018,-0.7388,-0.7388,-0.8,-0.8365,-0.8332,-0.8681,-0.8892,-0.8826,-0.9158,-0.9379,-0.9379,-1.0036,-1.0257,-0.7013,-0.7076,-0.7007,-0.7104,-0.7112,-0.7054,-0.6881,-0.6704,-0.6584,-0.6222,-0.6118,-0.6002,-0.5902,-0.5718,-0.5672,-0.5793,-0.5447,-0.528,-0.542,-0.5195,0.0,-0.5029,0.0,-0.4834,-0.4834,-0.4939,-0.5035,-0.5102,-0.5257,-0.5244,-0.5043,-0.5043,-0.4931,-0.4706,-0.4857,-0.5059,-0.5295,-0.5706,-0.5916,-0.5916,-0.5916,-0.5916,-0.5916,-0.5916,-0.5916,-0.5916,-0.5916,-0.5794,-0.5671,-0.5179,-0.481,-0.4687,-0.4073,-0.3951,-0.3951,-0.3951,-0.3951,-0.3951,-0.3951,-0.3951,-0.3951,-0.3951,-0.3951,-0.3828,-0.3826,-0.3826,-0.3719,-0.341,-0.3453,-0.3366,-0.3166,-0.3181,-0.3167,-0.3111,-0.32,-0.341,-0.3471,-0.3703,-0.3826,-0.3828,-0.3951,-0.3951,-0.3951,-0.3951,-0.3951,-0.3951,-0.3951,-0.4073,-0.4439,-0.4562,-0.4807,-0.5298,-0.5421,-0.5669,-0.5916,-0.616,-0.6403,-0.6403,-0.6773,-0.7021,-0.7021,-0.763,-0.7881,-0.7755,-0.8212,-0.8539,-0.8598,-0.8709,-0.8933,-0.9379,-0.9599,-0.982,-0.7082,-0.7026,-0.6937,-0.7065,-0.7139,-0.7037,-0.689,-0.6789,-0.666,-0.6351,-0.615,-0.6126,-0.6047,-0.5871,-0.5895,0.0,0.0,0.0,-0.5543,-0.5432,-0.519,0.0,-0.5042,0.0,-0.483,-0.4953,-0.5053,-0.5104,-0.513,-0.5115,-0.4927,-0.4817,-0.4704,-0.448,-0.4627,-0.4857,-0.5047,-0.55,-0.5669,-0.5669,-0.5794,-0.5916,-0.5916,-0.5916,-0.5916,-0.5916,-0.5916,-0.5916,-0.5796,-0.5179,-0.4935,-0.4812,-0.4196,-0.3951,-0.3951,-0.3951,-0.3951,-0.3951,-0.3951,-0.3951,-0.3951,-0.3951,-0.3951,-0.3951,-0.3951,-0.3951,-0.384,-0.377,-0.3825,-0.3752,-0.3677,-0.356,-0.3547,-0.3495,-0.3571,-0.3771,-0.3715,-0.3826,-0.3951,-0.3951,-0.3951,-0.3951,-0.3951,-0.3951,-0.3951,-0.3951,-0.3951,-0.395,-0.4195,-0.4316,-0.4562,-0.493,-0.5053,-0.53,-0.5425,-0.5669,-0.5792,-0.5792,-0.6162,-0.6407,-0.6407,-0.7096,-0.7469,-0.7521,-0.7809,-0.8025,-0.8263,-0.8374,-0.8709,-0.904,-0.9265,-0.9599,-0.7167,-0.7001,-0.6736,-0.7014,-0.7082,-0.7051,-0.6926,-0.6724,-0.659,-0.6347,-0.6229,-0.6135,-0.6015,-0.6025,-0.6043,-0.6062,0.0,-0.5806,-0.5687,-0.5538,-0.5415,-0.5246,-0.5085,-0.5031,-0.4826,-0.499,-0.5096,-0.5106,-0.4866,-0.4841,-0.4814,-0.4592,-0.4374,-0.4382,-0.4518,-0.4656,-0.4795,-0.5172,-0.5298,-0.5298,-0.5669,-0.5794,-0.5794,-0.5794,-0.5916,-0.5916,-0.5794,-0.5794,-0.5794,-0.5056,-0.481,-0.4812,-0.4196,-0.3951,-0.3951,-0.3951,-0.3951,-0.3951,-0.3951,-0.3951,-0.3951,-0.3951,-0.3951,-0.3951,-0.3951,-0.3951,-0.3961,-0.401,-0.4067,-0.4125,-0.4048,-0.4063,-0.405,-0.3998,-0.394,-0.3885,-0.3837,-0.3826,-0.3826,-0.3826,-0.3826,-0.3826,-0.3826,-0.3826,-0.3826,-0.3826,-0.3826,-0.3826,-0.3826,-0.4071,-0.4316,-0.4438,-0.4687,-0.481,-0.4935,-0.4935,-0.4935,-0.4935,-0.5427,-0.579,-0.5778,-0.6306,-0.6802,-0.7261,-0.7276,-0.7503,-0.7934,-0.8263,-0.8374,-0.8484,-0.9044,-0.9268,-0.6871,-0.6841,-0.6806,-0.6732,-0.6776,-0.677,-0.6746,-0.6819,0.0,0.0,-0.6567,-0.6567,-0.6296,-0.6132,-0.6033,-0.6155,-0.5817,-0.5658,-0.5806,-0.5593,-0.5393,0.0,-0.5335,-0.5132,-0.5131,-0.5037,-0.5026,-0.5102,-0.4866,-0.4731,-0.4587,-0.4258,-0.4061,-0.3889,-0.4194,-0.4392,-0.4354,-0.4779,-0.4933,-0.4933,-0.5056,-0.5177,-0.5544,-0.5544,-0.5669,-0.5916,-0.5546,-0.5544,-0.5421,-0.4807,-0.4439,-0.4439,-0.4073,-0.3951,-0.3951,-0.3951,-0.3951,-0.3951,-0.3951,-0.3951,-0.3951,-0.3951,-0.3951,-0.3951,-0.3951,-0.3951,-0.3952,-0.3962,-0.4007,-0.3927,-0.3686,-0.3562,-0.3559,-0.3296,-0.3255,-0.3218,-0.321,-0.3208,-0.3208,-0.3208,-0.3208,-0.3208,-0.3208,-0.3208,-0.3208,-0.3208,-0.3332,-0.358,-0.358,-0.3826,-0.4071,-0.4316,-0.4439,-0.4562,-0.4933,-0.4935,-0.4935,-0.4935,-0.5058,-0.5028,-0.4964,-0.567,-0.5939,-0.5879,-0.6548,-0.7053,-0.7376,-0.7604,-0.7826,-0.8045,-0.8484,-0.8816,-0.6947,-0.6972,-0.6998,-0.6994,-0.7033,-0.699,-0.683,0.0,0.0,0.0,-0.6466,-0.6493,-0.6331,-0.6154,0.0,-0.6263,-0.5951,-0.5716,-0.5829,-0.5686,-0.5609,-0.5514,-0.5308,-0.5153,-0.5154,-0.5095,-0.501,-0.51,-0.4866,-0.4731,-0.4475,-0.4035,-0.3729,-0.3676,-0.3969,-0.4033,-0.4098,-0.4406,-0.4685,-0.4685,-0.481,-0.4933,-0.5177,-0.5177,-0.5179,-0.5425,-0.5177,-0.5177,-0.5054,-0.4562,-0.4438,-0.4316,-0.4073,-0.3951,-0.3951,-0.3951,-0.3951,-0.3951,-0.3951,-0.3951,-0.3951,-0.3951,-0.3951,-0.3951,-0.3951,-0.3951,-0.3828,-0.3703,-0.3743,-0.3659,-0.3408,-0.3282,-0.3282,-0.3156,-0.2994,-0.2961,-0.2961,-0.2961,-0.2961,-0.2961,-0.2961,-0.2961,-0.2961,-0.2961,-0.2961,-0.2961,-0.3085,-0.3209,-0.3209,-0.3455,-0.3826,-0.4071,-0.4195,-0.4195,-0.4195,-0.4195,-0.4195,-0.4195,-0.4286,-0.4373,-0.458,-0.4981,-0.5249,-0.551,-0.5914,-0.6317,-0.6715,-0.7157,-0.749,-0.7598,-0.8042,-0.8374,-0.7028,-0.7115,-0.7111,-0.7129,-0.7101,-0.7049,-0.6762,-0.6695,0.0,-0.6384,-0.6321,-0.638,-0.6346,0.0,-0.6154,0.0,-0.6084,-0.5867,-0.5769,-0.5853,-0.5737,0.0,-0.5293,0.0,-0.5183,-0.505,-0.4979,-0.5073,-0.4857,-0.4731,-0.4365,-0.3923,-0.3722,-0.3657,-0.3718,-0.3779,-0.3839,-0.4141,-0.4303,-0.4316,-0.4564,-0.4687,-0.481,-0.481,-0.481,-0.4935,-0.481,-0.481,-0.481,-0.4441,-0.4316,-0.4316,-0.395,-0.3951,-0.3951,-0.3951,-0.3951,-0.3951,-0.3951,-0.3951,-0.3951,-0.3951,-0.3951,-0.3951,-0.3826,-0.3826,-0.3703,-0.3455,-0.3361,-0.3266,-0.3014,-0.3014,-0.3014,-0.289,-0.2863,-0.2838,-0.2838,-0.2838,-0.2838,-0.2838,-0.2838,-0.2838,-0.2838,-0.2838,-0.2838,-0.2838,-0.2838,-0.2838,-0.2838,-0.3208,-0.3455,-0.3703,-0.3826,-0.3703,-0.3455,-0.3332,-0.3328,-0.3316,-0.3522,-0.3726,-0.3937,-0.4307,-0.4586,-0.5138,-0.5296,-0.5596,-0.6161,-0.6712,-0.7046,-0.7154,-0.7598,-0.8026,-0.6993,-0.7062,-0.7088,-0.6499,-0.6508,-0.657,-0.639,0.0,-0.6591,-0.6402,-0.6567,-0.6583,-0.6427,-0.6395,-0.6299,0.0,0.0,-0.5878,-0.5637,-0.5644,-0.5732,-0.5706,0.0,0.0,-0.5479,-0.509,-0.4885,-0.4977,-0.4929,-0.4623,-0.4033,-0.4038,-0.3815,-0.3595,-0.3654,-0.3717,-0.3777,-0.3958,-0.3895,-0.395,-0.395,-0.4196,-0.4439,-0.4439,-0.4562,-0.4933,-0.4562,-0.4439,-0.4439,-0.4073,-0.395,-0.395,-0.3951,-0.3951,-0.3951,-0.3951,-0.3951,-0.3951,-0.3951,-0.3951,-0.3951,-0.3951,-0.3951,-0.3828,-0.358,-0.3579,-0.3455,-0.3085,-0.3088,-0.2967,-0.2596,-0.2596,-0.2472,-0.2228,-0.2102,-0.2099,-0.2099,-0.2099,-0.2099,-0.2099,-0.2099,-0.2099,-0.2099,-0.2099,-0.2099,-0.2099,-0.2345,-0.259,-0.259,-0.2837,-0.3085,-0.3085,-0.3332,-0.3455,-0.3085,-0.3085,-0.3066,-0.2902,-0.3015,-0.2975,-0.2889,-0.3453,-0.3767,-0.3821,-0.4817,-0.5371,-0.5483,-0.6047,-0.6495,-0.6712,-0.7154,-0.7318,-0.703,-0.7189,-0.7334,-0.7111,-0.7077,-0.7085,-0.6896,0.0,-0.6718,-0.6527,-0.6398,-0.6336,-0.6378,-0.625,-0.6106,0.0,0.0,0.0,-0.5572,-0.5737,-0.5826,-0.559,-0.5338,-0.5275,-0.5382,-0.4999,-0.4841,-0.5039,-0.5064,-0.4843,-0.459,-0.4148,-0.3924,-0.3587,-0.3647,-0.3707,-0.3768,-0.383,-0.3891,-0.3951,-0.3951,-0.395,-0.4071,-0.4071,-0.4196,-0.4319,-0.4196,-0.4071,-0.4071,-0.395,-0.3951,-0.3951,-0.3951,-0.3951,-0.3951,-0.3951,-0.3951,-0.3951,-0.3951,-0.3826,-0.3703,-0.3703,-0.3579,-0.3332,-0.3455,-0.3332,-0.3085,-0.2837,-0.2714,-0.259,-0.2346,-0.2222,-0.2223,-0.1976,-0.1977,-0.1977,-0.1977,-0.1977,-0.1977,-0.1977,-0.1977,-0.1977,-0.1977,-0.1977,-0.1977,-0.1977,-0.2099,-0.2222,-0.2222,-0.2468,-0.2591,-0.247,-0.2839,-0.3085,-0.2714,-0.2714,-0.2696,-0.2654,-0.251,-0.2589,-0.2759,-0.296,-0.3275,-0.3589,-0.4033,-0.4592,-0.515,-0.5599,-0.5933,-0.6156,-0.6712,-0.6984,-0.7085,-0.7277,-0.7391,-0.7333,-0.7296,-0.7214,0.0,0.0,-0.6672,-0.6532,-0.6271,-0.6159,-0.6294,-0.6116,-0.5913,0.0,0.0,-0.5919,-0.5433,-0.572,-0.5823,-0.5449,0.0,-0.5177,-0.5315,-0.4966,-0.4847,-0.509,-0.5167,-0.5146,-0.4923,-0.437,-0.4036,-0.3699,-0.3743,-0.3689,-0.3768,-0.3812,-0.3872,-0.3951,-0.3951,-0.3951,-0.3951,-0.3826,-0.3826,-0.3826,-0.3685,-0.3555,-0.3555,-0.3555,-0.3555,-0.3556,-0.3574,-0.358,-0.358,-0.358,-0.358,-0.358,-0.358,-0.3455,-0.3332,-0.3332,-0.3085,-0.2961,-0.3208,-0.3085,-0.2837,-0.2468,-0.2345,-0.2345,-0.2099,-0.1977,-0.1977,-0.1977,-0.1853,-0.1729,-0.1729,-0.1729,-0.1729,-0.1729,-0.1729,-0.1729,-0.1729,-0.1729,-0.1729,-0.1729,-0.1853,-0.1977,-0.1977,-0.2222,-0.2222,-0.1976,-0.247,-0.2591,-0.2345,-0.2335,-0.2313,-0.2277,-0.2243,-0.2206,-0.2511,-0.2483,-0.2805,-0.3139,-0.3475,-0.3923,-0.4482,-0.5039,-0.5373,-0.571,-0.6156,-0.6636,-0.7026,-0.713,-0.725,-0.6917,-0.6832,-0.6737,0.0,0.0,-0.6315,-0.631,-0.6186,-0.6117,-0.6121,-0.5968,-0.5836,-0.5642,-0.5855,0.0,-0.53,-0.5576,-0.5719,0.0,-0.5145,-0.5094,-0.5308,-0.5025,-0.491,-0.5094,-0.5108,-0.508,-0.4921,-0.4592,-0.4369,-0.4038,-0.3701,-0.3647,-0.3768,-0.377,-0.3831,-0.3951,-0.3951,-0.3951,-0.3951,-0.358,-0.3455,-0.3453,-0.3036,-0.2894,-0.2894,-0.2894,-0.2894,-0.2898,-0.2943,-0.2961,-0.2961,-0.2961,-0.2961,-0.2961,-0.2961,-0.2961,-0.2961,-0.2961,-0.2837,-0.2467,-0.259,-0.259,-0.2467,-0.2099,-0.1977,-0.1977,-0.1977,-0.1977,-0.1977,-0.1977,-0.1482,-0.0988,-0.0988,-0.0988,-0.0988,-0.0988,-0.0988,-0.0988,-0.0988,-0.0988,-0.0988,-0.0988,-0.1606,-0.1977,-0.1977,-0.1977,-0.1977,-0.1977,-0.1977,-0.1977,-0.1977,-0.1949,-0.1919,-0.1888,-0.1857,-0.1827,-0.1797,-0.202,-0.2244,-0.2244,-0.3139,-0.3587,-0.3587,-0.4482,-0.5039,-0.5371,-0.5708,-0.6155,-0.7144,-0.737,-0.7531,-0.7345,-0.726,-0.723,-0.7091,0.0,-0.6624,-0.6624,-0.623,-0.5954,-0.608,-0.5903,-0.5693,-0.5616,-0.578,0.0,0.0,0.0,0.0,-0.5438,-0.528,-0.5066,-0.4849,-0.4828,-0.491,-0.5094,-0.5108,-0.5188,-0.526,-0.4817,-0.4369,-0.4038,-0.3701,-0.3625,-0.3706,-0.3748,-0.3809,-0.389,-0.3931,-0.3826,-0.3579,-0.354,-0.3279,-0.3033,-0.2986,-0.2847,-0.2847,-0.2847,-0.2865,-0.2895,-0.2909,-0.2934,-0.2961,-0.2961,-0.2961,-0.2961,-0.2961,-0.2838,-0.2714,-0.2714,-0.2468,-0.2222,-0.2223,-0.2223,-0.2099,-0.1976,-0.1729,-0.1359,-0.1359,-0.1359,-0.1482,-0.1853,-0.1853,-0.1482,-0.0494,-0.037,-0.037,-0.037,-0.037,-0.037,-0.037,-0.037,-0.037,-0.037,-0.0864,-0.1482,-0.1977,-0.1958,-0.1945,-0.1945,-0.1927,-0.1923,-0.1944,-0.1937,-0.1909,-0.1858,-0.1846,-0.1827,-0.1796,-0.1907,-0.1908,-0.1908,-0.2243,-0.2803,-0.3587,-0.3923,-0.448,-0.5367,-0.5578,-0.5808,0.0,-0.7138,-0.7312,-0.7207,-0.7221,0.0,0.0,0.0,-0.6636,-0.658,-0.6151,-0.5775,-0.5776,-0.5655,-0.5491,-0.5344,-0.5542,-0.5516,0.0,0.0,0.0,-0.5165,-0.5187,-0.5043,-0.4666,-0.4732,-0.491,-0.5094,-0.5108,-0.5188,-0.5371,-0.4817,-0.4369,-0.4147,-0.3811,-0.3617,-0.3677,-0.3717,-0.3766,-0.3827,-0.3743,-0.3639,-0.3395,-0.3123,-0.2869,-0.2747,-0.2585,-0.2451,0.0,-0.2451,-0.2465,-0.249,-0.2521,-0.2548,-0.2572,-0.2587,-0.2592,-0.2592,-0.2592,-0.2469,-0.2345,-0.2098,-0.1975,-0.1853,-0.1359,-0.1482,-0.1729,-0.1977,-0.1729,-0.1235,-0.0741,-0.0617,-0.0741,-0.1112,-0.1235,-0.0988,-0.0123,-0.0,-0.0,-0.0,-0.0,-0.0,-0.0,-0.0,-0.0,-0.0,-0.0609,-0.1213,-0.1821,-0.1926,-0.1914,-0.1914,-0.1897,-0.1889,-0.2015,-0.1778,-0.1646,-0.1612,-0.1487,-0.1474,-0.1459,-0.1458,-0.1458,-0.1458,-0.1683,-0.2131,-0.2915,-0.3363,-0.4145,-0.5258,-0.5299,-0.5534,0.0,-0.6727,-0.675,-0.6707,0.0,0.0,0.0,0.0,0.0,-0.6228,-0.5959,-0.569,-0.5368,-0.5366,-0.5286,-0.4931,-0.5225,-0.5306,0.0,-0.5203,0.0,-0.4837,-0.486,-0.4851,-0.4666,-0.4732,-0.491,-0.5094,-0.5108,-0.5188,-0.5371,-0.4817,-0.448,-0.448,-0.3923,-0.3615,-0.3672,-0.3676,-0.3707,-0.3763,-0.3413,-0.3297,-0.3179,-0.2708,-0.2354,-0.2351,-0.1966,-0.1837,-0.1837,-0.1837,-0.1838,-0.1846,-0.1902,-0.1927,-0.1934,-0.1963,-0.1975,-0.1977,-0.1977,-0.1977,-0.1853,-0.1111,-0.1235,-0.1482,-0.0247,-0.037,-0.0988,-0.1606,-0.1729,-0.1482,-0.0247,-0.0,-0.0,-0.0,-0.0,-0.0,-0.0,-0.0,-0.0,-0.0,-0.0,-0.0,-0.0,-0.0,-0.0,-0.0,-0.0476,-0.106,-0.1768,-0.1884,-0.1883,-0.1883,-0.1881,-0.1868,-0.184,-0.1264,-0.0919,-0.0804,-0.0792,-0.0785,-0.0785,-0.0785,-0.0785,-0.0785,-0.1458,-0.1795,-0.1907,-0.3027,-0.4035,-0.4815,-0.4976,-0.5216,-0.6493,0.0,-0.7056,-0.6809,-0.6758,-0.675,0.0,0.0,0.0,0.0,0.0,0.0,-0.5527,-0.5262,-0.5016,-0.5064,-0.4944,-0.4795,-0.4654,-0.4807,0.0,-0.4586,-0.4769,-0.4851,-0.4666,-0.4732,-0.491,-0.5094,-0.5108,-0.5188,-0.5371,-0.4817,-0.448,-0.448,-0.3923,-0.3594,-0.3608,-0.3655,-0.3569,-0.3351,-0.3278,-0.3063,-0.2591,-0.2444,-0.2198,-0.1965,-0.1819,-0.1806,-0.1806,-0.1806,-0.1819,-0.1842,-0.1856,-0.189,-0.1932,-0.1454,-0.1222,-0.1235,-0.1235,-0.1606,-0.1606,0.0617,0.1235,0.0988,0.0864,0.0988,0.1112,0.0494,0.0247,0.037,0.0741,0.037,-0.0,-0.0,-0.0,-0.0,-0.0,-0.0,-0.0,-0.0,-0.0,-0.0,-0.0,-0.0,-0.0,-0.0,-0.0118,-0.0589,-0.165,-0.1866,-0.1851,-0.1851,-0.183,-0.1473,-0.0564,-0.0342,0.0114,0.1129,0.0674,0.0449,0.0449,-0.0,-0.0224,-0.0224,-0.1234,-0.202,-0.2469,-0.3251,-0.3811,-0.4257,-0.4439,-0.4473,-0.6319,-0.6528,-0.6693,-0.6556,-0.6548,-0.6509,0.0,0.0,0.0,0.0,0.0,0.0,0.0,0.0,0.0,0.0,-0.466,-0.458,0.0,0.0,-0.4574,-0.463,-0.4732,-0.4776,-0.463,-0.4755,-0.491,-0.5094,-0.5108,-0.508,-0.5146,-0.4706,-0.448,-0.4258,-0.3811,-0.3587,-0.3587,-0.362,-0.3522,-0.3181,-0.3096,-0.2766,-0.2304,-0.217,-0.1933,-0.1819,-0.1802,-0.1795,-0.1795,-0.1795,-0.1805,-0.1821,-0.1605,-0.1628,-0.1893,-0.1561,-0.1092,-0.0489,-0.0493,-0.037,0.0123,0.1482,0.1977,0.1977,0.1606,0.1729,0.1977,0.1606,0.1482,0.1482,0.1482,0.1235,0.0864,0.0494,0.0494,0.0494,0.0494,0.0491,0.0366,-0.0,-0.0,-0.0,-0.0,-0.0,-0.0,-0.0,-0.0,-0.023,-0.0922,-0.1258,-0.1592,-0.1819,-0.1353,-0.0449,0.0673,0.0792,0.1019,0.1796,0.1458,0.1346,0.1346,0.1009,0.0561,-0.0,-0.1234,-0.1908,-0.2244,-0.2691,-0.3251,-0.381,-0.3929,-0.4097,-0.6136,-0.6136,-0.6105,-0.6145,-0.6162,-0.6154,0.0,0.0,0.0,0.0,0.0,0.0,0.0,0.0,0.0,0.0,0.0,-0.4407,-0.4481,-0.4379,-0.4425,-0.4693,-0.4624,-0.4624,-0.4702,-0.4785,-0.491,-0.5094,-0.5108,-0.497,-0.4921,-0.4592,-0.4258,-0.4038,-0.3701,-0.3587,-0.3587,-0.3587,-0.3363,-0.3026,-0.2805,-0.2469,-0.2132,-0.1907,-0.1795,-0.1795,-0.1795,-0.1795,-0.1795,-0.1795,-0.1795,-0.1797,-0.1253,-0.1262,-0.15,-0.1661,-0.0961,-0.0,0.0246,0.0988,0.1976,0.1971,0.1969,0.1969,0.1964,0.1962,0.1962,0.1962,0.1969,0.1977,0.1977,0.1977,0.1853,0.1235,0.1112,0.1111,0.1108,0.1096,0.0844,0.0361,0.0237,0.0117,-0.0,-0.0,-0.0,-0.0,-0.0,-0.0,-0.0,-0.0449,-0.0897,-0.1234,-0.0336,0.0673,0.1683,0.1907,0.1907,0.1907,0.1795,0.1795,0.1795,0.1795,0.1234,-0.0,-0.1009,-0.157,-0.1795,-0.202,-0.2579,-0.3474,-0.3415,-0.3608,-0.5922,-0.575,-0.5668,-0.5956,-0.5881,-0.5709,0.0,0.0,0.0,0.0,0.0,0.0,0.0,-0.4434,-0.4241,0.0,0.0,-0.3555,-0.3584,-0.3655,-0.378,-0.4147,-0.4296,-0.4397,-0.4708,-0.4785,-0.491,-0.5094,-0.4894,-0.4753,-0.4921,-0.4372,-0.4036,-0.4038,-0.3701,-0.3587,-0.3587,-0.3362,-0.3027,-0.2805,-0.2469,-0.2132,-0.1907,-0.1795,-0.1795,-0.1795,-0.1795,-0.1795,-0.1795,-0.1795,-0.1795,-0.1795,-0.1688,-0.1136,-0.023,-0.0347,-0.0118,0.0121,0.1351,0.1853,0.1973,0.1947,0.1938,0.1933,0.1907,0.19,0.19,0.19,0.1937,0.1977,0.1977,0.1977,0.1977,0.1853,0.1853,0.1846,0.1822,0.1813,0.1683,0.1541,0.1167,0.0577,0.0115,-0.0,-0.0,-0.0,-0.0,-0.0,-0.0,-0.0112,0.0224,0.1121,0.1458,0.157,0.1795,0.2132,0.2244,0.2132,0.1908,0.1795,0.1795,0.1795,0.1234,-0.0,-0.0224,-0.0785,-0.1795,-0.1795,-0.2244,-0.2805,-0.2757,-0.2734,-0.5761,-0.5541,-0.5369,-0.5585,-0.5496,-0.5383,0.0,0.0,0.0,0.0,0.0,0.0,0.0,0.0,-0.3916,-0.3618,-0.3448,-0.3378,-0.3491,-0.3553,-0.3675,-0.3939,-0.4048,-0.4134,-0.4278,-0.4314,-0.4402,-0.4672,-0.4578,-0.4432,-0.4364,-0.4148,-0.3924,-0.3813,-0.3475,-0.3362,-0.3362,-0.2803,-0.2692,-0.2693,-0.2356,-0.202,-0.1795,-0.1795,-0.1795,-0.1795,-0.1795,-0.1795,-0.1795,-0.1458,-0.1458,-0.1683,-0.1121,-0.0451,-0.0,-0.0,0.0467,0.1073,0.1682,0.1928,0.1925,0.1911,0.1907,0.1904,0.189,0.2004,0.2122,0.2122,0.2145,0.2168,0.1928,0.2048,0.2168,0.1928,0.1928,0.1924,0.1909,0.1894,0.1878,0.1864,0.1607,0.1248,0.1021,0.0451,-0.0,-0.0,-0.0,-0.0,-0.0,-0.0,0.0449,0.1683,0.1795,0.1795,0.1795,0.202,0.2132,0.2244,0.2132,0.1908,0.1795,0.1795,0.1346,0.0449,0.0112,-0.0224,-0.0785,-0.1458,-0.1908,-0.2244,-0.2226,-0.2329,-0.555,-0.5306,-0.5096,-0.5105,0.0,-0.5073,-0.4937,0.0,0.0,0.0,0.0,0.0,0.0,-0.343,0.0,-0.313,-0.3123,-0.3158,-0.3228,-0.3359,-0.3566,-0.3736,-0.3806,-0.3871,-0.4028,-0.4033,-0.4089,-0.4225,-0.4234,-0.4077,-0.3983,-0.388,-0.3664,-0.3456,-0.312,-0.3015,-0.3026,-0.2467,-0.2356,-0.2581,-0.2244,-0.202,-0.1795,-0.1795,-0.1795,-0.1795,-0.1795,-0.1795,-0.1795,-0.1121,-0.1121,-0.1234,-0.0336,-0.0,-0.0,-0.0,0.0811,0.1759,0.1766,0.1885,0.1885,0.1877,0.1875,0.1874,0.1866,0.2098,0.2331,0.2331,0.2331,0.2451,0.2234,0.224,0.224,0.2004,0.2004,0.1883,0.1877,0.1857,0.1838,0.1832,0.1811,0.1795,0.1795,0.1009,0.0336,0.0224,0.0224,0.0112,-0.0,0.0112,0.0561,0.1458,0.1683,0.1795,0.1907,0.1907,0.202,0.2132,0.2132,0.202,0.1795,0.1795,0.157,0.0897,0.0336,-0.0,-0.0,-0.0897,-0.1458,-0.157,-0.1683,-0.202,-0.5159,-0.4952,-0.4773,-0.4617,0.0,0.0,-0.4646,-0.4442,0.0,0.0,0.0,0.0,0.0,-0.2745,-0.2434,-0.234,-0.2274,-0.2271,-0.25,-0.269,-0.2968,-0.3419,-0.3586,-0.3729,-0.3932,-0.4033,-0.4067,-0.4148,-0.3946,-0.377,-0.3951,-0.3422,-0.3127,-0.3177,-0.285,-0.2651,-0.2692,-0.2356,-0.2244,-0.2244,-0.1908,-0.1795,-0.1795,-0.1795,-0.1795,-0.1795,-0.1795,-0.1795,-0.1795,-0.1121,-0.0561,-0.0112,-0.0,-0.0,-0.0,-0.0,0.0806,0.1848,0.1759,0.1885,0.1881,0.1853,0.1843,0.1838,0.181,0.2027,0.2253,0.2253,0.2588,0.2945,0.2803,0.2473,0.224,0.224,0.2122,0.1878,0.185,0.1842,0.1832,0.1804,0.1796,0.1795,0.1795,0.1683,0.1458,0.0897,0.0785,0.0673,0.0112,0.0449,0.0897,0.1009,0.1458,0.1907,0.2132,0.2132,0.2132,0.2244,0.202,0.1795,0.1795,0.1795,0.157,0.0897,0.0336,-0.0,-0.0,-0.0112,-0.0449,-0.1009,-0.157,-0.1795,-0.4937,-0.4763,-0.4532,-0.4302,0.0,0.0,0.0,0.0,0.0,0.0,-0.3107,0.0,0.0,0.0,-0.211,-0.2107,-0.2087,-0.2144,-0.2282,-0.2556,-0.282,-0.2941,-0.3194,-0.3432,-0.3531,-0.3531,-0.3456,-0.3418,-0.3319,-0.3136,-0.3086,-0.2877,-0.2779,-0.2798,-0.2476,-0.2388,-0.243,-0.2098,-0.1998,-0.1908,-0.1795,-0.1795,-0.1795,-0.1795,-0.1795,-0.1795,-0.1795,-0.1795,-0.1795,-0.157,-0.0897,-0.0,-0.0,-0.0,0.0112,0.0791,0.1132,0.1247,0.1711,0.1829,0.1827,0.1816,0.1812,0.181,0.1798,0.202,0.2244,0.2244,0.2468,0.2812,0.2734,0.2629,0.2516,0.2287,0.2058,0.1826,0.1814,0.1812,0.1808,0.1797,0.1795,0.1795,0.1795,0.1795,0.1683,0.1458,0.1458,0.1346,0.1121,0.1009,0.1009,0.1458,0.1683,0.1795,0.1908,0.1908,0.1908,0.1908,0.202,0.202,0.1795,0.1795,0.1683,0.1458,0.0449,-0.0,-0.0,-0.0,-0.0112,-0.0336,-0.0561,-0.0897,-0.4701,-0.4534,-0.4278,0.0,0.0,0.0,0.0,0.0,0.0,0.0,-0.2611,-0.2295,-0.1963,0.0,-0.1845,-0.1902,-0.1869,-0.1917,-0.205,-0.2307,-0.2557,-0.2571,-0.2803,-0.2927,-0.2927,-0.2927,-0.2841,-0.2775,-0.2777,-0.2688,-0.2513,-0.2411,-0.2417,-0.2429,-0.2219,-0.2025,-0.2061,-0.1845,-0.1747,-0.1767,-0.1767,-0.1777,-0.1795,-0.1795,-0.1795,-0.1795,-0.1795,-0.1795,-0.1795,-0.1795,-0.1121,-0.0,-0.0,-0.0,0.0112,0.1346,0.157,0.1234,0.1683,0.1795,0.1795,0.1795,0.1795,0.1795,0.1795,0.202,0.2244,0.2244,0.2469,0.2693,0.2693,0.2581,0.2469,0.2244,0.202,0.1795,0.1795,0.1795,0.1795,0.1795,0.1795,0.1795,0.1795,0.1795,0.1795,0.1795,0.1795,0.1795,0.1795,0.1458,0.1346,0.1795,0.1795,0.1795,0.1795,0.1795,0.1795,0.1795,0.202,0.202,0.1795,0.1795,0.1795,0.1795,0.0561,-0.0,-0.0,-0.0,-0.0,-0.0,-0.0,-0.0224,-0.4353,-0.4193,-0.4009,0.0,0.0,0.0,0.0,0.0,0.0,-0.2304,-0.2017,-0.1743,-0.1622,-0.1689,-0.1651,-0.1391,-0.1442,-0.1585,-0.1903,-0.1942,-0.2077,-0.2316,-0.2422,-0.2422,-0.2422,-0.2422,-0.2422,-0.2422,-0.2422,-0.2422,-0.2422,-0.2121,-0.2038,-0.2072,-0.1868,-0.1675,-0.1703,-0.1706,-0.1814,-0.1814,-0.1814,-0.1847,-0.1794,-0.1794,-0.1794,-0.1794,-0.1794,-0.1794,-0.1794,-0.1795,-0.1121,-0.0,-0.0,-0.0,0.0112,0.1346,0.1795,0.1795,0.1795,0.1795,0.1795,0.1795,0.1795,0.1795,0.1795,0.202,0.2244,0.2244,0.2469,0.2693,0.2693,0.2469,0.2244,0.2244,0.202,0.1795,0.1795,0.1795,0.1795,0.1795,0.1795,0.1795,0.1795,0.1795,0.1795,0.1795,0.1795,0.1795,0.1795,0.1795,0.1795,0.1795,0.1795,0.1795,0.1795,0.1795,0.1795,0.1795,0.1795,0.1795,0.1795,0.1795,0.1795,0.1795,0.0561,-0.0,-0.0,-0.0,-0.0,-0.0,-0.0,-0.0,-0.4075,-0.3859,0.0,0.0,0.0,0.0,0.0,0.0,0.0,0.0,-0.1727,-0.1713,-0.1527,-0.1467,-0.1406,-0.1447,-0.1487,-0.1523,-0.165,-0.1881,-0.2008,-0.212,-0.2322,-0.2422,-0.2422,-0.2522,-0.2523,-0.2324,-0.2324,-0.2223,-0.1818,-0.1718,-0.1722,-0.1731,-0.163,-0.1439,-0.1046,-0.1047,-0.1159,-0.1174,-0.1601,-0.1609,-0.1191,-0.1191,-0.1191,-0.1191,-0.1625,-0.1842,-0.1735,-0.0878,-0.0331,-0.0,-0.0,-0.0,0.0112,0.0897,0.1458,0.1795,0.1795,0.1795,0.1795,0.1795,0.1795,0.1795,0.1795,0.1907,0.1908,0.1908,0.202,0.202,0.202,0.202,0.202,0.2132,0.202,0.1795,0.1795,0.1795,0.1795,0.1795,0.1795,0.1795,0.1795,0.1795,0.1795,0.1795,0.1795,0.1795,0.1795,0.1795,0.1795,0.1795,0.1795,0.1795,0.1795,0.1795,0.157,0.1234,0.157,0.1795,0.1795,0.1795,0.1346,0.0561,0.0224,0.0449,0.1234,0.1234,0.1009,0.0673,0.0673,0.0449,-0.3778,0.0,0.0,0.0,0.0,0.0,0.0,0.0,0.0,0.0,-0.1543,-0.1419,-0.1124,-0.1052,-0.1069,-0.1104,-0.1129,-0.1248,-0.1567,-0.1698,-0.1819,-0.1819,-0.202,-0.212,-0.212,-0.2221,-0.2121,-0.1718,-0.1718,-0.1617,-0.1313,-0.1313,-0.1313,-0.1313,-0.1516,-0.1423,-0.113,-0.0719,-0.062,-0.094,-0.1463,-0.1567,-0.1254,-0.0742,-0.0533,-0.0533,-0.096,-0.1067,-0.1068,-0.0324,-0.0,-0.0,-0.0,-0.0,0.0112,0.0673,0.1234,0.1795,0.1795,0.1795,0.1795,0.1795,0.1795,0.1795,0.1795,0.1795,0.1795,0.1795,0.1795,0.1795,0.1795,0.1795,0.1795,0.202,0.1908,0.1792,0.178,0.1777,0.1774,0.1761,0.1759,0.1763,0.1775,0.1777,0.1781,0.1793,0.157,0.1458,0.1458,0.1458,0.1458,0.1458,0.1458,0.1458,0.1458,0.1683,0.1683,0.1234,0.157,0.1795,0.1795,0.1346,0.0785,-0.0,-0.0,0.0561,0.1795,0.1795,0.157,0.1234,0.1234,0.1009,0.0,0.0,0.0,0.0,0.0,0.0,0.0,-0.1419,-0.1546,-0.1619,0.0,-0.1188,-0.0782,-0.062,-0.0633,-0.0647,-0.0659,-0.0865,-0.1374,-0.1499,-0.1617,-0.1617,-0.1516,-0.1516,-0.1516,-0.1516,-0.1212,-0.0808,-0.0707,-0.0606,-0.0606,-0.0606,-0.0606,-0.0606,-0.1111,-0.1415,-0.1415,-0.0404,-0.0202,-0.0707,-0.1314,-0.1617,-0.1619,-0.0523,-0.0,-0.0,-0.0,-0.0,-0.0,-0.0,-0.0,-0.0,-0.0,-0.0,0.0112,0.0672,0.1234,0.1795,0.1795,0.1795,0.1795,0.1795,0.1795,0.1795,0.1795,0.1795,0.1795,0.1795,0.1795,0.1795,0.1795,0.1793,0.1791,0.1791,0.1791,0.1782,0.1752,0.1746,0.1737,0.171,0.1704,0.1713,0.1741,0.1637,0.1646,0.1787,0.1343,0.0896,0.0785,0.0785,0.0785,0.0785,0.0785,0.0785,0.0785,0.1346,0.1683,0.1683,0.1683,0.1683,0.1683,0.0561,-0.0,-0.0,0.0112,0.0673,0.1683,0.1795,0.1795,0.1795,0.1795,0.1795,0.0,0.0,0.0,0.0,0.0,0.0,-0.1523,-0.138,-0.1375,-0.1414,-0.1343,-0.1279,-0.1239,-0.0627,-0.0182,-0.0188,-0.019,-0.0193,-0.03,-0.1108,-0.1617,-0.1617,-0.1212,-0.101,-0.101,-0.0606,-0.0303,-0.0202,0.0202,0.0505,0.0505,0.0505,0.0505,0.0505,0.0303,0.0303,0.0303,0.0505,0.0606,0.0404,-0.0101,-0.0404,-0.0404,-0.0102,-0.0,-0.0,-0.0,-0.0,-0.0,-0.0,-0.0,-0.0,-0.0,-0.0,0.011,0.067,0.1234,0.1795,0.1795,0.1795,0.1795,0.1795,0.1795,0.1795,0.1795,0.1795,0.1795,0.1795,0.1795,0.1795,0.1795,0.1777,0.1759,0.1759,0.1759,0.1751,0.172,0.1714,0.1712,0.1705,0.1704,0.1707,0.1715,0.1395,0.1187,0.1757,0.1652,0.1217,0.0336,0.0224,0.0224,0.0224,0.0224,0.0224,0.0224,0.0336,0.0336,0.0336,0.0336,0.0336,0.0336,0.0112,-0.0,-0.0,0.0897,0.1346,0.1121,0.157,0.1795,0.1795,0.1795,0.1795,0.0,0.0,0.0,0.0,0.0,0.0,-0.1385,-0.1314,-0.1311,-0.1341,-0.1274,-0.121,-0.0803,-0.0359,-0.0,-0.0,-0.0,-0.0,-0.0,-0.0505,-0.101,-0.1516,-0.0909,-0.0202,0.0303,0.0404,0.0505,0.0707,0.101,0.1212,0.1212,0.1212,0.1212,0.1212,0.1212,0.1212,0.1212,0.1212,0.1212,0.1212,0.0909,0.0505,-0.0,-0.0,-0.0,-0.0,-0.0,-0.0,-0.0,-0.0,-0.0,-0.0,-0.0,-0.0,0.011,0.0669,0.1234,0.1795,0.1795,0.1795,0.1795,0.1795,0.1795,0.1795,0.1795,0.1795,0.1795,0.1795,0.1795,0.1795,0.1795,0.1772,0.1746,0.1733,0.1729,0.172,0.169,0.1684,0.168,0.1665,0.1454,0.1355,0.1578,0.0955,0.0535,0.0864,0.0974,0.0762,0.0111,-0.0,-0.0,-0.0,-0.0,-0.0,-0.0,-0.0,-0.0,-0.0,-0.0,-0.0,-0.0,0.0561,0.0897,0.0897,0.1458,0.1683,0.1346,0.1683,0.1795,0.1795,0.1795,0.1683,0.0,0.0,0.0,0.0,0.0,0.0,-0.1093,-0.1159,-0.123,-0.0922,-0.0857,-0.0613,0.0089,0.018,0.0091,0.0094,0.0095,0.0097,0.01,0.0101,-0.0202,-0.1111,-0.0404,0.0505,0.1516,0.1212,0.1111,0.1617,0.1617,0.1617,0.1617,0.1718,0.1718,0.1717,0.1718,0.1718,0.1718,0.1617,0.1617,0.1617,0.1516,0.0909,-0.0,-0.0,-0.0,-0.0,-0.0,-0.0,-0.0,-0.0,-0.0,-0.0,-0.0,0.0108,0.0329,0.0781,0.1234,0.1795,0.1795,0.1795,0.1795,0.1795,0.1795,0.1795,0.1683,0.1683,0.1683,0.1683,0.1683,0.1683,0.1683,0.1658,0.1628,0.1606,0.1592,0.1578,0.166,0.1654,0.1544,0.1622,0.1111,0.0711,0.1031,0.0314,-0.0212,-0.0106,-0.0106,-0.0107,-0.0,-0.0,-0.0,-0.0,-0.0,-0.0,-0.0,-0.0,-0.0,-0.0,-0.0,-0.0,-0.0,0.1121,0.1795,0.1795,0.1795,0.1795,0.1795,0.1795,0.1795,0.1795,0.1795,0.1456,0.0,0.0,0.0,0.0,0.0,0.0,0.0,0.0,-0.0819,0.0754,0.1029,0.1051,0.1162,0.0897,0.0633,0.0648,0.066,0.0673,0.0688,0.07,0.0606,0.0505,0.0606,0.0909,0.1516,0.1516,0.1516,0.1617,0.1617,0.1718,0.1921,0.1921,0.202,0.2321,0.202,0.1921,0.1921,0.1718,0.1617,0.1617,0.1111,0.0606,-0.0,-0.0,-0.0,-0.0,-0.0,-0.0,-0.0,-0.0,-0.0,-0.0,-0.0,0.0647,0.1537,0.1115,0.1234,0.1795,0.1795,0.1795,0.1795,0.1795,0.1795,0.1683,0.1234,0.1009,0.1009,0.1009,0.1009,0.1009,0.1009,0.0987,0.107,0.0961,0.0938,0.1017,0.1522,0.1217,0.1013,0.1516,0.0808,-0.0202,-0.1014,-0.1321,-0.1228,-0.0728,-0.073,-0.0525,-0.0107,-0.0,-0.0,-0.0,-0.0,-0.0,-0.0,-0.0,-0.0,-0.0,-0.0,-0.0,-0.0,0.1121,0.1795,0.1795,0.1795,0.1795,0.1795,0.1795,0.1795,0.1795,0.1795,0.1447,-0.2075,0.0,0.0,0.0,0.0,0.0,-0.0872,-0.0306,0.0403,0.1254,0.1372,0.1402,0.143,0.1256,0.1084,0.1106,0.1119,0.1133,0.1156,0.1168,0.1174,0.1174,0.1174,0.1272,0.1566,0.1566,0.1566,0.1566,0.1664,0.186,0.1958,0.2075,0.2185,0.2383,0.2309,0.2121,0.2022,0.1921,0.1718,0.1617,0.101,0.0505,-0.0,-0.0,-0.0,-0.0,-0.0,-0.0,-0.0,-0.0,-0.0,-0.0,-0.0,0.0755,0.1757,0.1449,0.157,0.1793,0.1776,0.177,0.177,0.177,0.177,0.1772,0.1454,0.0897,0.0449,0.0449,0.0449,0.0449,0.0449,0.0438,0.0533,0.0854,0.083,0.0909,0.1516,0.1415,0.1111,0.0808,-0.0202,-0.101,-0.1516,-0.1617,-0.152,-0.1328,-0.1228,-0.1133,-0.0944,-0.042,-0.0,-0.0,-0.0,-0.0,-0.0,-0.0,-0.0,-0.0,-0.0,0.0218,0.0873,0.1101,0.1437,0.177,0.1786,0.1795,0.1795,0.1795,0.1787,0.177,0.177,0.1425,0.0,0.0,0.0,0.0,0.0,0.0,0.0,0.0,0.1342,0.1324,0.1361,0.1391,0.1418,0.143,0.1442,0.1374,0.1384,0.1489,0.1511,0.1521,0.1526,0.1526,0.1526,0.1526,0.1526,0.1526,0.1526,0.1526,0.1717,0.1908,0.2004,0.2223,0.2438,0.2549,0.2486,0.241,0.2223,0.2021,0.1819,0.1617,0.1212,0.0606,-0.0,-0.0,-0.0,-0.0,-0.0,-0.0,-0.0,-0.0,-0.0,-0.0,0.0318,0.0863,0.1535,0.1776,0.1783,0.1779,0.1748,0.1738,0.1739,0.1739,0.1526,0.1316,0.1333,0.0671,-0.0,-0.0,-0.0,-0.0,-0.0,-0.0,0.0107,0.0533,0.0623,0.0707,0.1111,0.1212,0.0909,0.0202,-0.0909,-0.1617,-0.1617,-0.1617,-0.1617,-0.1617,-0.1617,-0.1625,-0.1648,-0.0825,-0.0104,-0.0,-0.0,-0.0,-0.0,-0.0,-0.0,-0.0,-0.0,0.0533,0.1601,0.1296,0.1304,0.1738,0.1761,0.1776,0.1783,0.1783,0.1767,0.1738,0.1739,0.1508,0.0,0.0,0.0,0.0,0.0,0.0,0.0,0.067,0.1309,0.1292,0.1329,0.1358,0.1387,0.1416,0.1436,0.1438,0.1462,0.1481,0.1483,0.1508,0.1526,0.1526,0.1526,0.1526,0.1526,0.1526,0.1526,0.1526,0.1717,0.2004,0.229,0.248,0.2695,0.304,0.2846,0.2676,0.2725,0.2223,0.1819,0.1617,0.1617,0.101,-0.0,-0.0,-0.0,-0.0,-0.0,-0.0,-0.0,-0.0,-0.0,0.0104,0.1272,0.1401,0.0984,0.1532,0.1752,0.1748,0.1717,0.1708,0.171,0.1816,0.0972,0.011,0.011,-0.0,-0.0,-0.0,-0.0,-0.0,-0.0,-0.0,-0.0,-0.0,-0.0,-0.0,0.0101,0.0101,0.0101,-0.0,-0.0909,-0.1617,-0.1617,-0.1617,-0.1617,-0.1617,-0.1617,-0.1618,-0.1619,-0.1113,-0.0611,-0.0104,-0.0,-0.0,-0.0,-0.0,-0.0,-0.0,-0.0,0.0533,0.1601,0.1602,0.1602,0.1707,0.1708,0.1723,0.1752,0.1752,0.1736,0.1707,0.1709,0.1376,0.0,0.0,0.0,0.0,-0.0701,-0.02,0.0562,0.1016,0.1275,0.1261,0.1298,0.1333,0.1381,0.1414,0.1436,0.1436,0.1444,0.1452,0.1452,0.1461,0.1468,0.1468,0.1468,0.1468,0.1468,0.1468,0.1468,0.1468,0.1652,0.1927,0.2203,0.2509,0.2738,0.3079,0.3021,0.2871,0.2522,0.2223,0.1819,0.1617,0.1617,0.1212,0.0505,0.0202,-0.0,-0.0,-0.0,-0.0,-0.0,-0.0,0.0409,0.1039,0.1465,0.1591,0.14,0.1615,0.1722,0.1716,0.1688,0.1468,0.1259,0.1573,0.0948,-0.0,-0.0,-0.0,-0.0,-0.0,-0.0561,-0.1121,-0.1121,-0.0876,-0.053,-0.0518,-0.051,-0.0505,-0.0505,-0.0808,-0.101,-0.101,-0.1314,-0.1617,-0.1617,-0.1617,-0.1617,-0.1617,-0.1617,-0.1617,-0.1617,-0.1415,-0.1013,-0.0102,-0.0,-0.0,-0.0,-0.0,-0.0,-0.0,-0.0,0.0206,0.0515,0.1251,0.1573,0.1677,0.1695,0.171,0.172,0.172,0.1705,0.1677,0.1678,0.1558,-0.1189,0.0,0.0,0.0,0.0,0.0517,0.0957,0.1129,0.1168,0.1229,0.1266,0.1302,0.1352,0.1385,0.1412,0.1432,0.1436,0.1436,0.1436,0.1436,0.1436,0.1436,0.1436,0.1436,0.1436,0.1436,0.1436,0.1436,0.1615,0.1885,0.2064,0.2365,0.2691,0.3046,0.3108,0.2871,0.2421,0.2221,0.192,0.1617,0.1617,0.1314,0.0808,0.0202,-0.0,-0.0,-0.0,-0.0,-0.0,-0.0,0.0611,0.1648,0.1555,0.1674,0.1692,0.1692,0.1692,0.1686,0.1657,0.1441,0.1132,0.1029,0.062,-0.0104,-0.043,-0.0654,-0.0549,-0.0335,-0.0897,-0.1568,-0.1671,-0.1411,-0.1049,-0.112,-0.1111,-0.1111,-0.1111,-0.1212,-0.1415,-0.1516,-0.1617,-0.1617,-0.1617,-0.1617,-0.1617,-0.1617,-0.1617,-0.1516,-0.1314,-0.1516,-0.1212,-0.0101,-0.0,-0.0,-0.0,-0.0,-0.0,-0.0,-0.0,-0.0,-0.0,0.0716,0.1235,0.1544,0.1665,0.1675,0.1675,0.1685,0.1675,0.1647,0.1441,0.1329,0.0,0.0,0.0,0.0,0.0,0.1066,0.113,0.1099,0.1137,0.1197,0.1234,0.1264,0.1296,0.1325,0.1279,0.1423,0.1433,0.1433,0.1433,0.1435,0.1436,0.1436,0.1436,0.1436,0.1436,0.1436,0.1436,0.1436,0.1615,0.1794,0.1794,0.2244,0.2654,0.3042,0.3106,0.287,0.242,0.2421,0.212,0.1617,0.1617,0.1314,0.0808,0.0202,-0.0,-0.0,-0.0,-0.0,-0.0,-0.0,0.0606,0.162,0.1546,0.1661,0.1661,0.1661,0.1661,0.1656,0.1627,0.1617,0.1415,0.0303,-0.0,-0.0312,-0.1485,-0.1836,-0.1647,-0.1116,-0.0897,-0.1005,-0.1536,-0.1599,-0.1551,-0.1624,-0.1617,-0.1617,-0.1617,-0.1212,-0.101,-0.1516,-0.1617,-0.1617,-0.1617,-0.1617,-0.1617,-0.1617,-0.1617,-0.1415,-0.0909,-0.1212,-0.1111,-0.0101,-0.0,-0.0,-0.0,-0.0,-0.0,-0.0,-0.0,-0.0,-0.0,-0.0,0.0505,0.1516,0.1617,0.1617,0.1617,0.1647,0.1646,0.1617,0.101,0.0505,-0.0727,0.0,0.0,0.0,0.0,0.0,0.1032,0.1068,0.1099,0.1138,0.117,0.1208,0.126,0.1277,0.1302,0.1362,0.1389,0.1402,0.1402,0.1421,0.1436,0.1436,0.1436,0.1436,0.1436,0.1436,0.1436,0.1436,0.1436,0.1615,0.1794,0.2094,0.2306,0.2426,0.2507,0.2458,0.2078,0.2107,0.192,0.1617,0.1617,0.1314,0.0808,0.0202,-0.0,-0.0,-0.0,-0.0,-0.0,-0.0,0.0404,0.1011,0.1423,0.1629,0.1629,0.1629,0.1629,0.1628,0.162,0.1617,0.1415,0.0303,-0.0507,-0.1226,-0.1562,-0.1696,-0.1726,-0.1644,-0.1556,-0.156,-0.1622,-0.169,-0.1654,-0.1624,-0.1617,-0.1617,-0.1617,-0.1516,-0.1415,-0.1617,-0.1617,-0.1617,-0.1617,-0.1617,-0.1617,-0.1617,-0.1617,-0.1415,-0.0909,-0.0606,-0.0303,-0.0,-0.0,-0.0,-0.0,-0.0,-0.0,-0.0,-0.0,-0.0,-0.0,-0.0,0.0101,0.0404,0.0808,0.101,0.101,0.1422,0.1625,0.1617,0.0606,0.0101,-0.0687,-0.0113,0.0451,0.0805,0.0,0.0,0.1003,0.1037,0.107,0.1112,0.1135,0.1162,0.1211,0.1296,0.1231,0.1266,0.1307,0.1343,0.1369,0.1388,0.1399,0.1399,0.1399,0.1399,0.1399,0.1399,0.1403,0.1415,0.1416,0.1511,0.1793,0.1906,0.211,0.2221,0.2272,0.2212,0.1941,0.1963,0.1777,0.1579,0.1592,0.1298,0.0799,0.0201,-0.0,-0.0,-0.0,-0.0,-0.0,-0.0,0.0202,0.0505,0.1313,0.1617,0.1617,0.1617,0.1617,0.1617,0.1617,0.1314,0.0707,-0.0303,-0.1111,-0.1622,-0.1653,-0.1675,-0.18,-0.1722,-0.1735,-0.1731,-0.1696,-0.1665,-0.1639,-0.1621,-0.1617,-0.1617,-0.1617,-0.1617,-0.1617,-0.1617,-0.1617,-0.1617,-0.1617,-0.1617,-0.1617,-0.1617,-0.1617,-0.1516,-0.1212,-0.0505,-0.0,-0.0,-0.0,-0.0,-0.0,-0.0,-0.0,-0.0,-0.0,-0.0,-0.0,-0.0,0.0101,0.0303,0.0606,0.0808,0.0808,0.1111,0.1415,0.1617,0.0707,0.0303,-0.0829,-0.0058,0.0794,0.0907,0.0926,0.0,0.0982,0.1006,0.104,0.1099,0.1111,0.1122,0.1155,0.1161,0.1163,0.1166,0.1212,0.1269,0.1329,0.126,0.1263,0.1263,0.1263,0.1263,0.1263,0.1263,0.1358,0.1383,0.1385,0.1485,0.1786,0.1788,0.1896,0.2121,0.2127,0.2054,0.1902,0.1811,0.1717,0.1526,0.1553,0.1273,0.0784,0.02,-0.0,-0.0,-0.0,-0.0,-0.0,-0.0,-0.0,0.0101,0.101,0.1415,0.1516,0.1617,0.1617,0.1617,0.1415,0.0707,-0.0303,-0.1313,-0.1617,-0.1622,-0.1649,-0.166,-0.1668,-0.1696,-0.1684,-0.1662,-0.1662,-0.1639,-0.1617,-0.1617,-0.1617,-0.1617,-0.1617,-0.1617,-0.1617,-0.1617,-0.1617,-0.1617,-0.1617,-0.1617,-0.1617,-0.1617,-0.1516,-0.1516,-0.1617,-0.0707,-0.0,-0.0,-0.0,-0.0,-0.0,-0.0,-0.0,-0.0,-0.0,-0.0,-0.0,-0.0,0.0202,0.0707,0.0707,0.0707,0.0707,0.0808,0.1111,0.1617,0.1111,0.0909,-0.0489,-0.0183,0.0303,0.0849,0.0956,0.0,0.0982,0.0974,0.0916,0.1038,0.105,0.1067,0.112,0.1129,0.1067,0.0726,0.0735,0.0904,0.1266,0.1317,0.1263,0.1263,0.1263,0.1263,0.1263,0.1263,0.1266,0.1356,0.1356,0.1369,0.1485,0.1486,0.1501,0.1534,0.1652,0.1577,0.1582,0.1608,0.1526,0.1526,0.1532,0.1247,0.0768,0.0196,-0.0,-0.0,-0.0,-0.0,-0.0,-0.0,-0.0,-0.0,0.0202,0.0606,0.101,0.1415,0.1617,0.1516,0.0606,-0.0404,-0.1314,-0.1516,-0.1617,-0.1618,-0.1624,-0.1643,-0.1668,-0.1696,-0.1684,-0.1662,-0.1662,-0.1639,-0.1617,-0.1617,-0.1617,-0.1617,-0.1617,-0.1617,-0.1617,-0.1617,-0.1617,-0.1617,-0.1617,-0.1617,-0.1617,-0.1617,-0.1212,-0.1111,-0.1516,-0.0707,-0.0,-0.0,-0.0,-0.0,-0.0,-0.0,-0.0,-0.0,-0.0,-0.0,-0.0,-0.0,-0.0,0.0202,0.0202,0.0202,0.0202,0.101,0.1516,0.1617,0.1516,0.1415,-0.0316,-0.0125,0.0062,0.0432,0.0733,0.0,0.0,0.0925,0.0978,0.1024,0.0893,0.0765,0.0787,0.0659,0.053,0.0403,0.0207,0.0142,0.0364,0.0686,0.0943,0.0943,0.0943,0.0943,0.1021,0.1179,0.127,0.1301,0.1331,0.1354,0.1368,0.1369,0.1382,0.1412,0.1427,0.1442,0.1458,0.1473,0.148,0.1481,0.1496,0.1221,0.0752,0.0192,-0.0,-0.0,-0.0,-0.0,-0.0,-0.0606,-0.0808,-0.0707,-0.0202,-0.0202,-0.0404,-0.0101,0.0202,0.0303,-0.0202,-0.0707,-0.1212,-0.1516,-0.1617,-0.1617,-0.1617,-0.1628,-0.1643,-0.1656,-0.165,-0.1639,-0.1639,-0.1628,-0.1617,-0.1617,-0.1617,-0.1617,-0.1617,-0.1617,-0.1617,-0.1617,-0.1617,-0.1617,-0.1617,-0.1617,-0.1617,-0.1617,-0.1111,-0.0808,-0.0808,-0.0303,-0.0,-0.0,-0.0,-0.0,-0.0,-0.0,-0.0,-0.0,-0.0,-0.0,-0.0,-0.0,-0.0,-0.0,-0.0,-0.0,-0.0,0.0808,0.1314,0.1617,0.1617,0.1617,-0.0394,-0.0129,-0.0063,-0.0,0.0438,0.0815,0.0,0.0,0.0,0.0956,0.0691,0.037,0.0247,0.0123,-0.0,-0.0062,-0.0386,-0.0597,-0.0597,-0.0069,0.0356,0.0436,0.051,0.0583,0.0802,0.1021,0.1187,0.1313,0.129,0.1324,0.133,0.1336,0.1352,0.1381,0.1387,0.1401,0.1426,0.1432,0.1436,0.1436,0.1369,0.1196,0.0644,0.0188,-0.0,-0.0,-0.0196,-0.0297,-0.0402,-0.111,-0.1516,-0.1516,-0.0505,-0.0707,-0.1415,-0.1516,-0.1314,-0.0909,-0.0909,-0.0909,-0.101,-0.1415,-0.1617,-0.1617,-0.1617,-0.1617,-0.1617,-0.1617,-0.1617,-0.1617,-0.1617,-0.1617,-0.1617,-0.1617,-0.1617,-0.1617,-0.1617,-0.1617,-0.1617,-0.1617,-0.1617,-0.1617,-0.1617,-0.1617,-0.1617,-0.1617,-0.1212,-0.0707,-0.0101,-0.0,-0.0,-0.0,-0.0,-0.0,-0.0,-0.0,-0.0,-0.0,-0.0,-0.0101,-0.0303,-0.0303,-0.0303,-0.0202,-0.0101,-0.0,-0.0,0.0505,0.1111,0.1617,0.1617,0.1617,-0.0972,-0.0477,-0.0,-0.0,0.0065,0.0257,0.0904,0.0,0.0556,0.0868,0.0,-0.0123,-0.0617,0.0,0.0,-0.0741,-0.0808,-0.0874,-0.0936,-0.0879,-0.0589,-0.0,0.0073,0.0364,0.1021,0.1093,0.1169,0.1176,0.1208,0.1239,0.1266,0.1293,0.1322,0.1352,0.1377,0.1392,0.1395,0.1422,0.1436,0.1436,0.1439,0.117,0.0721,0.0184,-0.0,-0.0093,-0.0967,-0.1377,-0.1381,-0.1003,-0.1212,-0.1516,-0.0909,-0.0808,-0.0909,-0.1415,-0.1516,-0.1516,-0.1516,-0.1516,-0.1516,-0.1617,-0.1617,-0.1617,-0.1617,-0.1617,-0.1617,-0.1617,-0.1617,-0.1617,-0.1617,-0.1617,-0.1617,-0.1617,-0.1617,-0.1617,-0.1617,-0.1617,-0.1617,-0.1617,-0.1617,-0.1617,-0.1617,-0.1617,-0.1617,-0.1617,-0.1516,-0.1111,-0.0101,-0.0,-0.0,-0.0,-0.0,-0.0,-0.0,-0.0,-0.0,-0.0,-0.0,-0.0404,-0.1415,-0.1415,-0.1212,-0.0707,-0.0202,-0.0,-0.0,0.0505,0.1111,0.1617,0.1617,0.1617,-0.1147,-0.0854,-0.0562,-0.0346,-0.0273,-0.0135,0.0133,0.0194,0.0127,0.0127,0.0,0.0,0.0,0.0,0.0,0.0,-0.0891,-0.0902,-0.0962,-0.0977,-0.0755,-0.0066,-0.0,0.0199,0.0664,0.0877,0.1096,0.1112,0.1142,0.1172,0.1202,0.1234,0.1264,0.1294,0.1324,0.1348,0.1365,0.1378,0.1393,0.1409,0.141,0.1153,0.0718,0.0181,-0.0,-0.0093,-0.1036,-0.1529,-0.1451,-0.1282,-0.1392,-0.1592,-0.1509,-0.1415,-0.1313,-0.1516,-0.1617,-0.1617,-0.1617,-0.1617,-0.1617,-0.1617,-0.1617,-0.1617,-0.1617,-0.1617,-0.1617,-0.1617,-0.1617,-0.1617,-0.1617,-0.1617,-0.1617,-0.1617,-0.1617,-0.1617,-0.1617,-0.1617,-0.1617,-0.1617,-0.1617,-0.1617,-0.1617,-0.1617,-0.1516,-0.1212,-0.1415,-0.1212,-0.0101,-0.0,-0.0,-0.0,-0.0,-0.0,-0.0,-0.0,-0.0303,-0.0909,-0.0909,-0.101,-0.1111,-0.1415,-0.1516,-0.1313,-0.101,-0.0606,-0.0,0.0202,0.0808,0.1617,0.1617,0.1617,-0.14,-0.1246,-0.1161,-0.0854,-0.0708,-0.0633,-0.0686,-0.0469,-0.0395,-0.0583,-0.0635,0.0,0.0,0.0,-0.1004,-0.0915,0.0,-0.0881,-0.0874,-0.095,-0.0788,-0.0308,-0.0123,0.0123,0.037,0.0756,0.103,0.105,0.1087,0.1119,0.1141,0.1179,0.1137,0.1089,0.1115,0.1142,0.1168,0.1343,0.1358,0.1378,0.1388,0.1229,0.089,0.0269,-0.0181,-0.0459,-0.0923,-0.1306,-0.1421,-0.1643,-0.1661,-0.1771,-0.1994,-0.2011,-0.1818,-0.1818,-0.1818,-0.1718,-0.1718,-0.1617,-0.1617,-0.1617,-0.1617,-0.1617,-0.1617,-0.1617,-0.1617,-0.1617,-0.1617,-0.1617,-0.1617,-0.1617,-0.1617,-0.1617,-0.1617,-0.1617,-0.1617,-0.1617,-0.1617,-0.1617,-0.1617,-0.1617,-0.1617,-0.1617,-0.1516,-0.1111,-0.1111,-0.0909,-0.0101,-0.0,-0.0,-0.0,-0.0,-0.0101,-0.0404,-0.0404,-0.0707,-0.1314,-0.1516,-0.1415,-0.101,-0.1415,-0.1617,-0.1617,-0.1617,-0.1212,-0.0404,-0.0101,0.0404,0.1212,0.1415,0.1617,-0.1816,-0.1709,-0.1603,-0.1602,-0.1383,-0.1157,-0.1127,-0.1049,-0.1102,-0.111,-0.1033,-0.0959,-0.0992,-0.0987,-0.0977,-0.0887,-0.0883,0.0,0.0,-0.09,-0.0922,-0.0982,-0.037,0.0123,0.037,0.068,0.0928,0.0991,0.1046,0.1081,0.1082,0.1137,0.1034,0.0606,0.0621,0.0636,0.0652,0.1083,0.1264,0.1265,0.138,0.1394,0.1309,0.0445,-0.0539,-0.1348,-0.0917,-0.1018,-0.1485,-0.1799,-0.1931,-0.1965,-0.2258,-0.2284,-0.2422,-0.2422,-0.2221,-0.2022,-0.2022,-0.1819,-0.1617,-0.1617,-0.1617,-0.1617,-0.1617,-0.1617,-0.1617,-0.1617,-0.1617,-0.1617,-0.1617,-0.1617,-0.1617,-0.1617,-0.1617,-0.1617,-0.1617,-0.1617,-0.1617,-0.1617,-0.1617,-0.1617,-0.1617,-0.1617,-0.1617,-0.1617,-0.0707,-0.0,-0.0,-0.0,-0.0,-0.0,-0.0,-0.0404,-0.1415,-0.1516,-0.1314,-0.0808,-0.1314,-0.1617,-0.1617,-0.1617,-0.1617,-0.1617,-0.1617,-0.1617,-0.1516,-0.0505,-0.0,0.0101,0.1111,0.1617,-0.2633,-0.2448,-0.2257,-0.2033,-0.1794,-0.156,-0.1593,-0.1583,-0.1568,-0.1512,-0.1501,-0.148,-0.141,-0.1397,-0.1376,-0.1249,-0.1179,-0.1107,0.0,-0.0935,-0.0821,-0.0616,-0.022,0.0055,0.0112,0.0617,0.0915,0.0955,0.0977,0.088,0.0719,0.0951,0.1051,0.0935,0.045,0.0231,0.0233,0.0398,0.0568,0.0824,0.118,0.1373,0.1307,-0.0178,-0.1077,-0.1346,-0.1265,-0.136,-0.1726,-0.1855,-0.1971,-0.2179,-0.2429,-0.256,-0.2579,-0.241,-0.2321,-0.2221,-0.2021,-0.1819,-0.1617,-0.1617,-0.1617,-0.1617,-0.1617,-0.1617,-0.1617,-0.1617,-0.1617,-0.1617,-0.1617,-0.1617,-0.1617,-0.1617,-0.1617,-0.1617,-0.1617,-0.1617,-0.1617,-0.1617,-0.1617,-0.1617,-0.1617,-0.1415,-0.1314,-0.1617,-0.0707,-0.0,-0.0,-0.0,-0.0303,-0.101,-0.101,-0.1212,-0.1617,-0.1617,-0.1516,-0.1314,-0.1516,-0.1617,-0.1617,-0.1617,-0.1617,-0.1617,-0.1617,-0.1617,-0.1617,-0.1212,-0.0909,-0.0505,-0.0202,0.0201,-0.3222,-0.3044,-0.2852,-0.2663,-0.2408,-0.2235,-0.216,-0.2069,-0.1908,-0.1859,-0.1778,-0.1684,-0.1676,-0.1661,-0.1631,-0.1476,-0.1388,-0.124,0.0,-0.098,-0.0795,-0.0471,-0.0153,-0.0,-0.0,0.037,0.0597,0.0737,0.0814,0.084,0.0625,0.0455,0.0336,0.0345,-0.0,-0.015,-0.0,-0.0,-0.0,-0.008,0.0247,0.0505,0.0603,-0.0616,-0.1247,-0.1436,-0.1525,-0.1705,-0.1887,-0.2003,-0.2207,-0.2415,-0.2685,-0.2828,-0.2851,-0.2706,-0.2522,-0.2321,-0.2122,-0.1819,-0.1617,-0.1617,-0.1617,-0.1617,-0.1617,-0.1617,-0.1617,-0.1617,-0.1617,-0.1617,-0.1617,-0.1617,-0.1617,-0.1617,-0.1617,-0.1617,-0.1617,-0.1617,-0.1617,-0.1617,-0.1617,-0.1617,-0.1617,-0.1415,-0.1313,-0.1314,-0.0707,-0.0303,-0.0303,-0.0303,-0.0505,-0.1212,-0.1314,-0.1415,-0.1617,-0.1617,-0.1617,-0.1617,-0.1718,-0.1718,-0.1718,-0.1818,-0.1818,-0.1718,-0.1718,-0.1718,-0.1617,-0.1617,-0.1415,-0.1111,-0.1212,-0.1096]},{"header":{"parameterUnit":"m.s-1","parameterCategory":1,"la1":30.6,"la2":29.2853,"lo1":-89.7004,"lo2":-87.6739,"dy":0.0162,"dx":0.0183,"nx":112,"ny":82,"refTime":"2023-07-14T12:00:00:Z","depth":0,"parameterNumber":3,"parameterNumberName":"V-component_of_WINDS"},"data":[0.0,0.0,0.0,0.0,0.0,0.0,0.0,0.0,0.0,0.0,0.0,0.0,0.0,0.0,0.0,0.0,0.0,0.0,0.0,0.0,0.0,0.0,0.0,0.0,0.0,0.0,0.0,0.0,0.0,0.0,0.0,0.0,0.0,0.0,0.0,0.0,0.0,0.0,0.0,0.0,0.0,0.0,0.0,0.0,0.0,0.0,0.0,0.0,0.0,0.0,0.0,0.0,0.0,0.0,0.0,0.0,0.0,0.0,0.0,0.0,0.0,0.0,0.0,0.0,0.0,0.0,0.0,0.0,0.0,0.0,0.0,0.0,0.0,0.0,0.0,0.0,0.0,0.0,0.0,0.0,0.0,0.0,0.0,0.0,0.0,0.0,0.0,0.0,0.0,0.0,-3.2397,-3.4198,-3.703,-3.8804,-3.8826,-3.8071,-3.6955,-3.5439,0.0,0.0,0.0,0.0,0.0,0.0,0.0,0.0,0.0,0.0,0.0,0.0,0.0,0.0,0.0,0.0,0.0,0.0,0.0,0.0,0.0,0.0,0.0,0.0,0.0,0.0,0.0,0.0,0.0,0.0,0.0,0.0,0.0,0.0,0.0,0.0,0.0,0.0,0.0,0.0,0.0,0.0,0.0,0.0,0.0,0.0,0.0,0.0,0.0,0.0,0.0,0.0,0.0,0.0,0.0,0.0,0.0,0.0,0.0,0.0,0.0,0.0,0.0,0.0,0.0,0.0,0.0,0.0,0.0,0.0,0.0,0.0,0.0,0.0,0.0,0.0,0.0,0.0,0.0,0.0,0.0,0.0,0.0,0.0,0.0,0.0,0.0,0.0,0.0,0.0,0.0,0.0,0.0,0.0,0.0,0.0,0.0,0.0,0.0,0.0,0.0,0.0,0.0,0.0,-3.3746,-3.6709,-3.8626,-3.9721,-3.9785,-3.9045,-3.8212,-3.7337,0.0,0.0,0.0,0.0,0.0,0.0,0.0,0.0,0.0,0.0,0.0,0.0,0.0,0.0,0.0,0.0,0.0,0.0,0.0,0.0,0.0,0.0,0.0,0.0,0.0,0.0,0.0,0.0,0.0,0.0,0.0,0.0,0.0,0.0,0.0,0.0,0.0,0.0,0.0,0.0,0.0,0.0,0.0,0.0,0.0,0.0,0.0,0.0,0.0,0.0,0.0,0.0,0.0,0.0,0.0,0.0,0.0,0.0,0.0,0.0,0.0,0.0,0.0,0.0,0.0,0.0,0.0,0.0,0.0,0.0,0.0,0.0,0.0,0.0,0.0,0.0,0.0,0.0,0.0,0.0,0.0,0.0,0.0,0.0,0.0,0.0,0.0,0.0,0.0,0.0,0.0,0.0,0.0,0.0,0.0,0.0,0.0,0.0,0.0,0.0,0.0,0.0,0.0,-3.3746,-3.5842,-3.8709,-4.0039,-4.072,-4.0741,-4.0022,-3.9033,-3.7773,-3.4636,0.0,0.0,0.0,0.0,0.0,0.0,0.0,0.0,0.0,0.0,0.0,0.0,0.0,0.0,0.0,0.0,0.0,0.0,0.0,0.0,0.0,0.0,0.0,0.0,0.0,0.0,0.0,0.0,0.0,0.0,0.0,0.0,0.0,0.0,0.0,0.0,0.0,0.0,0.0,0.0,0.0,0.0,0.0,0.0,0.0,0.0,0.0,0.0,0.0,0.0,0.0,0.0,0.0,0.0,0.0,0.0,0.0,0.0,0.0,0.0,0.0,0.0,0.0,0.0,0.0,0.0,0.0,0.0,0.0,0.0,0.0,0.0,0.0,0.0,0.0,0.0,0.0,0.0,0.0,0.0,0.0,0.0,0.0,0.0,0.0,0.0,0.0,0.0,0.0,0.0,0.0,0.0,0.0,0.0,0.0,0.0,0.0,0.0,0.0,0.0,0.0,0.0,-3.563,-3.7603,-3.9948,-4.0919,-4.1489,-4.17,-4.0959,-3.9814,-3.8132,-3.5745,0.0,0.0,0.0,0.0,0.0,0.0,0.0,0.0,0.0,0.0,0.0,0.0,0.0,0.0,0.0,0.0,0.0,0.0,0.0,0.0,0.0,0.0,0.0,0.0,0.0,0.0,0.0,0.0,0.0,0.0,0.0,0.0,0.0,0.0,0.0,0.0,0.0,0.0,0.0,0.0,0.0,0.0,0.0,0.0,0.0,0.0,0.0,0.0,0.0,0.0,0.0,0.0,0.0,0.0,0.0,0.0,0.0,0.0,0.0,0.0,0.0,0.0,0.0,0.0,0.0,0.0,0.0,0.0,0.0,0.0,0.0,0.0,0.0,0.0,0.0,0.0,0.0,0.0,0.0,0.0,0.0,0.0,0.0,0.0,0.0,0.0,0.0,0.0,0.0,0.0,0.0,0.0,0.0,0.0,0.0,0.0,0.0,0.0,0.0,0.0,0.0,0.0,-3.6146,-3.827,-4.0005,-4.0919,-4.1738,-4.2541,-4.1876,-4.0711,-3.9103,-3.6669,0.0,0.0,0.0,0.0,0.0,0.0,0.0,0.0,0.0,0.0,0.0,0.0,0.0,0.0,0.0,0.0,0.0,0.0,0.0,0.0,0.0,0.0,0.0,0.0,0.0,0.0,0.0,0.0,0.0,0.0,0.0,0.0,0.0,0.0,0.0,0.0,0.0,0.0,0.0,0.0,0.0,0.0,0.0,0.0,0.0,0.0,0.0,0.0,0.0,0.0,0.0,0.0,0.0,0.0,0.0,0.0,0.0,0.0,0.0,0.0,0.0,0.0,0.0,0.0,0.0,0.0,0.0,0.0,0.0,0.0,0.0,0.0,0.0,0.0,0.0,0.0,0.0,0.0,0.0,0.0,0.0,0.0,0.0,0.0,0.0,0.0,0.0,0.0,0.0,0.0,0.0,0.0,0.0,0.0,0.0,0.0,0.0,0.0,0.0,0.0,0.0,0.0,-3.7362,-3.9412,-4.159,-4.2544,-4.3174,-4.354,-4.2833,-4.1453,-3.9298,0.0,0.0,0.0,0.0,0.0,0.0,0.0,0.0,0.0,0.0,0.0,0.0,0.0,0.0,0.0,0.0,0.0,0.0,0.0,0.0,0.0,0.0,0.0,0.0,0.0,0.0,0.0,0.0,0.0,0.0,0.0,0.0,0.0,0.0,0.0,0.0,0.0,0.0,0.0,0.0,0.0,0.0,0.0,0.0,0.0,0.0,0.0,0.0,0.0,0.0,0.0,0.0,0.0,0.0,0.0,0.0,0.0,0.0,0.0,0.0,0.0,0.0,0.0,0.0,0.0,0.0,0.0,0.0,0.0,0.0,0.0,0.0,0.0,0.0,0.0,0.0,0.0,0.0,0.0,0.0,0.0,0.0,0.0,0.0,0.0,0.0,0.0,0.0,0.0,0.0,0.0,0.0,0.0,0.0,0.0,0.0,0.0,0.0,0.0,0.0,0.0,0.0,-3.6343,-3.8328,-4.0364,-4.2585,-4.356,-4.4192,-4.4499,-4.3541,-4.2117,-4.0146,0.0,0.0,0.0,0.0,0.0,0.0,0.0,0.0,0.0,0.0,0.0,0.0,0.0,0.0,0.0,0.0,0.0,0.0,0.0,0.0,0.0,0.0,0.0,0.0,0.0,0.0,0.0,0.0,0.0,0.0,0.0,0.0,0.0,0.0,0.0,0.0,0.0,0.0,0.0,0.0,0.0,0.0,0.0,0.0,0.0,0.0,0.0,0.0,0.0,0.0,0.0,0.0,0.0,0.0,0.0,0.0,0.0,0.0,0.0,0.0,0.0,0.0,0.0,0.0,0.0,0.0,0.0,0.0,0.0,0.0,0.0,0.0,0.0,0.0,0.0,0.0,0.0,0.0,0.0,0.0,0.0,0.0,0.0,0.0,0.0,0.0,0.0,0.0,0.0,0.0,0.0,0.0,0.0,0.0,0.0,0.0,0.0,0.0,0.0,0.0,0.0,0.0,-3.6507,-3.8873,-4.1065,-4.2716,-4.3694,-4.4537,-4.5323,-4.3922,-4.267,0.0,0.0,0.0,0.0,0.0,0.0,0.0,0.0,0.0,0.0,0.0,0.0,0.0,0.0,0.0,0.0,0.0,0.0,0.0,0.0,0.0,0.0,0.0,0.0,0.0,0.0,0.0,0.0,0.0,0.0,0.0,0.0,0.0,0.0,0.0,0.0,0.0,0.0,0.0,0.0,0.0,0.0,0.0,0.0,0.0,0.0,0.0,0.0,0.0,0.0,0.0,0.0,0.0,0.0,0.0,0.0,0.0,0.0,0.0,0.0,0.0,0.0,0.0,0.0,0.0,0.0,0.0,0.0,0.0,0.0,0.0,0.0,0.0,0.0,0.0,0.0,0.0,0.0,0.0,0.0,0.0,0.0,0.0,0.0,0.0,0.0,0.0,0.0,0.0,0.0,0.0,0.0,0.0,0.0,0.0,0.0,0.0,0.0,0.0,0.0,0.0,0.0,0.0,-3.7334,-3.9788,-4.1716,-4.2792,-4.4192,-4.517,-4.5457,-4.4534,-4.3321,-4.1971,0.0,0.0,0.0,0.0,0.0,0.0,0.0,0.0,0.0,0.0,0.0,0.0,0.0,0.0,0.0,0.0,0.0,0.0,0.0,0.0,0.0,0.0,0.0,0.0,0.0,0.0,0.0,0.0,0.0,0.0,0.0,0.0,0.0,0.0,0.0,0.0,0.0,0.0,0.0,0.0,0.0,0.0,0.0,0.0,0.0,0.0,0.0,0.0,0.0,0.0,0.0,0.0,0.0,0.0,0.0,0.0,0.0,0.0,0.0,0.0,0.0,0.0,0.0,0.0,0.0,0.0,0.0,0.0,0.0,0.0,0.0,0.0,0.0,0.0,0.0,0.0,0.0,0.0,0.0,0.0,0.0,0.0,0.0,0.0,0.0,0.0,0.0,0.0,0.0,0.0,0.0,0.0,0.0,0.0,0.0,0.0,0.0,0.0,0.0,0.0,0.0,0.0,-3.8271,-4.0716,-4.2706,-4.388,-4.5207,-4.6148,-4.6511,-4.551,-4.4446,-4.3485,0.0,0.0,0.0,0.0,0.0,0.0,0.0,0.0,0.0,0.0,0.0,0.0,0.0,0.0,0.0,0.0,0.0,0.0,0.0,0.0,0.0,0.0,0.0,0.0,0.0,0.0,0.0,0.0,0.0,0.0,0.0,0.0,0.0,0.0,0.0,0.0,0.0,0.0,0.0,0.0,0.0,0.0,0.0,0.0,0.0,0.0,0.0,0.0,0.0,0.0,0.0,0.0,0.0,0.0,0.0,0.0,0.0,0.0,0.0,0.0,0.0,0.0,0.0,0.0,0.0,0.0,0.0,0.0,0.0,0.0,0.0,0.0,0.0,0.0,0.0,0.0,0.0,0.0,0.0,0.0,0.0,0.0,0.0,0.0,0.0,0.0,0.0,0.0,0.0,0.0,0.0,0.0,0.0,0.0,0.0,0.0,0.0,0.0,0.0,0.0,0.0,0.0,-3.9303,-4.1629,-4.3782,-4.5517,-4.6429,-4.7239,-4.8066,-4.6773,-4.588,-4.5719,0.0,0.0,0.0,0.0,0.0,0.0,0.0,0.0,0.0,0.0,0.0,0.0,0.0,0.0,0.0,0.0,0.0,0.0,0.0,0.0,0.0,0.0,0.0,0.0,0.0,0.0,0.0,0.0,0.0,0.0,0.0,0.0,0.0,0.0,0.0,0.0,0.0,0.0,0.0,0.0,0.0,0.0,0.0,0.0,0.0,0.0,0.0,0.0,0.0,0.0,0.0,0.0,0.0,0.0,0.0,0.0,0.0,0.0,0.0,0.0,-2.631,-2.5141,0.0,0.0,0.0,0.0,0.0,0.0,0.0,0.0,0.0,0.0,0.0,0.0,0.0,0.0,0.0,0.0,0.0,0.0,0.0,0.0,0.0,0.0,0.0,0.0,0.0,0.0,0.0,0.0,0.0,0.0,0.0,0.0,0.0,0.0,0.0,0.0,0.0,0.0,0.0,0.0,-4.012,-4.2039,-4.3829,-4.5526,-4.6475,-4.7342,-4.8191,-4.794,-4.7182,-4.5862,-4.5104,0.0,0.0,0.0,0.0,0.0,0.0,0.0,0.0,0.0,0.0,0.0,0.0,0.0,0.0,0.0,0.0,0.0,0.0,0.0,0.0,0.0,0.0,0.0,0.0,0.0,0.0,0.0,0.0,0.0,0.0,0.0,0.0,0.0,0.0,0.0,0.0,0.0,0.0,0.0,0.0,0.0,0.0,0.0,0.0,0.0,0.0,0.0,0.0,0.0,0.0,0.0,0.0,0.0,0.0,0.0,0.0,0.0,0.0,0.0,-2.9642,-2.8142,0.0,0.0,0.0,0.0,0.0,0.0,0.0,0.0,0.0,0.0,0.0,0.0,0.0,0.0,0.0,0.0,0.0,0.0,0.0,0.0,0.0,0.0,0.0,0.0,0.0,0.0,0.0,0.0,0.0,0.0,0.0,0.0,0.0,0.0,0.0,0.0,0.0,0.0,0.0,0.0,-4.1144,-4.3175,-4.5085,-4.6773,-4.7703,-4.8536,-4.9423,-4.9167,-4.8546,-4.7674,-4.6486,0.0,0.0,0.0,0.0,0.0,0.0,0.0,0.0,0.0,0.0,0.0,0.0,0.0,0.0,0.0,0.0,0.0,0.0,0.0,0.0,0.0,0.0,0.0,0.0,0.0,0.0,0.0,0.0,0.0,0.0,0.0,0.0,0.0,0.0,0.0,0.0,0.0,0.0,0.0,0.0,0.0,0.0,0.0,0.0,0.0,0.0,0.0,0.0,0.0,0.0,0.0,0.0,0.0,-3.5899,-3.6738,-3.6894,-3.6891,-3.6895,-3.6723,-3.3851,-3.2257,-3.1719,-3.1719,0.0,0.0,0.0,0.0,0.0,0.0,0.0,0.0,0.0,0.0,0.0,0.0,0.0,0.0,0.0,0.0,0.0,0.0,0.0,0.0,0.0,0.0,-3.5922,-3.8481,-3.9206,-3.8945,-3.7642,0.0,0.0,0.0,0.0,0.0,0.0,0.0,0.0,0.0,0.0,0.0,-4.2644,-4.4563,-4.653,-4.8342,-4.9142,-4.9881,-5.075,-5.0223,-4.9776,-4.9641,-4.7642,-4.5974,0.0,0.0,0.0,0.0,0.0,0.0,0.0,0.0,0.0,0.0,0.0,0.0,0.0,0.0,0.0,0.0,0.0,0.0,0.0,0.0,0.0,0.0,0.0,0.0,0.0,0.0,0.0,0.0,0.0,0.0,0.0,0.0,-2.0578,-2.2449,0.0,0.0,0.0,0.0,0.0,0.0,0.0,0.0,0.0,0.0,0.0,0.0,0.0,-3.3526,-3.5212,-3.6206,-3.7083,-3.7843,-3.8828,-3.9697,-4.0437,-4.0433,-4.0422,-4.0391,-3.9942,0.0,-3.5308,-3.5308,0.0,0.0,0.0,0.0,0.0,0.0,0.0,0.0,0.0,0.0,0.0,0.0,0.0,0.0,0.0,0.0,0.0,0.0,0.0,0.0,0.0,0.0,-3.863,-4.1181,-4.2369,-4.3043,-4.3506,-4.1838,-4.0228,-4.0228,-4.0228,-4.0228,0.0,0.0,0.0,0.0,0.0,0.0,-4.5184,-4.5762,-4.6868,-4.9262,-4.9616,-5.0008,-5.0813,-5.0793,-5.0426,-4.973,-4.9378,-4.814,-4.5819,-4.4678,0.0,0.0,0.0,0.0,0.0,0.0,0.0,0.0,0.0,0.0,0.0,0.0,0.0,0.0,0.0,0.0,0.0,0.0,0.0,0.0,0.0,0.0,0.0,0.0,0.0,0.0,0.0,0.0,0.0,-2.132,-2.3553,-2.431,-2.5609,-2.6624,0.0,0.0,0.0,0.0,0.0,0.0,0.0,0.0,0.0,-3.5466,-3.6011,-3.6849,-3.8071,-3.9396,-4.0279,-4.0694,-4.1543,-4.2153,-4.2554,-4.2563,-4.2553,-4.2557,-4.2565,-4.1709,-4.0249,-3.9273,-3.8863,-3.8863,0.0,0.0,0.0,0.0,-3.6018,-3.5667,-3.6155,-3.6894,-3.7767,-3.8609,0.0,0.0,0.0,0.0,0.0,0.0,0.0,-3.909,-4.0312,-4.0994,-4.1883,-4.3992,-4.5134,-4.5971,-4.6803,-4.6084,-4.4996,-4.4005,-4.381,-4.3674,-4.3188,-4.3092,0.0,0.0,0.0,-4.4927,-4.6515,-4.7551,-4.8729,-5.0311,-5.0505,-5.0821,-5.162,-5.1242,-5.0801,-5.0453,-4.9973,-4.8972,-4.7366,-4.5993,-4.4496,0.0,0.0,0.0,0.0,0.0,0.0,0.0,0.0,0.0,0.0,0.0,0.0,0.0,0.0,0.0,0.0,0.0,0.0,0.0,0.0,0.0,0.0,0.0,0.0,0.0,0.0,0.0,0.0,-2.3753,-2.5749,-2.6423,-2.784,-2.9103,0.0,0.0,0.0,0.0,0.0,0.0,-3.4325,-3.5148,-3.6395,-3.8149,-3.9026,-3.9883,-4.076,-4.2013,-4.2877,-4.3376,-4.3992,-4.4548,-4.5007,-4.4996,-4.5,-4.5,-4.5008,-4.4992,-4.4836,-4.265,-4.1771,-4.1771,-4.1771,-4.0991,-3.9878,-3.9644,-3.9289,-3.8997,-3.9426,-4.0148,-4.0968,-4.1576,-4.1186,-4.0346,-3.9741,0.0,0.0,0.0,0.0,-4.2266,-4.3078,-4.3936,-4.4981,-4.6493,-4.7478,-4.8296,-4.9175,-4.9545,-4.9108,-4.7153,-4.6764,-4.6569,-4.5899,-4.5812,0.0,-4.5765,-4.627,-4.7065,-4.8157,-4.94,-5.0571,-5.1651,-5.1773,-5.1909,-5.2264,-5.1712,-5.1233,-5.1005,-5.0395,-4.9644,-4.8778,-4.727,-4.5945,-4.4862,0.0,0.0,0.0,0.0,0.0,0.0,0.0,0.0,0.0,0.0,0.0,0.0,0.0,0.0,0.0,0.0,0.0,0.0,0.0,0.0,0.0,0.0,0.0,0.0,0.0,0.0,0.0,0.0,0.0,-2.8904,-3.0005,0.0,0.0,0.0,0.0,-3.4413,-3.523,-3.6093,-3.695,-3.7825,-3.9104,-4.0857,-4.1695,-4.2533,-4.3403,-4.3487,-4.437,-4.6008,-4.6114,-4.7006,-4.8547,-4.8541,-4.8545,-4.8545,-4.8545,-4.8545,-4.8271,-4.4933,-4.3567,-4.3567,-4.3567,-4.3528,-4.3333,-4.2513,-4.2708,-4.3274,-4.2474,-4.2786,-4.3528,-4.3567,-4.2982,-4.2259,-4.222,-4.2213,0.0,0.0,-4.3407,-4.4916,-4.5774,-4.6644,-4.7521,-4.8456,-4.9274,-5.0112,-5.0989,-5.1826,-5.1635,-4.9069,-4.8574,-4.8554,-4.8515,0.0,-4.8477,-4.8409,-4.8448,-4.9079,-5.0794,-5.1086,-5.1773,-5.3385,-5.3579,-5.3216,-5.2361,-5.2264,-5.1881,-5.1044,-5.0966,-5.0545,-4.9668,-4.8759,-4.7468,-4.5761,-4.3974,0.0,0.0,0.0,0.0,0.0,0.0,0.0,0.0,0.0,0.0,0.0,0.0,0.0,0.0,0.0,0.0,0.0,0.0,0.0,0.0,0.0,0.0,0.0,0.0,0.0,0.0,0.0,0.0,-3.0067,-3.1934,0.0,-3.4369,-3.5504,-3.6433,-3.7004,-3.7856,-3.8734,-3.9604,-4.0461,-4.1487,-4.2663,-4.3526,-4.4118,-4.4423,-4.5559,-4.6429,-4.703,-4.7626,-4.822,-4.8794,-4.8798,-4.8798,-4.8798,-4.8798,-4.8798,-4.8701,-4.7471,-4.6983,-4.6983,-4.6983,-4.6671,-4.6163,-4.587,-4.5948,-4.6163,-4.5851,-4.63,-4.6983,-4.6983,-4.6417,-4.5753,-4.5753,-4.5726,-4.5679,-4.5675,-4.6513,-4.7489,-4.7795,-4.8483,-4.9333,-5.0209,-5.1067,-5.1904,-5.2781,-5.3229,-5.3163,-5.2239,-5.2055,-5.186,-5.1315,-5.1209,-5.12,-5.1191,-5.1132,-5.1539,-5.2733,-5.2846,-5.3261,-5.4414,-5.4026,-5.378,-5.4019,-5.3016,-5.22,-5.1862,-5.131,-5.0603,-4.9745,-4.8856,-4.7835,-4.665,-4.492,-4.3177,0.0,0.0,0.0,0.0,0.0,0.0,0.0,0.0,0.0,0.0,0.0,0.0,0.0,0.0,0.0,0.0,0.0,0.0,0.0,0.0,0.0,0.0,0.0,0.0,0.0,-2.8991,-3.1021,-3.218,-3.3846,-3.5493,-3.6975,-3.7886,-3.873,-3.9632,-4.0485,-4.1249,-4.1855,-4.2692,-4.3447,-4.4014,-4.5163,-4.5774,-4.5787,-4.7223,-4.8092,-4.8387,-4.8957,-4.9395,-4.9677,-4.9677,-4.9677,-4.9677,-4.9677,-4.9677,-4.9677,-4.9677,-4.9677,-4.9618,-4.9032,-4.8466,-4.7998,-4.7998,-4.7998,-4.7998,-4.7998,-4.8349,-4.8798,-4.8798,-4.8447,-4.7998,-4.7998,-4.7975,-4.7947,-4.7942,-4.8571,-4.9237,-4.9244,-5.0056,-5.1016,-5.1593,-5.2411,-5.3288,-5.4145,-5.434,-5.4437,-5.473,-5.4301,-5.3716,-5.3151,-5.3046,-5.3028,-5.301,-5.2962,-5.3241,-5.4094,-5.4167,-5.4465,-5.5359,-5.4912,-5.4679,-5.499,-5.3663,-5.2686,-5.2322,-5.1499,-5.0753,-5.0132,-4.9301,-4.8435,-4.7569,-4.5538,-4.3794,-4.2306,0.0,0.0,0.0,0.0,0.0,0.0,0.0,0.0,0.0,0.0,0.0,0.0,0.0,0.0,0.0,0.0,0.0,0.0,0.0,0.0,0.0,0.0,0.0,-2.9379,-3.0172,-3.2,-3.534,-3.5815,-3.6881,-3.948,-4.0499,-4.1335,-4.217,-4.3053,-4.3577,-4.3661,-4.4503,-4.4993,-4.5027,-4.6663,-4.754,-4.754,-4.8412,-4.9268,-5.0107,-5.0133,-5.0575,-5.1394,-5.1394,-5.1394,-5.1394,-5.1394,-5.1414,-5.1433,-5.1433,-5.1453,-5.1316,-4.956,-4.8876,-4.8876,-4.8876,-4.8896,-4.8935,-4.8954,-4.8954,-4.8954,-4.8954,-4.8954,-4.8954,-4.8954,-4.8954,-4.8954,-4.8962,-4.9562,-5.0221,-5.0225,-5.1427,-5.2648,-5.2672,-5.3327,-5.4184,-5.5061,-5.5236,-5.5489,-5.6347,-5.5139,-5.3989,-5.3989,-5.3989,-5.3953,-5.3886,-5.3876,0.0,-5.4944,-5.5048,-5.5359,-5.6214,-5.6291,-5.5961,-5.5106,-5.4232,-5.3333,-5.2413,-5.1585,-5.1058,-5.0906,-5.0132,-4.9301,-4.8411,-4.5862,-4.4087,-4.3181,0.0,0.0,0.0,0.0,0.0,0.0,0.0,0.0,0.0,0.0,0.0,0.0,0.0,0.0,0.0,0.0,0.0,0.0,0.0,0.0,0.0,-2.9863,-3.112,-3.112,-3.2957,-3.4874,-3.6464,-3.8267,-3.9703,-4.049,-4.1917,-4.2889,-4.3122,-4.3947,-4.4724,-4.5373,-4.6236,-4.7019,-4.7715,-4.8183,-4.8444,-4.8438,-4.9302,-4.9861,-5.0107,-5.0733,-5.1167,-5.1401,-5.139,-5.1394,-5.1394,-5.1394,-5.1765,-5.2331,-5.2331,-5.2702,-5.3112,-5.1375,-5.0692,-5.0692,-5.0692,-5.1082,-5.1726,-5.2351,-5.2565,-5.2565,-5.2565,-5.2565,-5.2565,-5.2565,-5.2565,-5.2565,-5.2561,-5.2733,-5.2938,-5.2933,-5.3221,-5.3708,-5.4325,-5.466,-5.508,-5.5957,-5.6132,-5.621,-5.6444,-5.6113,-5.5782,-5.5782,-5.5782,-5.5754,-5.5707,-5.5677,-5.5753,-5.5921,-5.5935,-5.6019,-5.6272,-5.6291,-5.6194,-5.5961,-5.51,-5.42,-5.3305,-5.2429,-5.1648,-5.0925,-5.0132,-4.927,-4.8353,-4.6372,-4.5224,0.0,0.0,0.0,0.0,0.0,0.0,0.0,0.0,0.0,0.0,0.0,0.0,0.0,0.0,0.0,0.0,0.0,0.0,0.0,0.0,0.0,0.0,-3.2087,-3.3673,-3.4389,-3.5472,-3.679,-3.8403,-3.9896,-4.1255,-4.2422,-4.3452,-4.4345,-4.5045,-4.556,-4.6231,-4.7144,-4.7659,-4.821,-4.8787,-4.9138,-4.9301,-4.9308,-5.0173,-5.0596,-5.0608,-5.1146,-5.1411,-5.1411,-5.1396,-5.1577,-5.1904,-5.1904,-5.2391,-5.3196,-5.3196,-5.3504,-5.386,0.0,0.0,0.0,0.0,-5.2819,-5.3327,-5.3815,-5.401,-5.401,-5.401,-5.401,-5.401,-5.401,-5.401,-5.401,-5.401,-5.4006,-5.4001,-5.3996,-5.4228,-5.4573,-5.5073,-5.5486,-5.5879,-5.6386,-5.6503,-5.6503,-5.6503,-5.6503,0.0,-5.6503,-5.6474,-5.6446,-5.6417,-5.6386,-5.6345,-5.6309,-5.6304,-5.6291,-5.6291,-5.6259,-5.6246,-5.6246,-5.5423,0.0,0.0,0.0,-5.1881,-5.0945,-5.0097,0.0,0.0,0.0,-4.6714,-4.6644,-4.559,0.0,0.0,-4.2278,-4.1513,0.0,0.0,0.0,0.0,0.0,0.0,0.0,0.0,0.0,0.0,0.0,0.0,0.0,0.0,0.0,0.0,-3.435,-3.6574,-3.8257,-3.7909,-3.8338,-4.0679,-4.1117,-4.2205,-4.4685,-4.5025,-4.5744,-4.7337,-4.7453,-4.7844,-4.8788,-4.8837,0.0,0.0,0.0,-5.0151,-5.0151,-5.0913,-5.131,-5.131,-5.1362,-5.1433,-5.155,-5.155,-5.1979,-5.276,-5.276,-5.3247,-5.404,-5.404,-5.4099,-5.4183,-5.4035,-5.3986,-5.4006,-5.4103,-5.4142,-5.4142,-5.424,0.0,0.0,-5.4283,-5.4283,-5.4283,-5.4283,-5.4283,-5.4283,-5.4283,-5.4283,-5.4279,-5.4289,-5.4825,-5.5354,-5.5353,-5.5942,-5.6511,-5.6511,-5.6511,-5.6503,-5.6503,-5.6503,-5.6503,-5.6503,-5.6446,-5.6398,-5.6397,-5.6345,-5.629,-5.6291,-5.6291,-5.6291,-5.6291,-5.6246,0.0,-5.6199,-5.5477,-5.4967,-5.48,-5.3309,-5.202,-5.1099,-5.0298,-4.9821,-4.9635,-4.8792,-4.8296,-4.8259,-4.8087,-4.799,-4.7931,-4.4805,-4.3289,0.0,0.0,0.0,0.0,0.0,0.0,0.0,0.0,0.0,0.0,0.0,0.0,0.0,0.0,0.0,-3.4659,-3.6497,-3.8315,-4.0055,-4.0713,-4.1228,-4.1788,-4.309,-4.4424,-4.5653,-4.6394,-4.724,-4.8269,-4.8349,-4.8739,-4.9624,-4.9722,-5.0079,-5.0789,-5.0961,-5.1047,-5.1047,-5.1222,-5.1308,-5.1308,-5.131,0.0,-5.237,-5.2363,-5.2838,-5.365,-5.365,-5.4144,-5.4944,-5.4944,-5.5354,-5.5861,-5.4462,-5.3916,-5.3994,-5.4716,-5.497,-5.5073,-5.5767,-5.6026,-5.6026,-5.6075,-5.6098,-5.6098,-5.6098,-5.6098,0.0,-5.6098,-5.6098,-5.6098,-5.6094,-5.6163,-5.6249,-5.6244,-5.6381,-5.6508,-5.6508,-5.65,-5.6503,-5.6503,-5.6503,-5.6503,-5.6503,-5.6446,-5.6398,-5.6397,-5.6345,-5.629,-5.6291,-5.6291,-5.6291,-5.6291,-5.6246,-5.6199,-5.6199,-5.599,-5.5556,-5.4839,-5.384,-5.2875,-5.1989,-5.1727,-5.1288,-5.0561,-4.9679,-4.9219,-4.9144,-4.8375,-4.8009,-4.7969,-4.7195,-4.6759,0.0,0.0,0.0,0.0,0.0,0.0,0.0,0.0,0.0,0.0,0.0,-3.0987,-3.2739,0.0,-3.5419,-3.6748,-3.8392,-3.9959,-4.1216,-4.2492,-4.3318,-4.3344,-4.4156,-4.52,-4.6515,-4.7043,-4.7842,-4.9143,-4.9252,-4.9642,-5.0508,-5.0578,-5.0792,-5.1249,-5.1239,-5.1276,-5.1304,-5.1304,-5.1312,-5.132,-5.1737,-5.2173,-5.2602,-5.3058,-5.3728,-5.4539,-5.4539,-5.5053,-5.5853,-5.5853,-5.6106,-5.6418,-5.5541,-5.5197,-5.5256,-5.5685,-5.5861,-5.5919,-5.6355,-5.6497,-5.6517,-5.6542,-5.6553,-5.6558,-5.6558,-5.6563,-5.6606,-5.6606,-5.6606,-5.6606,-5.6606,-5.6558,-5.6509,-5.6509,-5.6511,-5.6503,-5.6496,-5.6508,-5.65,-5.6511,-5.6503,-5.6503,-5.6503,-5.6437,-5.6407,-5.6386,-5.6333,-5.6297,-5.6291,-5.6291,-5.6291,-5.6291,-5.6238,-5.6209,-5.6209,-5.6114,-5.5697,-5.4846,-5.4384,-5.3749,-5.2879,-5.2367,-5.1908,-5.1448,-5.0547,-5.0067,-5.0048,-4.9507,-4.9254,-4.9254,-4.9037,-4.8462,0.0,0.0,0.0,0.0,0.0,0.0,0.0,0.0,-3.1424,-3.248,-3.3249,-3.4017,-3.4894,-3.6346,-3.7692,-3.8554,-4.0017,-4.1371,-4.2376,-4.3711,-4.4672,-4.4828,-4.4892,-4.5626,-4.7357,-4.7548,-4.8289,-5.0017,-5.0153,-5.0456,-5.1159,-5.1208,-5.12,-5.1201,-5.1211,-5.124,-5.1278,-5.1453,-5.152,-5.1537,-5.2414,-5.292,-5.3104,-5.3805,-5.4624,-5.545,-5.545,-5.584,-5.6503,-5.6503,-5.6503,-5.6503,-5.6503,-5.6508,-5.6491,-5.6491,-5.6491,-5.6491,-5.6498,-5.6498,-5.6498,-5.6504,-5.6497,-5.6509,-5.6509,-5.6558,-5.6626,-5.6782,-5.6821,-5.6821,-5.6821,-5.6792,-5.6709,-5.6553,-5.6517,-5.6504,-5.651,-5.6496,-5.6508,-5.6492,-5.6511,-5.6503,-5.6503,-5.6446,-5.6397,-5.6406,-5.6341,-5.6291,-5.6291,-5.6291,-5.6291,-5.6291,-5.6238,-5.618,-5.6184,-5.6082,-5.5722,-5.5064,-5.5026,-5.4658,-5.3788,-5.2988,-5.2413,-5.2104,-5.1337,-5.0856,-5.0702,-5.0582,-5.05,-5.05,-5.0231,-4.9384,-2.8758,-2.8758,-2.8771,-2.8843,-3.0088,-3.1513,0.0,0.0,-3.425,-3.5888,-3.6299,-3.6665,-3.759,-3.8562,-3.9495,-4.0365,-4.1274,-4.2434,-4.4078,-4.4485,-4.4885,-4.5661,-4.5757,-4.6448,-4.8205,-4.841,-4.9182,-5.093,-5.1047,-5.1105,-5.1183,-5.1197,-5.1189,-5.12,-5.1201,-5.1191,-5.1211,-5.1969,-5.2368,-5.2388,-5.3253,-5.4071,-5.482,-5.4918,-5.5472,-5.6347,-5.6347,-5.6405,-5.6503,-5.6503,-5.6503,-5.6503,-5.6503,-5.6511,-5.6492,-5.6492,-5.6492,-5.65,-5.6488,-5.6496,-5.6496,-5.6498,-5.6497,-5.6509,-5.6509,-5.6558,-5.6743,-5.7465,-5.766,-5.766,-5.766,-5.766,-5.7465,-5.6758,-5.6533,-5.6503,-5.6503,-5.6498,-5.6496,-5.6488,-5.65,-5.6503,-5.6503,-5.6446,-5.6398,-5.6397,-5.6341,-5.6291,-5.6291,-5.6291,-5.6291,-5.6291,-5.6232,-5.619,-5.6133,-5.6046,-5.5973,-5.5877,-5.5877,-5.5509,-5.4697,-5.4436,-5.3609,-5.2124,-5.1896,-5.1414,-5.0702,-5.0582,-5.05,-5.05,-5.0231,-5.0012,-3.0242,-3.0753,-3.1298,-3.1832,-3.2894,-3.4049,-3.4903,-3.5828,-3.6677,-3.7398,-3.7958,-3.8428,-3.8871,-4.0087,-4.1137,-4.1505,-4.2698,-4.3833,-4.4557,-4.5073,-4.548,-4.5873,-4.5937,-4.6639,-4.8386,-4.8577,-4.9318,-5.1066,-5.1202,-5.1202,-5.1202,-5.1194,-5.1206,-5.1206,-5.1645,-5.1928,-5.1958,-5.2813,-5.3252,-5.3273,-5.4149,-5.4762,-5.5122,-5.5628,-5.6067,-5.6446,-5.6437,-5.6446,-5.6446,-5.6483,-5.6503,-5.6503,-5.6503,-5.6503,-5.6503,-5.6503,-5.6503,-5.6511,-5.6492,-5.65,-5.65,-5.6508,-5.6491,-5.6491,-5.6491,-5.6548,-5.6762,-5.7562,-5.7797,-5.7914,-5.8421,-5.8187,-5.7719,-5.7387,-5.6914,-5.6558,-5.6509,-5.6511,-5.651,-5.6496,-5.65,-5.6503,-5.6503,-5.6446,-5.6407,-5.6398,-5.6345,-5.6297,-5.6291,-5.6291,-5.6291,-5.6246,-5.6232,-5.617,-5.6098,-5.6082,-5.6029,-5.6012,-5.6012,-5.584,-5.5513,-5.492,-5.4033,-5.282,-5.2223,-5.151,-5.0702,-5.0582,-5.05,-5.05,-5.0259,-5.0133,-3.1541,-3.2603,-3.3657,-3.4299,-3.5283,-3.631,-3.7199,-3.7935,-3.8502,-3.8768,-3.9316,-3.9786,-3.9843,-4.0885,-4.1904,-4.2369,-4.3516,-4.4509,-4.4975,-4.5537,-4.5917,-4.5917,-4.596,-4.6585,-4.8099,-4.8452,-4.9221,-5.0736,-5.1066,-5.1202,-5.1202,-5.1202,-5.1202,-5.1202,-5.1979,-5.2418,-5.248,-5.3588,-5.4144,-5.4136,-5.5022,-5.543,-5.5441,-5.6094,-5.6406,-5.6386,-5.6388,-5.6407,-5.6388,-5.6446,-5.6483,-5.6503,-5.6503,-5.6503,-5.6503,-5.6503,-5.6503,-5.6503,-5.6503,-5.6503,-5.6503,-5.6503,-5.6508,-5.6498,-5.6498,-5.6523,-5.6797,-5.7855,-5.8168,-5.8363,-5.9222,-5.8987,-5.8402,-5.7914,-5.7348,-5.6855,-5.6567,-5.6497,-5.6498,-5.6496,-5.65,-5.6503,-5.6503,-5.6455,-5.6417,-5.6388,-5.6358,-5.6314,-5.6297,-5.6304,-5.6278,-5.6232,-5.6199,-5.617,-5.613,-5.6114,-5.6082,-5.6029,-5.6012,-5.5995,-5.5998,-5.5325,-5.4439,-5.3321,-5.2627,-5.1741,-5.0702,-5.0582,-5.05,-5.05,-5.0283,-5.0163,-3.2424,-3.3922,-3.5247,-3.5335,-3.6607,-3.8074,-3.9013,-3.9239,-3.9523,-4.0436,-4.0642,-4.0675,-4.0752,-4.0796,-4.14,-4.3085,-4.34,-4.4005,-4.5634,-4.5866,-4.5917,-4.5991,-4.5991,-4.6352,-4.7248,-4.8094,-4.8968,-4.9862,-5.0717,-5.1202,-5.1202,-5.1202,-5.1202,-5.1202,-5.1979,-5.2407,-5.2407,-5.4116,-5.4951,-5.4971,-5.5845,-5.6258,-5.6263,-5.6356,-5.6406,-5.6406,-5.6406,-5.6407,-5.6388,-5.6388,-5.6446,-5.6503,-5.6503,-5.6503,-5.6503,-5.6503,-5.6503,-5.6503,-5.6503,-5.6503,-5.6503,-5.6503,-5.65,-5.6496,-5.6498,-5.6497,-5.686,-5.8573,-5.9065,-5.9261,-6.0139,-6.0334,-5.9885,-5.8207,-5.7777,-5.7519,-5.6684,-5.6497,-5.6498,-5.6496,-5.65,-5.6503,-5.6503,-5.6503,-5.6474,-5.6417,-5.6407,-5.6368,-5.6314,-5.6297,-5.6291,-5.6291,-5.6246,-5.6199,-5.6199,-5.6145,-5.6098,-5.6098,-5.6029,-5.6012,-5.6012,-5.5904,-5.5056,-5.332,-5.3224,-5.2356,-5.0702,-5.0582,-5.05,-5.05,-5.0283,-5.0188,-3.4052,-3.527,-3.6447,-3.7625,-3.8366,-3.9065,-3.9957,-4.0159,-4.026,-4.0629,-4.0733,-4.0759,-4.079,-4.126,-4.1846,-4.2427,-4.3501,-4.4467,-4.5029,-4.5603,-4.5975,-4.6005,-4.6005,-4.6122,-4.6404,-4.7745,-4.8949,-4.9823,-5.0717,-5.1202,-5.1202,-5.1202,-5.1202,-5.1202,-5.2542,-5.3261,-5.3261,-5.499,-5.5864,-5.5864,-5.6155,-5.6304,-5.6297,-5.6317,-5.6329,-5.6329,-5.6333,-5.6325,-5.6336,-5.6378,-5.6417,-5.6446,-5.6483,-5.6503,-5.6503,-5.6503,-5.6503,-5.6503,-5.6503,-5.6503,-5.6503,-5.6503,-5.65,-5.6496,-5.6503,-5.6498,-5.6868,-5.8616,-5.909,-5.9427,-6.0895,-6.0822,-6.01,-5.8948,-5.8222,-5.7568,-5.6684,-5.6504,-5.6503,-5.6496,-5.65,-5.6503,-5.6503,-5.6503,-5.6474,-5.6417,-5.6398,-5.6386,-5.6314,-5.629,-5.6297,-5.6291,-5.6278,-5.6246,-5.6199,-5.6175,-5.6149,-5.6098,-5.6029,-5.5995,-5.5998,-5.5943,-5.5075,-5.334,-5.3243,-5.2375,-5.0702,-5.0603,-5.0542,-5.05,-5.0371,-5.0278,-3.5293,-3.6393,-3.7398,-3.8831,-3.9473,-3.9888,-4.0457,-4.0598,-4.0621,-4.0687,-4.0746,-4.079,-4.079,-4.126,-4.173,-4.2039,-4.3036,-4.3982,-4.4614,-4.5179,-4.5656,-4.5958,-4.5997,-4.5997,-4.5997,-4.757,-4.8832,-4.9396,-5.0231,-5.0872,-5.1183,-5.1202,-5.1202,-5.1202,-5.2834,-5.3689,-5.3689,-5.5437,-5.6291,-5.6291,-5.6291,-5.6291,-5.6291,-5.6291,-5.6291,-5.6291,-5.6297,-5.629,-5.6314,-5.6377,-5.6398,-5.6417,-5.6474,-5.6503,-5.6503,-5.6503,-5.6503,-5.6503,-5.6503,-5.6503,-5.6503,-5.6503,-5.6492,-5.6508,-5.6488,-5.6503,-5.6868,-5.8604,-5.9092,-5.9508,-6.1217,-6.1256,-6.0534,-5.9382,-5.8674,-5.7941,-5.6764,-5.6491,-5.6488,-5.6508,-5.6492,-5.6503,-5.6503,-5.6503,-5.6483,-5.6446,-5.6446,-5.6407,-5.6345,-5.6314,-5.6302,-5.6297,-5.6304,-5.6278,-5.6246,-5.6204,-5.6175,-5.6145,-5.6062,-5.6031,-5.6053,-5.5961,-5.5094,-5.334,-5.3263,-5.2396,-5.0702,-5.0623,-5.0582,-5.0521,-5.0435,-5.0348,-3.6189,-3.7268,-3.812,-3.9039,-3.9896,-4.0523,-4.0573,-4.0598,-4.0621,-4.0629,-4.0688,-4.0713,0.0,0.0,-4.0943,-4.1826,-4.1997,-4.2621,-4.4331,-4.4633,-4.5013,-4.5841,-4.5958,-4.5997,-4.5997,-4.7531,-4.8541,-4.8599,-4.9454,-5.0328,-5.1163,-5.1202,-5.1202,-5.1202,-5.2826,-5.372,-5.372,-5.5417,-5.6291,-5.6291,-5.6291,-5.6291,-5.6291,-5.6291,-5.6291,-5.6291,-5.6291,-5.6297,-5.6302,-5.6375,-5.6407,-5.6407,-5.6474,-5.6503,-5.6503,-5.6503,-5.6503,-5.6503,-5.6503,-5.6503,-5.6503,-5.6503,-5.6503,-5.6511,-5.6508,-5.6488,-5.6847,-5.8565,-5.9059,-5.9469,-6.1107,-6.1537,-6.1127,-5.9489,-5.9079,-5.8565,-5.6866,-5.6496,-5.6508,-5.6511,-5.6503,-5.6503,-5.6503,-5.6503,-5.6503,-5.6503,-5.6503,-5.6485,-5.6416,-5.6345,-5.6302,-5.6302,-5.6297,-5.6291,-5.6291,-5.6246,-5.6199,-5.6199,-5.6145,-5.6117,-5.6117,-5.6033,-5.515,-5.3357,-5.3302,-5.2435,-5.0702,-5.0643,-5.0603,-5.0603,-5.0457,-5.0412,-3.6938,-3.7721,-3.827,-3.9781,-4.0335,-4.0523,-4.0573,-4.0603,-4.0424,-3.9849,-3.9747,-3.9567,-3.891,-3.8839,-3.9122,-3.9953,-4.0692,-4.1501,-4.2606,-4.3893,0.0,-4.5013,0.0,-4.5997,-4.5997,-4.6987,-4.79,-4.8541,-5.0017,-5.0961,-5.1197,-5.1197,-5.1208,-5.121,-5.2863,-5.3766,-5.3763,-5.5449,-5.6291,-5.6291,-5.6291,-5.6291,-5.6291,-5.6291,-5.6291,-5.6291,-5.6291,-5.6304,-5.6317,-5.6364,-5.6397,-5.6407,-5.6474,-5.6503,-5.6503,-5.6503,-5.6503,-5.6503,-5.6503,-5.6503,-5.6503,-5.6503,-5.6503,-5.6511,-5.6492,-5.6492,-5.6734,-5.7829,-5.855,-5.9279,-6.0405,-6.0698,-6.0425,-5.9352,-5.8604,-5.7829,-5.6749,-5.65,-5.6492,-5.6511,-5.6503,-5.6503,-5.6503,-5.6503,-5.6503,-5.6503,-5.6503,-5.6474,-5.6407,-5.6398,-5.6358,-5.6314,-5.6302,-5.6297,-5.6291,-5.6246,-5.6199,-5.6199,-5.6175,-5.6164,-5.6164,-5.6065,-5.5202,-5.3484,-5.3356,-5.2434,-5.0702,-5.0683,-5.0664,-5.0603,-5.0562,-5.0519,-3.7302,-3.7909,-3.8362,-4.0065,-4.0489,-4.0427,-4.0096,-4.0034,-3.9798,-3.8998,-3.8832,-3.8678,-3.8176,-3.8144,-3.8299,0.0,0.0,0.0,-4.1408,-4.2703,-4.3854,0.0,-4.5129,0.0,-4.5958,-4.7123,-4.8075,-4.8561,-4.9854,-5.0798,-5.1169,-5.12,-5.119,-5.1211,-5.2884,-5.4157,-5.4925,-5.5843,-5.6297,-5.6297,-5.6304,-5.6291,-5.6291,-5.6291,-5.6291,-5.6291,-5.6291,-5.6291,-5.6324,-5.6364,-5.6406,-5.6416,-5.6465,-5.6503,-5.6503,-5.6503,-5.6503,-5.6503,-5.6503,-5.6503,-5.6503,-5.6503,-5.6503,-5.6503,-5.6503,-5.6503,-5.6686,-5.7513,-5.8351,-5.9217,-6.0122,-6.0364,-6.0149,-5.9272,-5.8387,-5.7533,-5.6675,-5.6492,-5.6503,-5.6503,-5.6503,-5.6503,-5.6503,-5.6503,-5.6503,-5.6503,-5.6503,-5.6483,-5.6446,-5.6417,-5.6398,-5.6347,-5.6336,-5.6333,-5.6341,-5.6297,-5.6285,-5.6285,-5.6265,-5.6238,-5.6238,-5.5781,-5.4885,-5.3517,-5.3041,-5.214,-5.0738,-5.072,-5.0683,-5.0625,-5.0604,-5.0562,-3.7306,-3.7775,-3.82,-3.9777,-4.0162,-3.9988,-3.9277,-3.9133,-3.8859,-3.793,-3.7731,-3.7668,-3.745,-3.7507,-3.7623,-3.7739,0.0,-3.9438,-4.0462,-4.1369,-4.2567,-4.4319,-4.4633,-4.5032,-4.5919,-4.7473,-4.8483,-4.858,-4.9409,-5.0275,-5.1161,-5.1201,-5.1279,-5.1376,-5.2972,-5.4587,-5.6222,-5.6286,-5.6314,-5.6314,-5.6297,-5.6304,-5.6304,-5.6304,-5.6291,-5.6291,-5.6304,-5.6304,-5.6304,-5.6375,-5.6397,-5.6416,-5.6465,-5.6503,-5.6503,-5.6503,-5.6503,-5.6503,-5.6503,-5.6503,-5.6503,-5.6503,-5.6503,-5.6503,-5.6503,-5.6503,-5.6639,-5.734,-5.8159,-5.8996,-5.9765,-5.998,-5.9785,-5.9025,-5.8167,-5.7349,-5.6647,-5.6492,-5.6492,-5.6492,-5.6492,-5.6492,-5.6492,-5.6492,-5.6492,-5.6492,-5.6492,-5.6492,-5.6492,-5.6455,-5.6417,-5.6388,-5.6407,-5.6397,-5.6406,-5.6406,-5.6406,-5.6406,-5.636,-5.6265,-5.6149,-5.5345,-5.442,-5.3356,-5.2605,-5.1744,-5.081,-5.0738,-5.072,-5.0701,-5.0644,-5.0623,-3.6627,-3.691,-3.7175,-3.818,-3.843,-3.8392,-3.8257,-3.8185,0.0,0.0,-3.5869,-3.5432,-3.3972,-3.4339,-3.511,-3.5823,-3.673,-3.7861,-3.9438,-4.0435,-4.1664,0.0,-4.425,-4.5041,-4.5925,-4.6937,-4.7822,-4.8541,-4.9409,-5.0286,-5.1142,-5.1249,-5.1598,-5.2336,-5.3292,-5.4295,-5.5317,-5.6027,-5.6386,-5.6386,-5.6375,-5.6345,-5.629,-5.629,-5.6297,-5.6291,-5.6309,-5.629,-5.6302,-5.6358,-5.6407,-5.6407,-5.6474,-5.6503,-5.6503,-5.6503,-5.6503,-5.6503,-5.6503,-5.6503,-5.6503,-5.6503,-5.6503,-5.6503,-5.6503,-5.6503,-5.6522,-5.6658,-5.7301,-5.7972,-5.8184,-5.8231,-5.8192,-5.8051,-5.7329,-5.6666,-5.653,-5.6491,-5.6491,-5.6491,-5.6491,-5.6491,-5.6491,-5.6491,-5.6491,-5.6491,-5.6503,-5.6508,-5.6508,-5.6492,-5.6455,-5.6417,-5.6407,-5.6398,-5.6386,-5.6406,-5.6406,-5.6406,-5.6395,-5.6064,-5.5344,-5.51,-5.4226,-5.2622,-5.2385,-5.1827,-5.0874,-5.088,-5.0846,-5.0793,-5.0701,-5.0645,-3.5737,-3.6289,-3.6861,-3.7736,-3.7947,-3.7717,-3.6853,0.0,0.0,0.0,-3.4059,-3.3796,-3.2952,-3.3204,0.0,-3.4634,-3.556,-3.6607,-3.7874,-3.9219,-4.0551,-4.1885,-4.323,-4.437,-4.5235,-4.6519,-4.7667,-4.8522,-4.9409,-5.0286,-5.1152,-5.1267,-5.1702,-5.2567,-5.3407,-5.4264,-5.5141,-5.5979,-5.6388,-5.6388,-5.6397,-5.6386,-5.6345,-5.6345,-5.6364,-5.6341,-5.6345,-5.6345,-5.6356,-5.6398,-5.6388,-5.6417,-5.6474,-5.6503,-5.6503,-5.6503,-5.6503,-5.6503,-5.6503,-5.6503,-5.6503,-5.6503,-5.6503,-5.6503,-5.6503,-5.6503,-5.6511,-5.65,-5.7104,-5.7755,-5.779,-5.7797,-5.7797,-5.7804,-5.7128,-5.6504,-5.6504,-5.6504,-5.6504,-5.6504,-5.6504,-5.6504,-5.6504,-5.6504,-5.6504,-5.6504,-5.6498,-5.651,-5.651,-5.6496,-5.6492,-5.6455,-5.6446,-5.6446,-5.6446,-5.6446,-5.6446,-5.6446,-5.6028,-5.557,-5.5122,-5.4205,-5.3297,-5.2426,-5.191,-5.1449,-5.1005,-5.0925,-5.0877,-5.0841,-5.0773,-5.072,-3.4546,-3.5366,-3.6163,-3.6677,-3.6961,-3.6692,-3.5196,-3.4851,0.0,-3.2842,-3.2516,-3.2445,-3.2272,0.0,-3.2807,0.0,-3.4507,-3.5534,-3.6421,-3.8029,-3.9567,0.0,-4.2346,0.0,-4.4622,-4.6111,-4.7376,-4.8269,-4.9312,-5.0286,-5.1181,-5.1276,-5.1604,-5.2294,-5.3171,-5.4048,-5.4905,-5.5725,-5.6242,-5.6417,-5.6417,-5.6407,-5.6397,-5.6397,-5.6397,-5.6406,-5.6397,-5.6397,-5.6397,-5.6427,-5.6417,-5.6417,-5.6483,-5.6503,-5.6503,-5.6503,-5.6503,-5.6503,-5.6503,-5.6503,-5.6503,-5.6503,-5.6503,-5.6503,-5.6492,-5.6492,-5.65,-5.6496,-5.6991,-5.7524,-5.7519,-5.7519,-5.7519,-5.7545,-5.7018,-5.6511,-5.6511,-5.6511,-5.6511,-5.6511,-5.6511,-5.6511,-5.6511,-5.6511,-5.6511,-5.6511,-5.6511,-5.6511,-5.6511,-5.6491,-5.6496,-5.65,-5.6492,-5.65,-5.6496,-5.6503,-5.6425,-5.623,-5.5592,-5.5011,-5.4585,-5.3244,-5.2417,-5.2169,-5.1466,-5.1101,-5.1095,-5.0986,-5.0941,-5.0906,-5.0841,-5.0677,-3.2898,-3.3582,-3.4075,-3.3437,-3.3873,-3.4199,-3.3259,0.0,-3.2761,-3.1823,-3.157,-3.1307,-3.0562,-3.1087,-3.1665,0.0,0.0,-3.4661,-3.5591,-3.7211,-3.8936,-4.0597,0.0,0.0,-4.4626,-4.5556,-4.6482,-4.7356,-4.8952,-5.0315,-5.1248,-5.1306,-5.1343,-5.1417,-5.2255,-5.3151,-5.4009,-5.4877,-5.5704,-5.6483,-5.6483,-5.6465,-5.6407,-5.6407,-5.6398,-5.6386,-5.6398,-5.6407,-5.6407,-5.6474,-5.6483,-5.6483,-5.6503,-5.6503,-5.6503,-5.6503,-5.6503,-5.6503,-5.6503,-5.6503,-5.6503,-5.6503,-5.6503,-5.6511,-5.6508,-5.6488,-5.6496,-5.6498,-5.6556,-5.6621,-5.662,-5.662,-5.6626,-5.6694,-5.6641,-5.6582,-5.6582,-5.6582,-5.6582,-5.6582,-5.6582,-5.6582,-5.6582,-5.6582,-5.6582,-5.6582,-5.6533,-5.6503,-5.6503,-5.6491,-5.6498,-5.6498,-5.6503,-5.6496,-5.6498,-5.6498,-5.6166,-5.5373,-5.523,-5.4489,-5.2909,-5.268,-5.2228,-5.1421,-5.12,-5.1105,-5.1093,-5.1089,-5.1053,-5.0986,-5.0906,-5.0468,-3.107,-3.2095,-3.3083,-3.2752,-3.294,-3.2978,-3.21,0.0,-3.0939,-3.0061,-2.947,-2.9183,-2.9374,-2.9721,-3.0349,0.0,0.0,0.0,-3.4692,-3.6742,-3.8408,-3.9154,-4.1238,-4.2959,-4.3831,-4.4741,-4.6055,-4.7939,-4.9213,-5.0295,-5.1181,-5.1278,-5.1295,-5.13,-5.2158,-5.3015,-5.3892,-5.4768,-5.5645,-5.6503,-5.6503,-5.6483,-5.6455,-5.6455,-5.6465,-5.6456,-5.6465,-5.6455,-5.6455,-5.6483,-5.6503,-5.6503,-5.6503,-5.6503,-5.6503,-5.6503,-5.6503,-5.6503,-5.6503,-5.6492,-5.65,-5.65,-5.6488,-5.6503,-5.6496,-5.6503,-5.6498,-5.6491,-5.6497,-5.6503,-5.6553,-5.6558,-5.6577,-5.6586,-5.6606,-5.6606,-5.6606,-5.6606,-5.6606,-5.6606,-5.6606,-5.6606,-5.6606,-5.6606,-5.6606,-5.6606,-5.6582,-5.6558,-5.6558,-5.6528,-5.6523,-5.6567,-5.653,-5.6498,-5.6497,-5.6497,-5.6127,-5.5249,-5.4747,-5.3903,-5.2642,-5.2123,-5.1693,-5.132,-5.1248,-5.1201,-5.1147,-5.112,-5.1082,-5.1056,-5.0986,-5.0496,-2.9232,-3.0311,-3.1388,-3.114,-3.129,-3.1248,0.0,0.0,-2.9189,-2.8579,-2.7998,-2.7782,-2.8393,-2.8771,-2.9392,0.0,0.0,-3.3147,-3.3824,-3.6112,-3.7836,-3.8168,0.0,-4.2164,-4.3288,-4.445,-4.6113,-4.8425,-4.9163,-5.0009,-5.1131,-5.124,-5.1287,-5.1292,-5.1896,-5.2762,-5.3892,-5.4515,-5.5372,-5.6503,-5.6503,-5.6503,-5.6503,-5.6492,-5.6492,-5.6492,-5.6227,-5.6118,-5.6118,-5.6118,-5.6118,-5.6137,-5.641,-5.6508,-5.6508,-5.6508,-5.6508,-5.6508,-5.6508,-5.6496,-5.6503,-5.6503,-5.6498,-5.6504,-5.6491,-5.6498,-5.6491,-5.6528,-5.6533,-5.6533,-5.6582,-5.6606,-5.6606,-5.6606,-5.6591,-5.6595,-5.6595,-5.6595,-5.6595,-5.6595,-5.6595,-5.6595,-5.6595,-5.6595,-5.6595,-5.6595,-5.661,-5.6606,-5.6606,-5.6558,-5.6558,-5.6586,-5.6567,-5.6523,-5.6533,-5.6299,-5.5772,-5.4894,-5.4074,-5.3196,-5.2283,-5.1698,-5.1369,-5.133,-5.1308,-5.1276,-5.123,-5.1159,-5.1125,-5.1108,-5.1056,-5.0405,-2.7415,-2.8074,-2.8547,-2.7744,-2.8188,-2.8612,0.0,0.0,-2.7627,-2.7608,-2.7616,-2.7592,-2.7611,-2.8383,-2.9009,-2.9027,-3.1213,0.0,-3.2995,-3.5206,-3.716,0.0,-3.9746,-4.1485,-4.323,-4.4974,-4.6715,-4.8463,-4.8599,-4.9368,-5.1111,-5.1201,-5.122,-5.1306,-5.1312,-5.2158,-5.3892,-5.3911,-5.4788,-5.6503,-5.6503,-5.6503,-5.6503,-5.6508,-5.6496,-5.6457,-5.5601,-5.5217,-5.5217,-5.5217,-5.5217,-5.5295,-5.6153,-5.6504,-5.6504,-5.6504,-5.6504,-5.6504,-5.6504,-5.6504,-5.6504,-5.6504,-5.6491,-5.6509,-5.6503,-5.6503,-5.6509,-5.6582,-5.6606,-5.6606,-5.6606,-5.6606,-5.6606,-5.6606,-5.6602,-5.6593,-5.6593,-5.6593,-5.6593,-5.6593,-5.6593,-5.6593,-5.6593,-5.6593,-5.6593,-5.6593,-5.6598,-5.6606,-5.6606,-5.6606,-5.6606,-5.6606,-5.6606,-5.6606,-5.6606,-5.5806,-5.4947,-5.4068,-5.319,-5.2312,-5.1453,-5.1406,-5.1396,-5.1396,-5.133,-5.13,-5.13,-5.123,-5.1159,-5.1105,-5.1088,-5.0131,-2.5543,-2.6575,-2.7625,-2.7412,-2.7576,-2.7705,-2.7418,0.0,-2.6569,-2.6569,-2.6203,-2.6047,-2.6599,-2.7478,-2.83,-2.8893,-3.1188,0.0,0.0,0.0,0.0,-3.809,-4.0792,-4.2807,-4.3402,-4.4995,-4.6715,-4.8463,-4.8599,-4.9357,-5.1117,-5.12,-5.122,-5.1306,-5.1312,-5.1846,-5.2995,-5.3599,-5.4476,-5.5626,-5.621,-5.6492,-5.6488,-5.5884,-5.5606,-5.5562,-5.4684,-5.432,-5.432,-5.432,-5.4671,-5.5237,-5.551,-5.5978,-5.6504,-5.6504,-5.6504,-5.6504,-5.6504,-5.6511,-5.6497,-5.6497,-5.6528,-5.6558,-5.6577,-5.6577,-5.6563,-5.6586,-5.6595,-5.6605,-5.6605,-5.6605,-5.6602,-5.661,-5.6591,-5.6602,-5.6599,-5.66,-5.66,-5.66,-5.66,-5.66,-5.66,-5.66,-5.66,-5.66,-5.6595,-5.6602,-5.6606,-5.6079,-5.5708,-5.5708,-5.5181,-5.5064,-5.5669,-5.5454,-5.4674,-5.321,-5.2858,-5.2312,-5.1433,-5.139,-5.141,-5.141,-5.1377,-5.1349,-5.13,-5.1276,-5.1211,-5.1066,-4.9924,-4.9071,0.0,-2.4489,-2.5292,-2.5343,-2.5603,0.0,0.0,0.0,-2.566,-2.5674,-2.5378,-2.5266,-2.5787,-2.6892,-2.7922,-2.8487,-3.1032,-3.296,0.0,0.0,0.0,-3.8581,-4.1493,-4.3419,-4.3481,-4.5025,-4.6715,-4.8463,-4.8599,-4.9357,-5.1105,-5.12,-5.122,-5.1258,-5.1284,-5.1729,-5.2586,-5.3151,-5.3853,-5.473,-5.5264,-5.5525,-5.5502,-5.4989,-5.4749,-5.4697,-5.3825,-5.3459,0.0,-5.3459,-5.3772,-5.4318,-5.4981,-5.5567,-5.6093,-5.6425,-5.6542,-5.6542,-5.6542,-5.6548,-5.6533,-5.6543,-5.6567,-5.661,-5.6605,-5.6602,-5.6595,-5.6606,-5.6595,-5.6607,-5.6597,-5.6598,-5.6597,-5.661,-5.6607,-5.6593,-5.6601,-5.6601,-5.6601,-5.6601,-5.6601,-5.6601,-5.6601,-5.6328,-5.6113,-5.6113,-5.5836,-5.5612,-5.5615,-5.5142,-5.481,-5.481,-5.4322,-5.4088,-5.4298,-5.4326,-5.3861,-5.2768,-5.2401,-5.1971,-5.1425,-5.1405,-5.1405,-5.1405,-5.1398,-5.1381,-5.1343,-5.1316,-5.1239,-5.1097,-4.9384,-4.8572,0.0,-2.2002,-2.2077,-2.2111,0.0,0.0,0.0,0.0,0.0,-2.4977,-2.5063,-2.5145,-2.5256,-2.6673,-2.7842,-2.7967,-3.081,-3.3034,0.0,-3.5342,0.0,-3.9392,-4.1847,-4.3421,-4.3481,-4.5025,-4.6715,-4.8463,-4.8599,-4.9357,-5.1105,-5.12,-5.1211,-5.1211,-5.1276,-5.169,-5.2508,-5.2567,-5.3015,-5.3814,-5.3876,-5.3903,-5.391,-5.3916,-5.3913,-5.3855,-5.2991,-5.2605,-5.2605,-5.2605,-5.2644,-5.2858,-5.4478,-5.5181,-5.5396,-5.6216,-5.6547,-5.6606,-5.6606,-5.6606,-5.6591,-5.6591,-5.6607,-5.6602,-5.6601,-5.66,-5.6593,-5.6598,-5.6595,-5.6602,-5.6601,-5.6601,-5.6601,-5.6601,-5.6601,-5.6601,-5.6601,-5.6601,-5.6601,-5.6601,-5.6543,-5.6504,-5.6504,-5.5781,-5.5215,-5.5215,-5.4529,-5.3993,-5.3994,-5.3951,-5.3912,-5.3912,-5.3854,-5.3483,-5.2683,-5.266,-5.2668,-5.2611,-5.1849,-5.14,-5.14,-5.14,-5.14,-5.14,-5.1405,-5.1394,-5.139,-5.1336,-5.1267,-5.118,-4.9418,-4.8608,-2.0131,0.0,-2.2043,-2.21,-2.2279,-2.2607,0.0,0.0,0.0,0.0,0.0,0.0,-2.6001,-2.7071,-2.8091,-2.8717,-3.1212,-3.3072,-3.3112,-3.591,0.0,-3.9481,-4.1858,-4.3421,-4.3481,-4.5025,-4.6715,-4.8463,-4.8599,-4.9357,-5.1105,-5.12,-5.1211,-5.1211,-5.1276,-5.1398,-5.1593,-5.2275,-5.2692,-5.2902,-5.3591,-5.3936,-5.3942,-5.3303,-5.3001,-5.2952,-5.2078,-5.1707,-5.1707,-5.1707,-5.2097,-5.2741,-5.3151,-5.4127,-5.5318,-5.5528,-5.6022,-5.6607,-5.6607,-5.6598,-5.6598,-5.6598,-5.6607,-5.6593,-5.6595,-5.6593,-5.661,-5.6599,-5.6601,-5.66,-5.6597,-5.66,-5.6601,-5.6601,-5.6601,-5.6601,-5.6601,-5.6601,-5.6601,-5.6601,-5.6055,-5.5605,-5.5605,-5.4883,-5.4316,-5.4316,-5.4121,-5.4001,-5.3998,-5.3424,-5.3014,-5.3014,-5.2409,-5.1932,-5.1716,-5.2323,-5.2422,-5.1745,-5.1519,-5.1404,-5.1404,-5.1406,-5.1406,-5.1406,-5.1391,-5.1406,-5.1405,-5.1323,-5.1284,-5.123,-4.9489,-4.8682,-1.9592,-2.0243,-2.0908,-2.0951,-2.1587,-2.2332,0.0,0.0,0.0,0.0,0.0,0.0,0.0,0.0,0.0,0.0,-3.1651,-3.3655,0.0,0.0,-3.9384,-4.0635,-4.2354,-4.3606,-4.4054,-4.5239,-4.6715,-4.8463,-4.8599,-4.9368,-5.1109,-5.121,-5.1211,-5.1249,-5.1284,-5.13,-5.13,-5.1768,-5.199,-5.2012,-5.2506,-5.2779,-5.2782,-5.2318,-5.2093,-5.2078,-5.1609,-5.1394,-5.1394,-5.1394,-5.1687,-5.2136,-5.2534,-5.3276,-5.4205,-5.5017,-5.5595,-5.6052,-5.6463,-5.66,-5.6601,-5.6602,-5.6606,-5.6606,-5.6598,-5.6595,-5.6606,-5.6598,-5.6602,-5.6602,-5.6602,-5.6607,-5.6595,-5.6599,-5.6599,-5.6599,-5.6599,-5.6287,-5.5995,-5.5996,-5.5293,-5.4707,-5.4707,-5.3984,-5.3398,-5.3398,-5.3066,-5.2812,-5.2804,-5.2407,-5.2104,-5.2097,-5.1681,-5.1404,-5.1402,-5.183,-5.1904,-5.1433,-5.1405,-5.1408,-5.1408,-5.1396,-5.1403,-5.1406,-5.1391,-5.141,-5.1396,-5.1355,-5.1323,-5.1265,-4.9924,-4.9303,-1.9609,-1.9609,-1.966,-1.9791,-2.0969,-2.219,0.0,0.0,0.0,0.0,0.0,0.0,0.0,0.0,0.0,0.0,0.0,-3.4643,-3.7861,-3.919,-4.0403,-4.2004,-4.3092,-4.3996,-4.4734,-4.553,-4.6715,-4.8463,-4.8599,-4.936,-5.1111,-5.1201,-5.1249,-5.1306,-5.1312,-5.13,-5.13,-5.13,-5.1316,-5.1317,-5.1369,-5.1405,-5.1401,-5.139,-5.1394,-5.1394,-5.1394,-5.1394,-5.1394,-5.1394,-5.1394,-5.1472,-5.2211,-5.2582,-5.2889,-5.4369,-5.507,-5.543,-5.6308,-5.6593,-5.6586,-5.645,-5.6391,-5.6372,-5.6235,-5.6196,-5.6196,-5.6196,-5.6391,-5.6606,-5.6606,-5.6606,-5.6591,-5.6607,-5.661,-5.6551,-5.6434,-5.5829,-5.5267,-5.5135,-5.4394,-5.3808,-5.3808,-5.3086,-5.25,-5.25,-5.1875,-5.1406,-5.1406,-5.1404,-5.1398,-5.1391,-5.1405,-5.1402,-5.1398,-5.139,-5.139,-5.139,-5.1394,-5.1394,-5.1394,-5.1394,-5.1391,-5.1406,-5.1396,-5.1402,-5.1394,-5.1406,-5.1361,-5.1289,-5.0412,-5.0026,-1.9675,-1.9726,-1.9932,-2.0602,-2.1029,-2.1683,0.0,0.0,0.0,0.0,0.0,0.0,0.0,-2.967,-3.0665,0.0,0.0,-3.6095,-3.8093,-3.9774,-4.1135,-4.2101,-4.3617,-4.4647,-4.4792,-4.553,-4.6715,-4.8463,-4.8602,-4.9361,-5.1111,-5.1259,-5.1287,-5.1306,-5.1312,-5.13,-5.13,-5.1296,-5.1336,-5.1369,-5.1405,-5.1401,-5.139,-5.1394,-5.1394,-5.1394,-5.1394,-5.1394,-5.1394,-5.1394,-5.1394,-5.1414,-5.1554,-5.2058,-5.2734,-5.3007,-5.4023,-5.5429,-5.6292,-5.6591,-5.6489,-5.5747,-5.5493,-5.5357,-5.4615,-5.44,-5.44,-5.44,-5.5454,-5.6606,-5.6606,-5.6606,-5.6606,-5.661,-5.6591,-5.6395,-5.5654,-5.538,-5.5072,-5.4333,-5.3503,-5.2907,-5.289,-5.2187,-5.1601,-5.1601,-5.1484,-5.1406,-5.1406,-5.1406,-5.1406,-5.1394,-5.1405,-5.1402,-5.1394,-5.1401,-5.1396,-5.1401,-5.141,-5.1394,-5.1394,-5.1394,-5.1391,-5.1406,-5.1406,-5.14,-5.1394,-5.1394,-5.1396,-5.1369,-5.0491,-5.0082,-1.9763,-2.015,-2.0762,-2.1594,-2.1839,-2.2208,0.0,0.0,0.0,0.0,0.0,0.0,0.0,0.0,-3.1889,-3.3713,-3.5811,-3.7661,-3.8926,-4.0607,-4.2007,-4.2866,-4.4053,-4.4986,-4.5463,-4.5852,-4.6785,-4.8525,-4.8652,-4.9411,-5.1162,-5.1278,-5.1295,-5.1304,-5.1308,-5.1296,-5.1296,-5.1349,-5.1375,-5.1394,-5.1391,-5.1406,-5.1394,-5.1394,-5.1394,-5.1394,-5.1394,-5.1394,-5.1394,-5.1405,-5.1405,-5.1398,-5.1394,-5.1639,-5.2051,-5.2539,-5.3513,-5.4657,-5.5052,-5.5201,-5.5123,-5.4732,-5.4596,-5.4517,-5.4127,-5.4006,-5.4001,-5.4001,-5.4587,-5.5192,-5.5201,-5.5196,-5.5192,-5.5201,-5.5201,-5.5083,-5.4674,-5.4225,-5.3776,-5.3385,-5.2593,-5.1997,-5.2002,-5.1678,-5.1406,-5.1406,-5.1406,-5.1406,-5.1406,-5.1406,-5.1404,-5.1398,-5.1394,-5.1394,-5.1394,-5.1406,-5.1401,-5.1396,-5.1401,-5.141,-5.1394,-5.1394,-5.1408,-5.1404,-5.1406,-5.1406,-5.14,-5.1405,-5.141,-5.1396,-5.0986,-5.0806,-1.9844,-2.0516,-2.1434,-2.2334,0.0,-2.3122,-2.4268,0.0,0.0,0.0,0.0,0.0,0.0,-3.1965,0.0,-3.5781,-3.7585,-3.9033,-3.9909,-4.1524,-4.2918,-4.3806,-4.4623,-4.5382,-4.6035,-4.6093,-4.6735,-4.8292,-4.8389,-4.9069,-5.0605,-5.0711,-5.0805,-5.1016,-5.1018,-5.1122,-5.1317,-5.1366,-5.1391,-5.14,-5.1396,-5.1406,-5.1394,-5.1394,-5.1394,-5.1394,-5.1394,-5.1394,-5.1394,-5.1394,-5.1394,-5.1411,-5.1405,-5.1406,-5.1504,-5.2383,-5.3119,-5.3721,-5.3936,-5.399,-5.3971,-5.3756,-5.3698,-5.3659,-5.3444,-5.3396,-5.3387,-5.3387,-5.3387,-5.3459,-5.386,-5.3996,-5.3996,-5.4006,-5.4006,-5.3932,-5.3737,-5.3171,-5.2644,-5.2448,-5.1863,-5.1394,-5.1394,-5.1396,-5.1405,-5.1406,-5.1406,-5.1406,-5.1406,-5.1406,-5.1403,-5.1405,-5.1398,-5.1394,-5.139,-5.139,-5.1406,-5.1401,-5.1401,-5.1406,-5.1394,-5.1394,-5.1402,-5.1398,-5.1405,-5.1406,-5.1406,-5.1398,-5.1405,-5.1402,-5.1398,-5.1406,-1.9949,-2.0625,-2.1528,-2.244,0.0,0.0,-2.6014,-2.6545,0.0,0.0,0.0,0.0,0.0,-3.3932,-3.5933,-3.6938,-3.8566,-3.9994,-4.0881,-4.2454,-4.3825,-4.4694,-4.5562,-4.6099,-4.6102,-4.6093,-4.6482,-4.7416,-4.7492,-4.7899,-4.8844,-4.8943,-4.9354,-5.0153,-5.0192,-5.0575,-5.1375,-5.1391,-5.1396,-5.1396,-5.141,-5.1394,-5.1394,-5.1394,-5.1394,-5.1394,-5.1394,-5.1394,-5.1394,-5.1394,-5.1403,-5.1406,-5.1406,-5.1406,-5.1504,-5.2383,-5.2748,-5.2917,-5.3721,-5.399,-5.3873,-5.3053,-5.278,-5.2644,-5.1824,-5.1581,-5.1591,-5.1591,-5.1536,-5.1869,-5.3481,-5.3947,-5.3996,-5.3996,-5.4001,-5.3776,-5.2975,-5.2741,-5.2468,-5.1648,-5.1433,-5.1394,-5.1394,-5.1398,-5.1405,-5.1398,-5.14,-5.1402,-5.1406,-5.1404,-5.1398,-5.1396,-5.1405,-5.139,-5.1401,-5.1401,-5.1401,-5.1396,-5.1406,-5.1394,-5.1394,-5.1394,-5.1402,-5.1398,-5.1405,-5.1406,-5.1406,-5.1406,-5.1404,-5.1396,-5.1402,-5.1394,-1.9985,-2.105,-2.2278,-2.2662,0.0,0.0,0.0,0.0,0.0,0.0,-3.0859,0.0,0.0,0.0,-3.7167,-3.8595,-3.9828,-4.0901,-4.1793,-4.3343,-4.452,-4.4865,-4.567,-4.6181,-4.6154,-4.6154,-4.6512,-4.7396,-4.7462,-4.7846,-4.8711,-4.8782,-4.8944,-4.9276,-4.9293,-4.9708,-5.0586,-5.0581,-5.0859,-5.141,-5.1394,-5.1394,-5.1394,-5.1394,-5.1394,-5.1394,-5.1394,-5.1394,-5.1394,-5.1402,-5.1398,-5.1406,-5.1406,-5.1406,-5.1445,-5.1771,-5.1882,-5.1938,-5.2277,-5.237,-5.2331,-5.1999,-5.1882,-5.1824,-5.1492,-5.1406,-5.1396,-5.1396,-5.1386,-5.1505,-5.2174,-5.2356,-5.2381,-5.2372,-5.2381,-5.2292,-5.196,-5.1882,-5.1785,-5.1453,-5.1394,-5.1394,-5.1394,-5.1394,-5.1398,-5.1405,-5.1405,-5.1408,-5.1394,-5.1396,-5.1396,-5.1405,-5.1398,-5.1394,-5.141,-5.141,-5.141,-5.141,-5.1406,-5.1406,-5.1394,-5.1394,-5.1398,-5.1405,-5.1404,-5.1406,-5.1406,-5.1406,-5.1406,-5.1405,-5.1403,-5.1398,-2.0363,-2.156,-2.2805,0.0,0.0,0.0,0.0,0.0,0.0,0.0,-3.2277,-3.3887,-3.5962,0.0,-3.8413,-3.9603,-4.0758,-4.1811,-4.2685,-4.4022,-4.5025,-4.5279,-4.5832,-4.6196,-4.6196,-4.6196,-4.6456,-4.7047,-4.7086,-4.7345,-4.7942,-4.8006,-4.8123,-4.8376,-4.8406,-4.8825,-4.9684,-4.9712,-5.0028,-5.0614,-5.0614,-5.0887,-5.1394,-5.1394,-5.1394,-5.1394,-5.1394,-5.1394,-5.1394,-5.1394,-5.1394,-5.1406,-5.1406,-5.1406,-5.1406,-5.1408,-5.1402,-5.1391,-5.1398,-5.1394,-5.1394,-5.1394,-5.1394,-5.1394,-5.1394,-5.1406,-5.1396,-5.1396,-5.1405,-5.1394,-5.1394,-5.14,-5.1405,-5.1396,-5.1406,-5.1394,-5.1394,-5.1394,-5.1394,-5.1394,-5.1394,-5.1394,-5.1394,-5.1394,-5.1394,-5.1394,-5.1394,-5.1394,-5.1394,-5.1405,-5.1408,-5.1394,-5.1394,-5.1394,-5.1394,-5.1394,-5.1394,-5.1394,-5.1406,-5.1406,-5.1394,-5.1394,-5.1394,-5.1394,-5.1403,-5.1406,-5.1406,-5.1406,-5.1406,-5.1406,-5.1406,-5.1406,-2.1158,-2.2086,-2.3032,0.0,0.0,0.0,0.0,0.0,0.0,-3.1948,-3.4198,-3.6286,-3.7152,-3.8674,-3.9809,-3.9819,-4.1283,-4.2724,-4.3591,-4.4469,-4.5304,-4.6114,-4.6206,-4.6206,-4.6206,-4.6206,-4.6206,-4.6206,-4.6206,-4.6206,-4.6206,-4.626,-4.6674,-4.7455,-4.7541,-4.7978,-4.8779,-4.8857,-4.8892,-4.8892,-4.8892,-4.977,-5.1375,-5.1375,-5.1375,-5.1375,-5.1375,-5.1375,-5.1375,-5.1394,-5.1394,-5.1387,-5.1406,-5.1406,-5.1406,-5.1408,-5.1394,-5.1394,-5.1394,-5.1394,-5.1394,-5.1394,-5.1394,-5.1394,-5.1394,-5.1406,-5.1396,-5.1396,-5.1405,-5.1394,-5.1394,-5.1405,-5.1396,-5.1396,-5.1406,-5.1394,-5.1394,-5.1394,-5.1394,-5.1394,-5.1394,-5.1394,-5.1394,-5.1394,-5.1394,-5.1394,-5.1394,-5.1394,-5.1394,-5.1394,-5.1394,-5.1394,-5.1394,-5.1394,-5.1394,-5.1394,-5.1394,-5.1394,-5.1394,-5.1394,-5.1394,-5.1394,-5.1394,-5.1394,-5.1403,-5.1406,-5.1406,-5.1406,-5.1406,-5.1406,-5.1406,-5.1406,-2.1214,-2.2167,0.0,0.0,0.0,0.0,0.0,0.0,0.0,0.0,-3.5955,-3.7363,-3.8857,-3.9543,-4.0268,-4.1439,-4.2572,-4.3626,-4.4481,-4.5352,-4.5991,-4.624,-4.6231,-4.6206,-4.6206,-4.6201,-4.622,-4.627,-4.627,-4.6275,-4.6273,-4.6296,-4.6413,-4.6647,-4.669,-4.7087,-4.7957,-4.7977,-4.8287,-4.8892,-4.8899,-4.9153,-4.9634,-4.9634,-4.9634,-4.9634,-4.9641,-4.9634,-4.9696,-5.0305,-5.0565,-5.0605,-5.1172,-5.1406,-5.1406,-5.1398,-5.1405,-5.1394,-5.1394,-5.1394,-5.1394,-5.1394,-5.1394,-5.1394,-5.1394,-5.139,-5.141,-5.141,-5.1406,-5.1406,-5.1406,-5.1406,-5.1406,-5.1401,-5.1406,-5.1394,-5.1394,-5.1394,-5.1394,-5.1394,-5.1394,-5.1394,-5.1394,-5.1394,-5.1394,-5.1394,-5.1394,-5.1394,-5.1394,-5.1394,-5.1394,-5.1394,-5.1394,-5.1394,-5.1394,-5.1394,-5.1402,-5.1391,-5.1402,-5.1394,-5.1394,-5.1394,-5.1408,-5.1403,-5.1406,-5.1404,-5.1391,-5.1391,-5.1396,-5.1402,-5.1402,-5.1404,-2.1705,0.0,0.0,0.0,0.0,0.0,0.0,0.0,0.0,0.0,-3.7214,-3.8235,-3.9632,-4.0162,-4.0826,-4.2173,-4.313,-4.4006,-4.4875,-4.575,-4.6292,-4.6292,-4.6264,-4.624,-4.624,-4.6236,-4.626,-4.6296,-4.6296,-4.63,-4.629,-4.629,-4.629,-4.629,-4.6303,-4.656,-4.7076,-4.7084,-4.7359,-4.7862,-4.7868,-4.7865,-4.7894,-4.8588,-4.8903,-4.8903,-4.8897,-4.8895,-4.8934,-4.9471,-4.9883,-5.0254,-5.0723,-5.1113,-5.1406,-5.1402,-5.1391,-5.1394,-5.1394,-5.1394,-5.1394,-5.1394,-5.1394,-5.1394,-5.1394,-5.1394,-5.1394,-5.1394,-5.1394,-5.1394,-5.1394,-5.1394,-5.1394,-5.1406,-5.141,-5.1316,-5.0965,-5.0887,-5.0789,-5.0438,-5.0379,-5.0477,-5.0828,-5.0887,-5.1004,-5.1355,-5.1402,-5.1405,-5.1405,-5.1405,-5.1405,-5.1405,-5.1405,-5.1405,-5.1405,-5.1398,-5.1398,-5.1391,-5.1402,-5.1394,-5.1394,-5.1408,-5.14,-5.1406,-5.1406,-5.1403,-5.1394,-5.1394,-5.1402,-5.1391,-5.1391,-5.1396,0.0,0.0,0.0,0.0,0.0,0.0,0.0,-3.4209,-3.5415,-3.7074,0.0,-3.8888,-3.9836,-4.062,-4.1421,-4.2358,-4.3178,-4.4034,-4.4979,-4.5796,-4.63,-4.63,-4.6303,-4.6303,-4.6303,-4.6303,-4.6293,-4.6301,-4.6303,-4.6305,-4.6305,-4.6305,-4.6305,-4.6305,-4.6295,-4.6306,-4.6306,-4.6307,-4.6308,-4.6303,-4.6309,-4.63,-4.6358,-4.7946,-4.8652,-4.8652,-4.8652,-4.8652,-4.8672,-4.875,-4.9258,-4.998,-5.0137,-5.0644,-5.1308,-5.1363,-5.1391,-5.1394,-5.1394,-5.1394,-5.1394,-5.1394,-5.1394,-5.1394,-5.1394,-5.1394,-5.1394,-5.1394,-5.1394,-5.1394,-5.1394,-5.1336,-5.1277,-5.1277,-5.1277,-5.1043,-5.0165,-4.9989,-4.9755,-4.8954,-4.8798,-4.9052,-4.9852,-4.9993,-5.0285,-5.116,-5.1291,-5.132,-5.14,-5.14,-5.14,-5.14,-5.14,-5.14,-5.14,-5.1408,-5.1398,-5.1398,-5.1398,-5.1398,-5.1398,-5.1403,-5.1406,-5.1406,-5.1406,-5.1402,-5.1398,-5.1394,-5.1394,-5.1394,-5.1394,-5.1394,0.0,0.0,0.0,0.0,0.0,0.0,-3.3227,-3.5129,-3.7045,-3.8099,-3.8473,-3.9061,-4.0567,-4.103,-4.1679,-4.3183,-4.3574,-4.4238,-4.58,-4.6178,-4.63,-4.63,-4.6293,-4.6297,-4.6297,-4.6305,-4.6307,-4.6308,-4.6308,-4.6306,-4.6306,-4.6306,-4.6306,-4.6306,-4.6307,-4.6307,-4.6307,-4.6306,-4.6305,-4.6307,-4.6308,-4.6307,-4.6307,-4.6699,-4.6855,-4.6855,-4.6855,-4.6855,-4.6914,-4.7598,-4.7988,-4.8301,-4.9668,-5.0312,-5.0527,-5.1167,-5.1391,-5.1394,-5.1394,-5.1394,-5.1394,-5.1394,-5.1394,-5.1394,-5.1394,-5.1394,-5.1394,-5.1394,-5.1394,-5.1394,-5.1394,-5.0887,-5.0379,-5.0379,-5.0379,-5.0145,-4.9267,-4.9072,-4.9013,-4.8837,-4.8798,-4.8876,-4.9111,-4.916,-4.9458,-5.0321,-5.0461,-5.0688,-5.1327,-5.1406,-5.1406,-5.1406,-5.1406,-5.1406,-5.1406,-5.1405,-5.1405,-5.1405,-5.1405,-5.1405,-5.1405,-5.1406,-5.1406,-5.1406,-5.1398,-5.1408,-5.1394,-5.1402,-5.1394,-5.1394,-5.1394,-5.1394,0.0,0.0,0.0,0.0,0.0,0.0,-3.3389,-3.5425,-3.7555,-3.8414,-3.8924,-3.961,-4.091,-4.117,-4.1758,-4.3437,-4.3691,-4.4316,-4.6055,-4.6306,-4.6297,-4.6303,-4.63,-4.6308,-4.6307,-4.6307,-4.6306,-4.6303,-4.6297,-4.6293,-4.6293,-4.6293,-4.6293,-4.6293,-4.6293,-4.6293,-4.6293,-4.6293,-4.6293,-4.6293,-4.63,-4.6306,-4.6308,-4.6308,-4.6308,-4.6308,-4.6308,-4.6308,-4.6348,-4.6797,-4.7226,-4.7734,-4.9062,-4.9824,-5.0293,-5.1109,-5.1391,-5.1394,-5.1394,-5.1394,-5.1394,-5.1394,-5.1394,-5.1394,-5.1394,-5.1394,-5.1394,-5.1394,-5.1394,-5.1394,-5.1394,-5.075,-5.0008,-4.9618,-4.9501,-4.9247,-4.8408,-4.8232,-4.8096,-4.7686,-4.7595,-4.7754,-4.8197,-4.8623,-4.9059,-4.9504,-4.958,-4.9877,-5.0722,-5.082,-5.0976,-5.1367,-5.1406,-5.1406,-5.1406,-5.1406,-5.1406,-5.1406,-5.1406,-5.1406,-5.1406,-5.1403,-5.1398,-5.1398,-5.1405,-5.1398,-5.1408,-5.1398,-5.1394,-5.1394,-5.1394,-5.1398,0.0,0.0,0.0,0.0,0.0,0.0,-3.34,-3.5411,-3.7558,-3.8426,-3.9287,-4.0151,-4.1015,-4.1171,-4.1699,-4.3222,-4.3594,-4.4258,-4.5859,-4.6211,-4.6308,-4.6295,-4.6307,-4.6306,-4.6303,-4.6293,-4.6295,-4.63,-4.63,-4.63,-4.63,-4.6296,-4.6296,-4.6277,-4.6296,-4.6296,-4.6296,-4.63,-4.63,-4.63,-4.6303,-4.63,-4.6308,-4.6308,-4.6308,-4.6308,-4.6308,-4.6308,-4.6308,-4.6308,-4.6816,-4.7695,-4.8555,-4.9433,-5.0292,-5.1107,-5.1391,-5.1394,-5.1394,-5.1394,-5.1394,-5.1394,-5.1394,-5.1394,-5.1398,-5.1398,-5.1398,-5.1398,-5.1398,-5.1398,-5.1398,-5.0656,-4.9739,-4.9056,-4.8626,-4.8197,-4.753,-4.7373,-4.7162,-4.6436,-4.6295,-4.6537,-4.7254,-4.7968,-4.8496,-4.8652,-4.8672,-4.8984,-4.9863,-4.998,-5.0293,-5.1113,-5.1191,-5.125,-5.1387,-5.1406,-5.1406,-5.1406,-5.1406,-5.1406,-5.1406,-5.1394,-5.1394,-5.1394,-5.1394,-5.1394,-5.1394,-5.1394,-5.1394,-5.1394,-5.1394,-5.1327,0.0,0.0,0.0,0.0,0.0,0.0,0.0,0.0,-3.755,-3.841,-3.9283,-4.0142,-4.096,-4.1103,-4.1421,-4.2417,-4.3218,-4.4038,-4.5034,-4.5815,-4.6305,-4.6306,-4.6305,-4.63,-4.6303,-4.6303,-4.6303,-4.63,-4.63,-4.6296,-4.6308,-4.6308,-4.6264,-4.6211,-4.6264,-4.6308,-4.6308,-4.6296,-4.63,-4.63,-4.6295,-4.6305,-4.6308,-4.6308,-4.6308,-4.6308,-4.6308,-4.6308,-4.6308,-4.6308,-4.6816,-4.7695,-4.8555,-4.9429,-5.0308,-5.1101,-5.1391,-5.1394,-5.1394,-5.1394,-5.1394,-5.1394,-5.1394,-5.1398,-5.1391,-5.1396,-5.1396,-5.1396,-5.1396,-5.1396,-5.1396,-5.0244,-4.9031,-4.8936,-4.7745,-4.661,-4.6498,-4.6468,-4.6434,-4.6323,-4.6301,-4.6347,-4.6454,-4.6563,-4.6898,-4.767,-4.7768,-4.8083,-4.8965,-4.9062,-4.9394,-5.0273,-5.0351,-5.0644,-5.1348,-5.1406,-5.1406,-5.1406,-5.1406,-5.1406,-5.1406,-5.1394,-5.1394,-5.1394,-5.1394,-5.1394,-5.1394,-5.1394,-5.1394,-5.1394,-5.1394,-5.0995,-2.2581,0.0,0.0,0.0,0.0,0.0,-3.3289,-3.5057,-3.6951,-3.8319,-3.9292,-4.0151,-4.0952,-4.1094,-4.1392,-4.2251,-4.272,-4.3286,-4.4145,-4.4594,-4.4848,-4.4848,-4.4848,-4.4845,-4.4836,-4.4836,-4.4836,-4.4836,-4.4832,-4.4844,-4.484,-4.5265,-4.5494,-4.5465,-4.5977,-4.626,-4.6303,-4.6308,-4.6296,-4.63,-4.6297,-4.6306,-4.6308,-4.6308,-4.6308,-4.6308,-4.6308,-4.6308,-4.6308,-4.6308,-4.6816,-4.7695,-4.8555,-4.9428,-5.0301,-5.1093,-5.1402,-5.1336,-5.0848,-5.0672,-5.0672,-5.0672,-5.0672,-5.075,-5.1249,-5.1398,-5.1404,-5.1404,-5.1404,-5.1404,-5.1404,-5.0154,-4.8903,-4.8899,-4.7571,-4.63,-4.6303,-4.6306,-4.6295,-4.6301,-4.6308,-4.6297,-4.6303,-4.63,-4.642,-4.6817,-4.6878,-4.7193,-4.8057,-4.8162,-4.8516,-4.9375,-4.9473,-4.9609,-4.9961,-5.0,-5.0,-5.0,-5.0,-4.9999,-4.9992,-5.0437,-5.0663,-5.0672,-5.1141,-5.1394,-5.1394,-5.1394,-5.116,-5.0672,-5.0672,-5.0214,0.0,0.0,0.0,0.0,0.0,0.0,0.0,0.0,-3.6166,-3.7906,-3.8961,-3.9819,-4.062,-4.0952,-4.1303,-4.197,-4.2262,-4.263,-4.3274,-4.3567,-4.3704,-4.3704,-4.3704,-4.3704,-4.3704,-4.3704,-4.3704,-4.3704,-4.3697,-4.3708,-4.3704,-4.4261,-4.466,-4.4889,-4.5538,-4.5991,-4.6275,-4.6284,-4.6292,-4.63,-4.6293,-4.6305,-4.6308,-4.6308,-4.6308,-4.6308,-4.6308,-4.6308,-4.6308,-4.6308,-4.6816,-4.7695,-4.8554,-4.9426,-5.025,-5.0848,-5.1063,-5.0945,-5.0067,-4.9774,-4.9794,-4.9794,-4.9938,-5.0256,-5.09,-5.1245,-5.1406,-5.1406,-5.1406,-5.1406,-5.1406,-5.0156,-4.8906,-4.8903,-4.7574,-4.6303,-4.6295,-4.6293,-4.63,-4.6308,-4.63,-4.63,-4.63,-4.63,-4.63,-4.63,-4.63,-4.6534,-4.7198,-4.7278,-4.7597,-4.8476,-4.8574,-4.8652,-4.8887,-4.8906,-4.8906,-4.8906,-4.8906,-4.8903,-4.8899,-4.9475,-4.9788,-4.9774,-5.0418,-5.0848,-5.1063,-5.1063,-5.0614,-4.9774,-4.9794,-4.9352,0.0,0.0,0.0,0.0,0.0,0.0,0.0,-3.4114,-3.5269,-3.7009,-3.8063,-3.8902,-3.9722,-4.0542,-4.1108,-4.1166,-4.1869,-4.2415,-4.2454,-4.3177,-4.3704,-4.3704,-4.3704,-4.3704,-4.3704,-4.3704,-4.3704,-4.3704,-4.3697,-4.3704,-4.369,-4.368,-4.4058,-4.4878,-4.4929,-4.537,-4.6209,-4.6275,-4.6292,-4.63,-4.63,-4.6297,-4.6308,-4.6308,-4.6308,-4.6308,-4.6308,-4.6308,-4.6308,-4.6308,-4.6816,-4.7695,-4.8557,-4.9394,-5.0107,-5.0152,-5.0165,-5.0048,-4.9169,-4.8915,-4.8954,-4.8951,-4.9522,-5.0195,-5.0254,-5.0801,-5.1406,-5.1406,-5.1406,-5.1406,-5.1406,-5.0156,-4.8906,-4.8906,-4.7578,-4.6308,-4.6308,-4.6308,-4.6308,-4.6308,-4.63,-4.63,-4.63,-4.63,-4.63,-4.63,-4.63,-4.6319,-4.6358,-4.6373,-4.6695,-4.7578,-4.7676,-4.8008,-4.8828,-4.8906,-4.8906,-4.8906,-4.8906,-4.8903,-4.8899,-4.8939,-4.8939,-4.8876,-4.8915,-4.9345,-5.0165,-5.0165,-4.9716,-4.8876,-4.8935,-4.8496,0.0,0.0,0.0,0.0,-2.9191,-3.0507,-3.2183,-3.3246,-3.4351,-3.6111,-3.7165,-3.818,-3.9546,-4.0503,-4.1108,-4.1108,-4.1361,-4.1576,-4.1576,-4.183,-4.2025,-4.2025,-4.2025,-4.2025,-4.2025,-4.2025,-4.2025,-4.2025,-4.2038,-4.2026,-4.2032,-4.2543,-4.3214,-4.4033,-4.4605,-4.5319,-4.6201,-4.6275,-4.6292,-4.63,-4.63,-4.6293,-4.6306,-4.6308,-4.6308,-4.6308,-4.6308,-4.6308,-4.6308,-4.6308,-4.6815,-4.7625,-4.7946,-4.8587,-4.9336,-4.9329,-4.9306,-4.915,-4.833,-4.8044,-4.8069,-4.806,-4.8272,-4.873,-4.9863,-5.0391,-5.0742,-5.125,-5.1403,-5.1394,-5.1394,-5.0168,-4.861,-4.7497,-4.6755,-4.6306,-4.6306,-4.6301,-4.6297,-4.6297,-4.6309,-4.63,-4.63,-4.63,-4.63,-4.63,-4.63,-4.63,-4.63,-4.6306,-4.6415,-4.6738,-4.6777,-4.6894,-4.7207,-4.7226,-4.7226,-4.7226,-4.7226,-4.7226,-4.7224,-4.7776,-4.806,-4.8037,-4.8545,-4.8954,-4.9267,-4.9267,-4.8837,-4.8037,-4.8057,-4.7592,-2.4757,0.0,0.0,0.0,0.0,-2.9605,-3.1313,-3.2343,-3.3456,-3.5193,-3.6267,-3.7282,-3.8707,-3.9663,-4.0444,-4.101,-4.1108,-4.1108,-4.1108,-4.1108,-4.1108,-4.1108,-4.1108,-4.1108,-4.1108,-4.1108,-4.1108,-4.1108,-4.1101,-4.1109,-4.11,-4.1652,-4.2473,-4.3565,-4.4442,-4.5319,-4.6187,-4.6236,-4.6288,-4.63,-4.63,-4.6309,-4.6301,-4.6308,-4.6308,-4.6308,-4.6308,-4.6308,-4.6308,-4.6308,-4.6637,-4.7198,-4.7494,-4.7939,-4.8466,-4.8466,-4.8447,-4.8271,-4.7451,-4.7165,-4.7154,-4.7157,-4.7359,-4.7871,-4.9314,-4.9976,-5.0368,-5.1171,-5.1398,-5.1324,-5.1047,-4.9726,-4.8094,-4.6647,-4.6295,-4.6295,-4.6295,-4.6293,-4.6306,-4.6303,-4.63,-4.63,-4.63,-4.63,-4.63,-4.63,-4.63,-4.6303,-4.6309,-4.6303,-4.6293,-4.6308,-4.6308,-4.6308,-4.6308,-4.6308,-4.6308,-4.6308,-4.6308,-4.6308,-4.6308,-4.685,-4.7152,-4.7162,-4.7686,-4.7959,-4.7959,-4.8252,-4.7978,-4.7159,-4.7165,-4.6856,0.0,0.0,0.0,0.0,0.0,-2.873,-3.0467,-3.1485,-3.2558,-3.4276,-3.533,-3.6208,-3.7106,-3.7946,-3.9081,-4.0756,-4.1049,-4.1049,-4.1049,-4.1088,-4.1108,-4.1108,-4.1108,-4.1108,-4.1108,-4.1108,-4.1108,-4.1108,-4.1101,-4.1094,-4.1094,-4.1111,-4.1889,-4.3507,-4.4423,-4.53,-4.6167,-4.6187,-4.624,-4.63,-4.63,-4.6309,-4.6301,-4.6308,-4.6308,-4.6308,-4.6308,-4.6308,-4.6308,-4.6308,-4.6305,-4.6378,-4.724,-4.7569,-4.7569,-4.7569,-4.7569,-4.7432,-4.6593,-4.63,-4.6306,-4.6307,-4.6875,-4.7714,-4.859,-4.9478,-5.0324,-5.114,-5.1379,-5.1181,-5.0289,-4.8841,-4.7377,-4.6515,-4.63,-4.63,-4.63,-4.6293,-4.6297,-4.6303,-4.63,-4.63,-4.63,-4.63,-4.63,-4.63,-4.63,-4.6306,-4.63,-4.6293,-4.6295,-4.6308,-4.6308,-4.6308,-4.6308,-4.6308,-4.6308,-4.6308,-4.6308,-4.6308,-4.6308,-4.6308,-4.6306,-4.6303,-4.63,-4.63,-4.63,-4.7159,-4.7139,-4.63,-4.6297,-4.6306,-2.5634,0.0,0.0,0.0,0.0,0.0,-2.9552,-3.0587,-3.1485,-3.2597,-3.3515,-3.4588,-3.6072,-3.656,-3.7282,-3.9,-3.978,-4.0151,-4.0151,-4.0698,-4.1108,-4.1108,-4.1108,-4.1108,-4.1108,-4.1108,-4.1108,-4.1108,-4.1108,-4.1101,-4.1094,-4.1705,-4.2242,-4.2724,-4.4148,-4.503,-4.5323,-4.5967,-4.6288,-4.63,-4.63,-4.6309,-4.6301,-4.6308,-4.6308,-4.6308,-4.6308,-4.6308,-4.6308,-4.6308,-4.6307,-4.6317,-4.658,-4.6651,-4.6651,-4.6651,-4.6651,-4.6632,-4.6378,-4.63,-4.6306,-4.6307,-4.6462,-4.682,-4.7709,-4.8564,-4.9423,-5.0227,-5.0914,-5.105,-4.9544,-4.8388,-4.7373,-4.6515,-4.63,-4.63,-4.63,-4.6303,-4.6306,-4.63,-4.63,-4.63,-4.63,-4.63,-4.63,-4.63,-4.63,-4.6306,-4.63,-4.6305,-4.6307,-4.6308,-4.6308,-4.6308,-4.6308,-4.6308,-4.6308,-4.6308,-4.6308,-4.6308,-4.6308,-4.6308,-4.6308,-4.6307,-4.6301,-4.6297,-4.6297,-4.6541,-4.6534,-4.63,-4.6305,-4.6308,-2.6241,-2.5976,-2.5816,-2.6335,0.0,0.0,-2.8732,-2.9708,-3.0645,-3.1856,-3.25,-3.328,-3.4666,-3.4917,-3.5252,-3.6267,-3.7438,-3.8473,-3.9195,-3.9741,-4.0054,-4.0054,-4.0054,-4.0054,-4.0054,-4.0054,-4.019,-4.0522,-4.0561,-4.0714,-4.1074,-4.1577,-4.2017,-4.2383,-4.3358,-4.4046,-4.445,-4.4957,-4.5219,-4.5226,-4.5578,-4.5763,-4.5774,-4.6132,-4.6308,-4.6308,-4.6308,-4.6308,-4.6308,-4.6308,-4.6308,-4.6306,-4.629,-4.63,-4.63,-4.63,-4.63,-4.63,-4.63,-4.6309,-4.6303,-4.6307,-4.6295,-4.6456,-4.7334,-4.7959,-4.8521,-4.9325,-4.9677,-4.9579,-4.8564,-4.7686,-4.6924,-4.6417,-4.63,-4.63,-4.63,-4.63,-4.63,-4.63,-4.63,-4.63,-4.63,-4.63,-4.63,-4.63,-4.63,-4.6303,-4.6293,-4.6306,-4.6308,-4.6308,-4.6308,-4.6308,-4.6308,-4.6308,-4.6308,-4.6308,-4.6308,-4.6308,-4.6308,-4.6308,-4.6308,-4.6307,-4.6305,-4.6301,-4.6301,-4.6295,-4.6306,-4.63,-4.6303,-4.6307,-2.7136,-2.6582,-2.5984,-2.598,-2.6507,0.0,-2.8108,-2.881,-2.9786,-3.1485,-3.1816,-3.2129,-3.3085,-3.3261,-3.33,-3.3378,-3.4705,-3.6325,-3.8063,-3.8475,-3.8593,-3.8593,-3.8593,-3.8593,-3.8593,-3.8593,-3.8902,-3.9605,-3.9663,-4.0031,-4.0898,-4.0957,-4.1363,-4.2232,-4.2349,-4.2763,-4.3552,-4.3654,-4.3697,-4.3704,-4.4484,-4.4865,-4.4895,-4.5761,-4.6152,-4.6152,-4.6269,-4.6308,-4.6308,-4.6308,-4.6308,-4.6308,-4.6297,-4.6306,-4.6303,-4.63,-4.63,-4.63,-4.6306,-4.6303,-4.6307,-4.629,-4.63,-4.6436,-4.7217,-4.753,-4.7764,-4.8564,-4.8213,-4.7608,-4.7608,-4.6944,-4.63,-4.63,-4.63,-4.63,-4.63,-4.63,-4.63,-4.63,-4.63,-4.63,-4.63,-4.63,-4.63,-4.63,-4.6303,-4.6303,-4.63,-4.6303,-4.6308,-4.6308,-4.6308,-4.6308,-4.6308,-4.6308,-4.6308,-4.6308,-4.6308,-4.6308,-4.6308,-4.6308,-4.6308,-4.6303,-4.6303,-4.6303,-4.6303,-4.6301,-4.6295,-4.63,-4.6295,-4.63,-2.8043,-2.7929,-2.7791,-2.7799,-2.7386,0.0,-2.8108,-2.7893,-2.7993,-2.9728,-3.0079,-3.0548,-3.207,-3.2343,-3.258,-3.3293,-3.3683,-3.4519,-3.6267,-3.7711,-3.8593,-3.8593,-3.8593,-3.8593,-3.8593,-3.8593,-3.8671,-3.8824,-3.8824,-3.9195,-4.0011,-4.005,-4.0441,-4.1339,-4.2038,-4.249,-4.2646,-4.3349,-4.3704,-4.3704,-4.386,-4.3947,-4.3978,-4.4863,-4.5254,-4.5293,-4.5996,-4.6308,-4.6308,-4.6308,-4.6308,-4.6308,-4.6308,-4.6305,-4.6297,-4.6306,-4.63,-4.6303,-4.6305,-4.6307,-4.6309,-4.6303,-4.63,-4.6339,-4.6495,-4.7042,-4.7764,-4.8564,-4.8213,-4.7608,-4.7608,-4.6944,-4.63,-4.63,-4.63,-4.63,-4.63,-4.63,-4.63,-4.63,-4.63,-4.63,-4.63,-4.63,-4.63,-4.63,-4.6293,-4.6295,-4.6303,-4.6303,-4.6308,-4.6308,-4.6308,-4.6308,-4.6308,-4.6308,-4.6308,-4.6308,-4.6308,-4.6308,-4.6308,-4.6308,-4.6308,-4.6308,-4.6308,-4.6308,-4.6308,-4.6297,-4.6303,-4.63,-4.6303,-4.6306,-2.8944,-2.8632,-2.8301,-2.8297,-2.7979,0.0,0.0,-2.8266,-2.801,-2.9338,-2.9244,-2.9209,-3.0048,-3.0208,-3.0347,-3.0798,-3.1581,-3.2461,-3.3338,-3.4935,-3.6003,-3.6003,-3.6003,-3.6003,-3.6001,-3.6016,-3.6364,-3.7243,-3.8102,-3.8785,-3.9175,-3.9195,-3.9585,-4.0424,-4.0873,-4.1303,-4.1752,-4.2181,-4.2396,-4.2415,-4.2845,-4.3049,-4.3079,-4.3945,-4.459,-4.5019,-4.5469,-4.5898,-4.6308,-4.6305,-4.6301,-4.6303,-4.6308,-4.6308,-4.6307,-4.6308,-4.6308,-4.6307,-4.6308,-4.6303,-4.6293,-4.6303,-4.63,-4.63,-4.63,-4.6612,-4.7042,-4.7432,-4.7256,-4.6944,-4.6944,-4.6632,-4.63,-4.63,-4.63,-4.63,-4.63,-4.63,-4.63,-4.63,-4.63,-4.63,-4.63,-4.63,-4.63,-4.63,-4.6295,-4.6301,-4.6301,-4.6307,-4.6308,-4.6308,-4.6308,-4.6308,-4.6308,-4.6308,-4.6308,-4.6308,-4.6308,-4.6308,-4.6308,-4.6308,-4.6308,-4.6308,-4.6308,-4.6308,-4.6308,-4.6301,-4.6309,-4.63,-4.63,-4.63,-3.0075,-2.9453,-2.8808,-2.8809,-2.8668,-2.8738,0.0,0.0,0.0,-2.9203,-2.8781,-2.8298,-2.83,-2.83,-2.8301,-2.8301,-2.947,-3.0404,-3.0404,-3.1562,-3.2654,-3.3317,-3.3394,-3.3393,-3.3408,-3.3402,-3.3983,-3.5386,-3.695,-3.7926,-3.8082,-3.8258,-3.8726,-3.9546,-3.9722,-4.0132,-4.0834,-4.101,-4.1108,-4.1108,-4.1813,-4.2151,-4.2182,-4.3046,-4.3828,-4.4512,-4.4843,-4.5409,-4.6053,-4.6237,-4.6303,-4.6303,-4.6306,-4.6303,-4.6306,-4.6303,-4.6309,-4.63,-4.63,-4.63,-4.6297,-4.6306,-4.63,-4.63,-4.63,-4.63,-4.63,-4.63,-4.63,-4.63,-4.63,-4.63,-4.63,-4.63,-4.63,-4.63,-4.63,-4.63,-4.63,-4.63,-4.63,-4.63,-4.63,-4.63,-4.63,-4.63,-4.6293,-4.6303,-4.6308,-4.6308,-4.6308,-4.6308,-4.6308,-4.6308,-4.6308,-4.6308,-4.6308,-4.6308,-4.6308,-4.6308,-4.6307,-4.6307,-4.6307,-4.6308,-4.6308,-4.6308,-4.6308,-4.6306,-4.6295,-4.63,-4.63,-4.63,-3.1821,-3.1227,-3.0605,-3.0605,-3.0019,-2.9471,-2.9576,0.0,-2.8334,-2.8424,0.0,-2.83,-2.8294,0.0,0.0,-2.8291,-2.8465,-2.86,-2.8598,-2.8756,-2.9994,-3.3047,-3.3398,-3.3396,-3.3402,-3.34,-3.3476,-3.369,-3.4588,-3.5486,-3.6247,-3.7028,-3.7848,-3.8707,-3.9429,-3.9858,-3.9956,-4.0717,-4.1108,-4.1108,-4.1205,-4.1253,-4.1283,-4.2148,-4.2598,-4.2773,-4.4325,-4.5057,-4.5213,-4.5985,-4.6293,-4.6303,-4.63,-4.6301,-4.63,-4.6306,-4.6303,-4.6303,-4.6303,-4.6303,-4.6303,-4.63,-4.63,-4.63,-4.63,-4.63,-4.63,-4.63,-4.63,-4.63,-4.63,-4.63,-4.63,-4.63,-4.63,-4.63,-4.63,-4.63,-4.63,-4.63,-4.63,-4.63,-4.63,-4.63,-4.63,-4.63,-4.6303,-4.6295,-4.6308,-4.6308,-4.6308,-4.6308,-4.6308,-4.6308,-4.6308,-4.6308,-4.6308,-4.6308,-4.6308,-4.6307,-4.6306,-4.6306,-4.6293,-4.6303,-4.6308,-4.6308,-4.6308,-4.6306,-4.6295,-4.63,-4.63,-4.63,-3.2851,-3.2606,-3.2222,-3.1717,-3.1327,-3.0937,-3.0468,-2.9687,-2.9043,-2.9043,0.0,0.0,0.0,0.0,0.0,0.0,-2.7212,-2.7544,-2.7542,-2.7971,-2.8838,-3.0273,-3.0449,-3.0448,-3.0442,-3.0905,-3.1387,-3.1856,-3.2695,-3.3573,-3.4432,-3.533,-3.6189,-3.7067,-3.7906,-3.859,-3.9097,-3.9468,-3.9878,-4.0346,-4.0385,-4.0648,-4.1107,-4.1523,-4.1953,-4.2441,-4.3171,-4.3782,-4.4312,-4.5197,-4.5545,-4.5597,-4.6108,-4.6306,-4.629,-4.6303,-4.63,-4.63,-4.63,-4.63,-4.63,-4.63,-4.63,-4.63,-4.63,-4.63,-4.63,-4.63,-4.63,-4.63,-4.63,-4.63,-4.63,-4.63,-4.63,-4.63,-4.63,-4.63,-4.63,-4.63,-4.63,-4.63,-4.63,-4.63,-4.6303,-4.6293,-4.6306,-4.6293,-4.6308,-4.6308,-4.6308,-4.6308,-4.6308,-4.6308,-4.6308,-4.6308,-4.6307,-4.63,-4.63,-4.6297,-4.6295,-4.6306,-4.6303,-4.629,-4.6297,-4.6305,-4.6308,-4.6308,-4.6301,-4.63,-4.63,-4.63,-3.376,-3.359,-3.3241,-3.2606,-3.2453,-3.224,-3.1418,-3.0739,-3.0154,-2.9682,-2.9095,0.0,0.0,0.0,-2.7071,-2.6195,0.0,-2.6919,-2.6685,-2.719,-2.7762,-2.824,-2.83,-2.83,-2.8298,-2.8877,-2.9494,-3.0079,-3.1133,-3.2051,-3.2675,-3.3749,-3.4747,-3.5628,-3.6487,-3.7365,-3.8244,-3.8473,-3.8882,-3.9468,-3.9761,-4.0216,-4.0771,-4.1073,-4.1503,-4.2068,-4.2295,-4.2753,-4.3414,-4.4286,-4.4774,-4.5063,-4.5679,-4.605,-4.6273,-4.6273,-4.6273,-4.6296,-4.6296,-4.63,-4.63,-4.63,-4.63,-4.63,-4.63,-4.63,-4.63,-4.63,-4.63,-4.63,-4.63,-4.63,-4.63,-4.63,-4.63,-4.63,-4.63,-4.63,-4.63,-4.63,-4.63,-4.63,-4.63,-4.63,-4.6303,-4.6295,-4.6295,-4.63,-4.6308,-4.6308,-4.6308,-4.6308,-4.6308,-4.6308,-4.6307,-4.6307,-4.6303,-4.6309,-4.6303,-4.6306,-4.6297,-4.6306,-4.63,-4.63,-4.63,-4.6293,-4.6307,-4.6308,-4.6307,-4.6293,-4.6306,-4.63,-3.4659,-3.4039,-3.3379,-3.336,-3.335,-3.3124,-3.2265,-3.2034,-3.1563,-2.9921,-2.9572,-2.9281,-2.842,-2.8264,-2.7971,-2.7095,-2.6978,0.0,0.0,-2.5765,-2.641,-2.8108,-2.8298,-2.83,-2.8298,-2.8332,-2.8344,-2.8381,-2.9962,-3.0958,-3.0977,-3.2558,-3.3832,-3.4702,-3.558,-3.6459,-3.7338,-3.8188,-3.8612,-3.8651,-3.9507,-3.9917,-3.9978,-4.0818,-4.1188,-4.1189,-4.2021,-4.2429,-4.2513,-4.3381,-4.4235,-4.4996,-4.4963,-4.547,-4.6206,-4.6206,-4.6236,-4.6303,-4.6303,-4.6292,-4.63,-4.63,-4.63,-4.63,-4.63,-4.63,-4.63,-4.63,-4.63,-4.63,-4.63,-4.63,-4.63,-4.63,-4.63,-4.63,-4.63,-4.63,-4.63,-4.63,-4.63,-4.63,-4.63,-4.63,-4.63,-4.63,-4.6303,-4.6308,-4.6308,-4.6308,-4.6308,-4.6308,-4.6308,-4.6307,-4.6306,-4.6303,-4.6309,-4.6301,-4.6309,-4.63,-4.63,-4.63,-4.63,-4.63,-4.63,-4.63,-4.6303,-4.6306,-4.6308,-4.6308,-4.6295,-4.63,-3.6507,-3.6148,-3.5632,-3.4471,-3.423,-3.4027,-3.3165,-3.295,-3.2638,-3.1487,-3.1253,-3.0804,-2.9361,-2.9087,-2.8639,-2.7237,-2.7005,-2.6696,0.0,-2.5197,-2.5065,-2.5657,-2.5214,-2.5098,-2.5664,-2.5715,-2.6195,-2.7347,-2.7991,-2.8815,-2.9972,-3.1118,-3.2112,-3.2955,-3.4372,-3.5273,-3.5585,-3.6443,-3.7164,-3.7745,-3.8615,-3.9331,-3.9939,-4.0761,-4.1119,-4.113,-4.1406,-4.154,-4.1605,-4.2479,-4.3002,-4.3383,-4.4484,-4.5084,-4.5415,-4.5991,-4.6211,-4.6236,-4.6284,-4.6292,-4.63,-4.63,-4.63,-4.63,-4.63,-4.63,-4.63,-4.63,-4.63,-4.63,-4.63,-4.63,-4.63,-4.63,-4.63,-4.63,-4.63,-4.63,-4.63,-4.63,-4.63,-4.63,-4.63,-4.6306,-4.6309,-4.63,-4.6303,-4.6308,-4.6308,-4.6308,-4.6307,-4.6297,-4.6297,-4.6293,-4.63,-4.63,-4.6303,-4.6309,-4.6303,-4.63,-4.63,-4.63,-4.63,-4.63,-4.63,-4.63,-4.63,-4.6293,-4.63,-4.6306,-4.6308,-4.5996,-3.7773,-3.7631,-3.7274,-3.5839,-3.5543,-3.5281,-3.4092,-3.3823,-3.3598,-3.274,-3.2569,-3.2124,-3.0696,-3.0423,-2.9877,-2.8164,-2.7641,-2.7042,0.0,-2.4942,-2.4284,-2.398,-2.3437,-2.332,-2.3887,-2.4216,-2.4876,-2.5986,-2.6648,-2.7487,-2.8626,-2.9801,-3.0818,-3.1658,-3.334,-3.4394,-3.4707,-3.5566,-3.6289,-3.6855,-3.7714,-3.859,-3.9468,-4.0308,-4.0821,-4.1108,-4.1104,-4.1097,-4.1148,-4.171,-4.211,-4.2529,-4.3902,-4.4637,-4.5007,-4.5877,-4.6201,-4.6211,-4.6279,-4.6292,-4.63,-4.63,-4.63,-4.63,-4.63,-4.63,-4.63,-4.63,-4.63,-4.63,-4.63,-4.63,-4.63,-4.63,-4.63,-4.63,-4.63,-4.63,-4.63,-4.63,-4.63,-4.63,-4.63,-4.6306,-4.629,-4.6309,-4.6303,-4.6307,-4.6307,-4.6307,-4.6306,-4.6293,-4.6309,-4.6306,-4.63,-4.63,-4.63,-4.63,-4.6296,-4.6296,-4.6296,-4.6273,-4.6273,-4.6296,-4.6296,-4.6296,-4.63,-4.63,-4.6306,-4.6295,-4.6293,-4.567]}]]